[[{"header":{"parameterUnit":"m.s-1","parameterCategory":1,"la1":31.0,"la2":29.5877,"lo1":-88.7671,"lo2":-86.6584,"dy":0.0162,"dx":0.0185,"nx":115,"ny":88,"refTime":"2024-07-28T06:00:00:Z","depth":0,"parameterNumber":2,"parameterNumberName":"U-component_of_WINDS"},"data":[0.0,0.0,0.0,0.0,0.0,0.0,0.0,0.0,0.0,0.0,0.0,0.0,0.0,0.0,0.0,0.0,0.0,0.0,0.0,0.0,0.0,0.0,0.0,0.0,0.0,0.0,0.0,0.0,0.0,0.0,0.0,0.0,0.0,0.0,0.0,0.0,0.0,0.0,0.0,0.0,0.0,0.0,0.0,0.0,0.0,0.0,0.0,0.0,0.0,0.0,0.0,0.0,0.0,0.0,0.0,0.0,0.0,0.0,0.0,0.0,0.0,0.0,0.0,0.0,0.0,0.0,0.0,0.0,0.0,0.0,0.0,0.0,0.0,0.0,0.0,0.0,0.0,0.0,0.0,0.0,0.0,0.0,0.0,0.0,0.0,0.0,0.0,0.0,0.0,0.0,0.0,0.0,0.0,0.0,0.0,0.0,0.0,0.0,0.0,0.0,0.0,0.0,0.0,0.0,0.0,0.0,0.0,0.0,0.0,0.0,0.0,0.0,0.0,0.0,0.0,0.0,0.0,0.0,0.0,0.0,0.0,0.0,0.0,0.0,0.0,0.0,0.0,0.0,0.0,0.0,0.0,0.0,0.0,0.0,0.0,0.0,0.0,0.0,0.0,0.0,0.0,0.0,0.0,0.0,0.0,0.0,0.0,0.0,0.0,0.0,0.0,0.0,0.0,0.0,0.0,0.0,0.0,0.0,0.0,0.0,0.0,0.0,0.0,0.0,0.0,0.0,0.0,0.0,0.0,0.0,0.0,0.0,0.0,0.0,0.0,0.0,0.0,0.0,0.0,0.0,0.0,0.0,0.0,0.0,0.0,0.0,0.0,0.0,0.0,0.0,0.0,0.0,0.0,0.0,0.0,0.0,0.0,0.0,0.0,0.0,0.0,0.0,0.0,0.0,0.0,0.0,0.0,0.0,0.0,0.0,0.0,0.0,0.0,0.0,0.0,0.0,0.0,0.0,0.0,0.0,0.0,0.0,0.0,0.0,0.0,0.0,0.0,0.0,0.0,0.0,0.0,0.0,0.0,0.0,0.0,0.0,0.0,0.0,0.0,0.0,0.0,0.0,0.0,0.0,0.0,0.0,0.0,0.0,0.0,0.0,0.0,0.0,0.0,0.0,0.0,0.0,0.0,0.0,0.0,0.0,0.0,0.0,0.0,0.0,0.0,0.0,0.0,0.0,0.0,0.0,0.0,0.0,0.0,0.0,0.0,0.0,0.0,0.0,0.0,0.0,0.0,0.0,0.0,0.0,0.0,0.0,0.0,0.0,0.0,0.0,0.0,0.0,0.0,0.0,0.0,0.0,0.0,0.0,0.0,0.0,0.0,0.0,0.0,0.0,0.0,0.0,0.0,0.0,0.0,0.0,0.0,0.0,0.0,0.0,0.0,0.0,0.0,0.0,0.0,0.0,0.0,0.0,0.0,0.0,0.0,0.0,0.0,0.0,0.0,0.0,0.0,0.0,0.0,0.0,0.0,0.0,0.0,0.0,0.0,0.0,0.0,0.0,0.0,0.0,0.0,0.0,0.0,0.0,0.0,0.0,0.0,0.0,0.0,0.0,0.0,0.0,0.0,0.0,0.0,0.0,0.0,0.0,0.0,0.0,0.0,0.0,0.0,0.0,0.0,0.0,0.0,0.0,0.0,0.0,0.0,0.0,0.0,0.0,0.0,0.0,0.0,0.0,0.0,0.0,0.0,0.0,0.0,0.0,0.0,0.0,0.0,0.0,0.0,0.0,0.0,0.0,0.0,0.0,0.0,0.0,0.0,0.0,0.0,0.0,0.0,0.0,0.0,0.0,0.0,0.0,0.0,0.0,0.0,0.0,0.0,0.0,0.0,0.0,0.0,0.0,0.0,0.0,0.0,0.0,0.0,0.0,0.0,0.0,0.0,0.0,0.0,0.0,0.0,0.0,0.0,0.0,0.0,0.0,0.0,0.0,0.0,0.0,0.0,0.0,0.0,0.0,0.0,0.0,0.0,0.0,0.0,0.0,0.0,0.0,0.0,0.0,0.0,0.0,0.0,0.0,0.0,0.0,0.0,0.0,0.0,0.0,0.0,0.0,0.0,0.0,0.0,0.0,0.0,0.0,0.0,0.0,0.0,0.0,0.0,0.0,0.0,0.0,0.0,0.0,0.0,0.0,0.0,0.0,0.0,0.0,0.0,0.0,0.0,0.0,0.0,0.0,0.0,0.0,0.0,0.0,0.0,0.0,0.0,0.0,0.0,0.0,0.0,0.0,0.0,0.0,0.0,0.0,0.0,0.0,0.0,0.0,0.0,0.0,0.0,0.0,0.0,0.0,0.0,0.0,0.0,0.0,0.0,0.0,0.0,0.0,0.0,0.0,0.0,0.0,0.0,0.0,0.0,0.0,0.0,0.0,0.0,0.0,0.0,0.0,0.0,0.0,0.0,0.0,0.0,0.0,0.0,0.0,0.0,0.0,0.0,0.0,0.0,0.0,0.0,0.0,0.0,0.0,0.0,0.0,0.0,0.0,0.0,0.0,0.0,0.0,0.0,0.0,0.0,0.0,0.0,0.0,0.0,0.0,0.0,0.0,0.0,0.0,0.0,0.0,0.0,0.0,0.0,0.0,0.0,0.0,0.0,0.0,0.0,0.0,0.0,0.0,0.0,0.0,0.0,0.0,0.0,0.0,0.0,0.0,0.0,0.0,0.0,0.0,0.0,0.0,0.0,0.0,0.0,0.0,0.0,0.0,0.0,0.0,0.0,0.0,0.0,0.0,0.0,0.0,0.0,0.0,0.0,0.0,0.0,0.0,0.0,0.0,0.0,0.0,0.0,0.0,0.0,0.0,0.0,0.0,0.0,0.0,0.0,0.0,0.0,0.0,0.0,0.0,0.0,0.0,0.0,0.0,0.0,0.0,0.0,0.0,0.0,0.0,0.0,0.0,0.0,0.0,0.0,0.0,0.0,0.0,0.0,0.0,0.0,0.0,0.0,0.0,0.0,0.0,0.0,0.0,0.0,0.0,0.0,0.0,0.0,0.0,0.0,0.0,0.0,0.0,0.0,0.0,0.0,0.0,0.0,0.0,0.0,0.0,0.0,0.0,0.0,0.0,0.0,0.0,0.0,0.0,0.0,0.0,0.0,0.0,0.0,0.0,0.0,0.0,0.0,0.0,0.0,0.0,0.0,0.0,0.0,0.0,0.0,0.0,0.0,0.0,0.0,0.0,0.0,0.0,0.0,0.0,0.0,0.0,0.0,0.0,0.0,0.0,0.0,0.0,0.0,0.0,0.0,0.0,0.0,0.0,0.0,0.0,0.0,0.0,0.0,0.0,0.0,0.0,0.0,0.0,0.0,0.0,0.0,0.0,0.0,0.0,0.0,0.0,0.0,0.0,0.0,0.0,0.0,0.0,0.0,0.0,0.0,0.0,0.0,0.0,0.0,0.0,0.0,0.0,0.0,0.0,0.0,0.0,0.0,0.0,0.0,0.0,0.0,0.0,0.0,0.0,0.0,0.0,0.0,0.0,0.0,0.0,0.0,0.0,0.0,0.0,0.0,0.0,0.0,0.0,0.0,0.0,0.0,0.0,0.0,0.0,0.0,0.0,0.0,0.0,0.0,0.0,0.0,0.0,0.0,0.0,0.0,0.0,0.0,0.0,0.0,0.0,0.0,0.0,0.0,0.0,0.0,0.0,0.0,0.0,0.0,0.0,0.0,0.0,0.0,0.0,0.0,0.0,0.0,0.0,0.0,0.0,0.0,0.0,0.0,0.0,0.0,0.0,0.0,0.0,0.0,0.0,0.0,0.0,0.0,0.0,0.0,0.0,0.0,0.0,0.0,0.0,0.0,0.0,0.0,0.0,0.0,0.0,0.0,0.0,0.0,0.0,0.0,0.0,0.0,0.0,0.0,0.0,0.0,0.0,0.0,0.0,0.0,0.0,0.0,0.0,0.0,0.0,0.0,0.0,0.0,0.0,0.0,0.0,0.0,0.0,0.0,0.0,0.0,0.0,0.0,0.0,0.0,0.0,0.0,0.0,0.0,0.0,0.0,0.0,0.0,0.0,0.0,0.0,0.0,0.0,0.0,0.0,0.0,0.0,0.0,0.0,0.0,0.0,0.0,0.0,0.0,0.0,0.0,0.0,0.0,0.0,0.0,0.0,0.0,0.0,0.0,0.0,0.0,0.0,0.0,0.0,0.0,0.0,0.0,0.0,0.0,0.0,0.0,0.0,0.0,0.0,0.0,0.0,0.0,0.0,0.0,0.0,0.0,0.0,0.0,0.0,0.0,0.0,-0.9528,0.0,0.0,0.0,0.0,0.0,0.0,0.0,0.0,0.0,0.0,0.0,0.0,0.0,0.0,0.0,0.0,0.0,0.0,0.0,0.0,0.0,0.0,0.0,0.0,0.0,0.0,0.0,0.0,0.0,0.0,0.0,0.0,0.0,0.0,0.0,0.0,0.0,0.0,0.0,0.0,0.0,0.0,0.0,0.0,0.0,0.0,0.0,0.0,0.0,0.0,0.0,0.0,0.0,0.0,0.0,0.0,0.0,0.0,0.0,0.0,0.0,0.0,0.0,0.0,0.0,0.0,0.0,0.0,0.0,0.0,0.0,0.0,0.0,0.0,0.0,0.0,0.0,0.0,0.0,0.0,0.0,0.0,0.0,0.0,0.0,0.0,0.0,0.0,0.0,0.0,0.0,0.0,0.0,0.0,0.0,0.0,0.0,0.0,0.0,0.0,0.0,0.0,0.0,0.0,0.0,0.0,0.0,0.0,0.0,0.0,-0.8997,-0.9102,-0.9124,-0.9181,-0.9293,0.0,0.0,0.0,0.0,0.0,0.0,0.0,0.0,0.0,0.0,0.0,0.0,0.0,0.0,0.0,0.0,0.0,0.0,0.0,0.0,0.0,0.0,0.0,0.0,0.0,0.0,0.0,0.0,0.0,0.0,0.0,0.0,0.0,0.0,0.0,0.0,0.0,0.0,0.0,0.0,0.0,0.0,0.0,0.0,0.0,0.0,0.0,0.0,0.0,0.0,0.0,0.0,0.0,0.0,0.0,0.0,0.0,0.0,0.0,0.0,0.0,0.0,0.0,0.0,0.0,0.0,0.0,0.0,0.0,0.0,0.0,0.0,0.0,0.0,0.0,0.0,0.0,0.0,0.0,0.0,0.0,0.0,0.0,0.0,0.0,0.0,0.0,0.0,0.0,0.0,0.0,0.0,0.0,0.0,0.0,0.0,0.0,0.0,0.0,0.0,0.0,0.0,0.0,0.0,0.0,0.0,0.0,0.0,0.0,0.0,0.0,0.0,-0.9043,-0.9157,-0.9338,0.0,0.0,0.0,0.0,0.0,0.0,0.0,0.0,0.0,0.0,0.0,0.0,0.0,0.0,0.0,0.0,0.0,0.0,0.0,0.0,0.0,0.0,0.0,0.0,0.0,0.0,0.0,0.0,0.0,0.0,0.0,0.0,0.0,0.0,0.0,0.0,0.0,0.0,0.0,0.0,0.0,0.0,0.0,0.0,0.0,0.0,0.0,0.0,0.0,0.0,0.0,0.0,0.0,0.0,0.0,0.0,0.0,0.0,0.0,0.0,0.0,0.0,0.0,0.0,0.0,0.0,0.0,0.0,0.0,0.0,0.0,0.0,0.0,0.0,0.0,0.0,0.0,0.0,0.0,0.0,0.0,0.0,0.0,0.0,0.0,0.0,0.0,0.0,0.0,0.0,0.0,0.0,0.0,0.0,0.0,0.0,0.0,0.0,0.0,0.0,0.0,0.0,0.0,0.0,0.0,0.0,0.0,0.0,0.0,0.0,-0.8967,-0.9524,-0.9756,0.0,-1.0088,0.0,0.0,0.0,0.0,0.0,0.0,0.0,0.0,0.0,0.0,0.0,0.0,0.0,0.0,0.0,0.0,0.0,0.0,0.0,0.0,0.0,0.0,0.0,0.0,0.0,0.0,0.0,0.0,0.0,0.0,0.0,0.0,0.0,0.0,0.0,0.0,0.0,0.0,0.0,0.0,0.0,0.0,0.0,0.0,0.0,0.0,0.0,0.0,0.0,0.0,0.0,0.0,0.0,0.0,0.0,0.0,0.0,0.0,0.0,0.0,0.0,0.0,0.0,0.0,0.0,0.0,0.0,0.0,0.0,0.0,0.0,0.0,0.0,0.0,0.0,0.0,0.0,0.0,0.0,0.0,0.0,0.0,0.0,0.0,0.0,0.0,0.0,0.0,0.0,0.0,0.0,0.0,0.0,0.0,0.0,0.0,0.0,0.0,0.0,0.0,0.0,0.0,0.0,0.0,0.0,0.0,0.0,0.0,0.0,0.0,0.0,-0.9299,-0.9597,-0.9649,0.0,0.0,0.0,0.0,0.0,0.0,0.0,0.0,0.0,0.0,0.0,0.0,0.0,0.0,0.0,0.0,0.0,0.0,0.0,0.0,0.0,0.0,0.0,0.0,0.0,0.0,0.0,0.0,0.0,0.0,0.0,0.0,0.0,0.0,0.0,0.0,0.0,0.0,0.0,0.0,0.0,0.0,0.0,0.0,0.0,0.0,0.0,0.0,0.0,0.0,0.0,0.0,0.0,0.0,0.0,0.0,0.0,0.0,0.0,0.0,0.0,0.0,0.0,0.0,0.0,0.0,0.0,0.0,0.0,0.0,0.0,0.0,0.0,0.0,0.0,0.0,0.0,0.0,0.0,0.0,0.0,0.0,0.0,0.0,0.0,0.0,0.0,0.0,0.0,0.0,0.0,0.0,0.0,0.0,0.0,0.0,0.0,0.0,0.0,0.0,0.0,0.0,0.0,0.0,0.0,0.0,0.0,0.0,0.0,0.0,-0.9019,0.0,-0.9302,-0.9598,-0.9483,-0.8863,0.0,0.0,0.0,0.0,0.0,0.0,0.0,0.0,0.0,0.0,0.0,0.0,0.0,0.0,0.0,0.0,0.0,0.0,0.0,0.0,0.0,0.0,0.0,0.0,0.0,0.0,0.0,0.0,0.0,0.0,0.0,0.0,0.0,0.0,0.0,0.0,0.0,0.0,0.0,0.0,0.0,0.0,0.0,0.0,0.0,0.0,0.0,0.0,0.0,0.0,0.0,0.0,0.0,0.0,0.0,0.0,0.0,0.0,0.0,0.0,0.0,0.0,0.0,0.0,0.0,0.0,0.0,0.0,0.0,0.0,0.0,0.0,0.0,0.0,0.0,0.0,0.0,0.0,0.0,0.0,0.0,0.0,0.0,0.0,0.0,0.0,0.0,0.0,0.0,0.0,0.0,0.0,0.0,0.0,0.0,0.0,0.0,0.0,0.0,0.0,0.0,0.0,0.0,0.0,0.0,0.0,0.0,0.0,0.0,-0.924,-0.9,-0.9761,-1.0028,-0.97,0.0,0.0,0.0,0.0,0.0,0.0,0.0,0.0,0.0,0.0,0.0,0.0,0.0,0.0,0.0,0.0,0.0,0.0,0.0,0.0,0.0,0.0,0.0,0.0,0.0,0.0,0.0,0.0,0.0,0.0,0.0,0.0,0.0,0.0,0.0,0.0,0.0,0.0,0.0,0.0,0.0,0.0,0.0,0.0,0.0,0.0,0.0,0.0,0.0,0.0,0.0,0.0,0.0,0.0,0.0,0.0,0.0,0.0,0.0,0.0,0.0,0.0,0.0,0.0,0.0,0.0,0.0,0.0,0.0,0.0,0.0,0.0,0.0,0.0,0.0,0.0,0.0,0.0,0.0,0.0,0.0,0.0,0.0,0.0,0.0,0.0,0.0,0.0,0.0,0.0,0.0,0.0,0.0,0.0,0.0,0.0,0.0,0.0,0.0,0.0,0.0,0.0,0.0,0.0,0.0,0.0,0.0,0.0,0.0,-0.8803,-0.8644,-0.9235,-1.0592,-0.9473,-0.8715,0.0,0.0,0.0,0.0,0.0,0.0,0.0,0.0,0.0,0.0,0.0,0.0,0.0,0.0,0.0,0.0,0.0,0.0,0.0,0.0,0.0,0.0,0.0,0.0,0.0,0.0,0.0,0.0,0.0,0.0,0.0,0.0,0.0,0.0,0.0,0.0,0.0,0.0,0.0,0.0,0.0,0.0,0.0,0.0,0.0,0.0,0.0,0.0,0.0,0.0,0.0,0.0,0.0,0.0,0.0,0.0,0.0,0.0,0.0,0.0,0.0,0.0,0.0,0.0,0.0,0.0,0.0,0.0,0.0,0.0,0.0,0.0,0.0,0.0,0.0,0.0,0.0,0.0,0.0,0.0,0.0,0.0,0.0,0.0,0.0,0.0,0.0,0.0,0.0,0.0,0.0,0.0,0.0,0.0,0.0,0.0,0.0,0.0,0.0,0.0,0.0,0.0,0.0,0.0,0.0,0.0,0.0,0.0,0.0,-0.8394,0.0,-0.96,0.0,-0.9213,-0.8247,0.0,0.0,0.0,0.0,0.0,0.0,0.0,0.0,0.0,0.0,0.0,0.0,0.0,0.0,0.0,0.0,0.0,0.0,0.0,0.0,0.0,0.0,0.0,0.0,0.0,0.0,0.0,0.0,0.0,0.0,0.0,0.0,0.0,0.0,0.0,0.0,0.0,0.0,0.0,0.0,0.0,0.0,0.0,0.0,0.0,0.0,0.0,0.0,0.0,0.0,0.0,0.0,0.0,0.0,0.0,0.0,0.0,0.0,0.0,0.0,0.0,0.0,0.0,0.0,0.0,0.0,0.0,0.0,0.0,0.0,0.0,0.0,0.0,0.0,0.0,0.0,0.0,0.0,0.0,0.0,0.0,0.0,0.0,0.0,0.0,0.0,0.0,0.0,0.0,0.0,0.0,0.0,0.0,0.0,0.0,0.0,0.0,0.0,0.0,0.0,0.0,0.0,0.0,0.0,0.0,0.0,0.0,0.0,-0.8395,-0.9356,-0.9962,-1.0005,-0.9466,-0.9342,-0.8361,0.0,0.0,0.0,0.0,0.0,0.0,0.0,0.0,0.0,0.0,0.0,0.0,0.0,0.0,0.0,0.0,0.0,0.0,0.0,0.0,0.0,0.0,0.0,0.0,0.0,0.0,0.0,0.0,0.0,0.0,0.0,0.0,0.0,0.0,0.0,0.0,0.0,0.0,0.0,0.0,0.0,0.0,0.0,0.0,0.0,0.0,0.0,0.0,0.0,0.0,0.0,0.0,0.0,0.0,0.0,0.0,0.0,0.0,0.0,0.0,0.0,0.0,0.0,0.0,0.0,0.0,0.0,0.0,0.0,0.0,0.0,0.0,0.0,0.0,0.0,0.0,0.0,0.0,0.0,0.0,0.0,0.0,0.0,0.0,0.0,0.0,0.0,0.0,0.0,0.0,0.0,0.0,0.0,0.0,0.0,0.0,0.0,0.0,0.0,0.0,0.0,0.0,0.0,0.0,0.0,0.0,0.0,0.0,0.0,-0.8719,-0.9003,-0.9537,-1.0206,-0.8593,-0.7893,0.0,0.0,0.0,0.0,0.0,0.0,0.0,0.0,0.0,0.0,0.0,0.0,0.0,0.0,0.0,0.0,0.0,0.0,0.0,0.0,0.0,0.0,0.0,0.0,0.0,0.0,0.0,0.0,0.0,0.0,0.0,0.0,0.0,0.0,0.0,0.0,0.0,0.0,0.0,0.0,0.0,0.0,0.0,0.0,0.0,0.0,0.0,0.0,0.0,0.0,0.0,0.0,0.0,0.0,0.0,0.0,0.0,0.0,0.0,0.0,0.0,0.0,0.0,0.0,0.0,0.0,0.0,0.0,0.0,0.0,0.0,0.0,0.0,0.0,0.0,0.0,0.0,0.0,0.0,0.0,0.0,0.0,0.0,0.0,0.0,0.0,0.0,0.0,0.0,0.0,0.0,0.0,0.0,0.0,0.0,0.0,0.0,0.0,0.0,0.0,0.0,0.0,0.0,0.0,0.0,0.0,0.0,0.0,0.0,-0.9564,-0.9679,-1.0056,-1.0699,-0.8842,-0.804,-0.8456,0.0,0.0,0.0,0.0,0.0,0.0,0.0,0.0,0.0,0.0,0.0,0.0,0.0,0.0,0.0,0.0,0.0,0.0,0.0,0.0,0.0,0.0,0.0,0.0,0.0,0.0,0.0,0.0,0.0,0.0,0.0,0.0,0.0,0.0,0.0,0.0,0.0,0.0,0.0,0.0,0.0,0.0,0.0,0.0,0.0,0.0,0.0,0.0,0.0,0.0,0.0,0.0,0.0,0.0,0.0,0.0,0.0,0.0,0.0,0.0,0.0,0.0,0.0,0.0,0.0,0.0,0.0,0.0,0.0,0.0,0.0,0.0,0.0,0.0,0.0,0.0,0.0,0.0,0.0,0.0,0.0,0.0,0.0,0.0,0.0,0.0,0.0,0.0,0.0,0.0,0.0,0.0,0.0,0.0,0.0,0.0,0.0,0.0,0.0,0.0,0.0,0.0,0.0,0.0,0.0,0.0,0.0,0.0,-1.1454,-1.1681,-1.149,-1.0871,-0.991,-0.8798,0.0,0.0,0.0,0.0,0.0,0.0,0.0,0.0,0.0,0.0,0.0,0.0,0.0,0.0,0.0,0.0,0.0,0.0,0.0,0.0,0.0,0.0,0.0,0.0,0.0,0.0,0.0,0.0,0.0,0.0,0.0,0.0,0.0,0.0,0.0,0.0,0.0,0.0,0.0,0.0,0.0,0.0,0.0,0.0,0.0,0.0,0.0,0.0,0.0,0.0,0.0,0.0,0.0,0.0,0.0,0.0,0.0,0.0,0.0,0.0,0.0,0.0,0.0,0.0,0.0,0.0,0.0,0.0,0.0,0.0,0.0,0.0,0.0,0.0,0.0,0.0,0.0,0.0,0.0,0.0,0.0,0.0,0.0,0.0,0.0,0.0,0.0,0.0,0.0,0.0,0.0,0.0,0.0,0.0,0.0,0.0,0.0,0.0,0.0,0.0,0.0,0.0,0.0,0.0,0.0,0.0,0.0,0.0,0.0,-1.1201,-1.2492,-1.2988,-1.2523,-1.0758,-0.9661,0.0,0.0,0.0,0.0,0.0,0.0,0.0,0.0,0.0,0.0,0.0,0.0,0.0,0.0,0.0,0.0,0.0,0.0,0.0,0.0,0.0,0.0,0.0,0.0,0.0,0.0,0.0,0.0,0.0,0.0,0.0,0.0,0.0,0.0,0.0,0.0,0.0,0.0,0.0,0.0,0.0,0.0,0.0,0.0,0.0,0.0,0.0,0.0,0.0,0.0,0.0,0.0,0.0,0.0,0.0,0.0,0.0,0.0,0.0,0.0,0.0,0.0,0.0,0.0,0.0,0.0,0.0,0.0,0.0,0.0,0.0,0.0,0.0,0.0,0.0,0.0,0.0,0.0,0.0,0.0,0.0,0.0,0.0,0.0,0.0,0.0,0.0,0.0,0.0,0.0,0.0,0.0,0.0,0.0,0.0,0.0,0.0,0.0,0.0,0.0,0.0,0.0,0.0,0.0,0.0,0.0,0.0,0.0,-1.1267,-1.3111,-1.4062,-1.4459,-1.4269,-1.2114,-1.0564,0.0,0.0,0.0,0.0,0.0,0.0,0.0,0.0,0.0,0.0,0.0,0.0,0.0,0.0,0.0,0.0,0.0,0.0,0.0,0.0,0.0,0.0,0.0,0.0,0.0,0.0,0.0,0.0,0.0,0.0,0.0,0.0,0.0,0.0,0.0,0.0,0.0,0.0,0.0,0.0,0.0,0.0,0.0,0.0,0.0,0.0,0.0,0.0,0.0,0.0,0.0,0.0,0.0,0.0,0.0,0.0,0.0,0.0,0.0,0.0,0.0,0.0,0.0,0.0,0.0,0.0,0.0,0.0,0.0,0.0,0.0,0.0,0.0,0.0,0.0,0.0,0.0,0.0,0.0,0.0,0.0,0.0,0.0,0.0,0.0,0.0,0.0,0.0,0.0,0.0,0.0,0.0,0.0,0.0,0.0,0.0,0.0,0.0,0.0,0.0,0.0,0.0,0.0,0.0,0.0,0.0,0.0,0.0,-1.2925,-1.572,-1.5783,-1.5722,-1.5538,-1.3565,-1.145,0.0,0.0,0.0,0.0,0.0,0.0,0.0,0.0,0.0,0.0,0.0,0.0,0.0,0.0,0.0,0.0,0.0,0.0,0.0,0.0,0.0,0.0,0.0,0.0,0.0,0.0,0.0,0.0,0.0,0.0,0.0,0.0,0.0,0.0,0.0,0.0,0.0,0.0,0.0,0.0,0.0,0.0,0.0,0.0,0.0,0.0,0.0,0.0,0.0,0.0,0.0,0.0,0.0,0.0,0.0,0.0,0.0,0.0,0.0,0.0,0.0,0.0,0.0,0.0,0.0,0.0,0.0,0.0,0.0,0.0,0.0,0.0,0.0,0.0,0.0,0.0,0.0,0.0,0.0,0.0,0.0,0.0,0.0,0.0,0.0,0.0,0.0,0.0,0.0,0.0,0.0,0.0,0.0,0.0,0.0,0.0,0.0,0.0,0.0,0.0,0.0,0.0,0.0,0.0,0.0,0.0,0.0,0.0,-1.3175,-1.4554,-1.5721,-1.5938,-1.5108,-1.3738,-1.1983,0.0,0.0,0.0,0.0,0.0,0.0,0.0,0.0,0.0,0.0,0.0,0.0,0.0,0.0,0.0,0.0,0.0,0.0,0.0,0.0,0.0,0.0,0.0,0.0,0.0,0.0,0.0,0.0,0.0,0.0,0.0,0.0,0.0,0.0,0.0,0.0,0.0,0.0,0.0,0.0,0.0,0.0,0.0,0.0,0.0,0.0,0.0,0.0,-0.8227,0.0,0.0,0.0,0.0,0.0,0.0,0.0,0.0,0.0,0.0,0.0,0.0,0.0,0.0,0.0,0.0,0.0,0.0,0.0,0.0,0.0,0.0,0.0,0.0,0.0,0.0,0.0,0.0,0.0,0.0,0.0,0.0,0.0,0.0,0.0,0.0,0.0,0.0,0.0,0.0,0.0,0.0,0.0,0.0,0.0,0.0,0.0,0.0,0.0,0.0,0.0,0.0,0.0,0.0,0.0,0.0,0.0,0.0,0.0,-1.4181,-1.5791,-1.652,-1.6493,-1.5647,-1.4582,-1.2705,0.0,0.0,0.0,0.0,0.0,0.0,0.0,0.0,0.0,0.0,0.0,0.0,0.0,0.0,0.0,0.0,0.0,0.0,0.0,0.0,0.0,0.0,0.0,0.0,0.0,0.0,0.0,0.0,0.0,0.0,0.0,0.0,0.0,0.0,0.0,0.0,0.0,0.0,0.0,0.0,0.0,0.0,0.0,0.0,0.0,0.0,0.0,0.0,0.0,0.0,0.0,0.0,0.0,0.0,0.0,0.0,0.0,0.0,0.0,0.0,0.0,0.0,0.0,0.0,0.0,0.0,0.0,0.0,0.0,0.0,0.0,0.0,0.0,0.0,0.0,0.0,0.0,0.0,0.0,0.0,0.0,0.0,0.0,0.0,0.0,0.0,0.0,0.0,0.0,0.0,0.0,0.0,0.0,0.0,0.0,0.0,0.0,0.0,0.0,0.0,0.0,0.0,0.0,0.0,0.0,0.0,0.0,-1.3399,-1.5139,-1.7445,-1.7369,-1.6986,-1.6405,-1.5485,-1.3394,-1.0069,0.0,0.0,0.0,0.0,0.0,0.0,0.0,0.0,0.0,0.0,0.0,0.0,0.0,0.0,0.0,0.0,0.0,0.0,0.0,0.0,0.0,0.0,0.0,0.0,0.0,0.0,0.0,0.0,0.0,0.0,0.0,0.0,0.0,0.0,0.0,0.0,0.0,0.0,-0.6263,-0.6695,0.0,0.0,0.0,0.0,0.0,0.0,0.0,0.0,-0.7827,0.0,0.0,0.0,0.0,0.0,0.0,0.0,0.0,0.0,0.0,0.0,0.0,0.0,0.0,0.0,0.0,0.0,0.0,0.0,0.0,0.0,0.0,0.0,0.0,0.0,0.0,0.0,0.0,0.0,0.0,0.0,0.0,0.0,0.0,0.0,0.0,0.0,0.0,0.0,0.0,0.0,0.0,0.0,0.0,0.0,0.0,0.0,0.0,0.0,0.0,0.0,0.0,0.0,0.0,0.0,0.0,-1.2881,-1.3538,-1.4875,-1.6966,-1.7098,-1.6715,-1.5882,-1.5559,-1.3688,-1.0184,0.0,0.0,0.0,0.0,0.0,0.0,0.0,0.0,0.0,0.0,0.0,0.0,0.0,0.0,0.0,0.0,0.0,0.0,0.0,0.0,0.0,0.0,0.0,0.0,0.0,0.0,0.0,0.0,0.0,0.0,0.0,0.0,0.0,0.0,0.0,0.0,0.0,0.0,0.0,-0.6714,-0.7063,0.0,0.0,0.0,0.0,0.0,0.0,0.0,0.0,-0.8033,0.0,0.0,0.0,0.0,0.0,0.0,0.0,0.0,0.0,0.0,0.0,0.0,0.0,0.0,0.0,0.0,0.0,0.0,0.0,0.0,0.0,0.0,0.0,0.0,0.0,0.0,0.0,0.0,0.0,0.0,0.0,0.0,0.0,0.0,0.0,0.0,0.0,0.0,0.0,0.0,0.0,0.0,0.0,0.0,0.0,0.0,0.0,0.0,0.0,0.0,0.0,0.0,0.0,0.0,0.0,-1.2514,-1.3485,-1.4921,-1.6818,-1.655,-1.616,-1.5681,-1.4527,-1.2654,0.0,0.0,0.0,0.0,0.0,0.0,0.0,0.0,0.0,0.0,0.0,0.0,0.0,0.0,0.0,0.0,0.0,0.0,0.0,0.0,0.0,0.0,0.0,0.0,0.0,0.0,0.0,0.0,0.0,0.0,0.0,0.0,0.0,0.0,0.0,0.0,0.0,0.0,0.0,0.0,-0.7069,-0.7377,-0.7291,0.0,0.0,0.0,0.0,0.0,0.0,-0.7813,-0.7935,0.0,0.0,0.0,0.0,0.0,0.0,0.0,0.0,0.0,0.0,0.0,0.0,0.0,0.0,0.0,0.0,0.0,0.0,0.0,0.0,0.0,0.0,0.0,0.0,0.0,0.0,0.0,0.0,0.0,0.0,0.0,0.0,0.0,0.0,0.0,0.0,0.0,0.0,0.0,0.0,0.0,0.0,0.0,0.0,0.0,0.0,0.0,0.0,0.0,0.0,0.0,0.0,0.0,0.0,0.0,-1.2075,-1.3163,-1.4701,-1.6587,-1.5936,-1.5503,-1.5477,-1.3688,-1.1832,0.0,0.0,0.0,0.0,0.0,0.0,0.0,0.0,0.0,0.0,0.0,0.0,0.0,0.0,0.0,0.0,0.0,0.0,0.0,0.0,0.0,0.0,0.0,0.0,0.0,0.0,0.0,0.0,0.0,0.0,0.0,0.0,0.0,0.0,0.0,0.0,0.0,0.0,0.0,0.0,0.0,-0.7626,-0.7745,-0.7357,0.0,0.0,0.0,0.0,-0.7978,-0.8185,0.0,0.0,0.0,0.0,0.0,0.0,0.0,0.0,0.0,0.0,0.0,0.0,0.0,0.0,0.0,0.0,0.0,0.0,0.0,0.0,0.0,0.0,0.0,0.0,0.0,0.0,0.0,0.0,0.0,0.0,0.0,0.0,0.0,0.0,0.0,0.0,0.0,0.0,0.0,0.0,0.0,0.0,0.0,0.0,0.0,0.0,0.0,0.0,0.0,0.0,0.0,0.0,0.0,0.0,0.0,0.0,-1.203,-1.2305,-1.3654,-1.5995,-1.5288,-1.4818,-1.4889,-1.4145,-1.2601,0.0,0.0,0.0,0.0,0.0,0.0,0.0,0.0,0.0,0.0,0.0,0.0,0.0,0.0,0.0,0.0,0.0,0.0,0.0,0.0,0.0,0.0,0.0,0.0,0.0,0.0,0.0,0.0,0.0,0.0,0.0,0.0,0.0,0.0,0.0,0.0,0.0,0.0,0.0,0.0,0.0,-0.763,-0.6124,-0.7279,-0.7923,0.0,0.0,-0.8442,-0.8876,-0.9506,0.0,0.0,0.0,0.0,0.0,0.0,0.0,0.0,0.0,0.0,0.0,0.0,0.0,0.0,0.0,0.0,0.0,0.0,0.0,0.0,0.0,0.0,0.0,0.0,0.0,0.0,0.0,0.0,0.0,0.0,0.0,0.0,0.0,0.0,0.0,0.0,0.0,0.0,0.0,0.0,0.0,0.0,0.0,0.0,0.0,0.0,0.0,0.0,0.0,0.0,0.0,0.0,0.0,0.0,0.0,-1.0197,-1.1867,-1.2211,-1.343,-1.5504,-1.4464,-1.4028,-1.439,-1.2904,-1.1444,0.0,0.0,0.0,0.0,0.0,0.0,0.0,0.0,0.0,0.0,0.0,0.0,0.0,0.0,0.0,0.0,0.0,0.0,0.0,0.0,0.0,0.0,0.0,0.0,0.0,0.0,0.0,0.0,0.0,0.0,0.0,0.0,0.0,0.0,0.0,0.0,0.0,0.0,0.0,0.0,0.0,0.0,-0.7667,-0.8224,0.0,0.0,0.0,-0.9344,-0.9915,0.0,0.0,0.0,0.0,0.0,0.0,0.0,0.0,0.0,0.0,0.0,0.0,0.0,0.0,0.0,0.0,0.0,0.0,0.0,0.0,0.0,0.0,0.0,0.0,0.0,0.0,0.0,0.0,0.0,0.0,0.0,0.0,0.0,0.0,0.0,0.0,0.0,0.0,0.0,0.0,0.0,0.0,0.0,0.0,0.0,0.0,0.0,0.0,0.0,0.0,0.0,0.0,0.0,0.0,0.0,0.0,0.0,-1.1775,-1.2277,-1.3347,-1.4982,-1.3852,-1.3403,-1.3803,-1.1952,0.0,0.0,0.0,0.0,0.0,0.0,0.0,0.0,0.0,0.0,0.0,0.0,0.0,0.0,0.0,0.0,0.0,0.0,0.0,0.0,0.0,0.0,0.0,0.0,0.0,0.0,0.0,-0.3862,0.0,0.0,0.0,0.0,0.0,0.0,0.0,0.0,0.0,0.0,0.0,0.0,0.0,0.0,-0.8205,-0.8749,-0.9012,-0.9531,0.0,0.0,-1.0329,-1.0849,-1.0834,-1.0264,0.0,0.0,0.0,0.0,0.0,0.0,0.0,0.0,0.0,0.0,0.0,0.0,0.0,0.0,0.0,0.0,0.0,0.0,0.0,0.0,0.0,0.0,0.0,0.0,0.0,0.0,0.0,0.0,0.0,0.0,0.0,0.0,0.0,0.0,0.0,0.0,0.0,0.0,0.0,0.0,0.0,0.0,0.0,0.0,0.0,0.0,0.0,0.0,0.0,0.0,0.0,0.0,0.0,0.0,0.0,-1.1749,-1.2264,-1.3156,-1.4454,-1.3691,-1.321,-1.3253,-1.214,-1.111,0.0,0.0,0.0,0.0,0.0,0.0,0.0,0.0,0.0,0.0,0.0,0.0,0.0,0.0,0.0,0.0,0.0,0.0,0.0,0.0,0.0,0.0,0.0,0.0,0.0,0.0,0.0,0.0,0.0,0.0,0.0,0.0,0.0,0.0,0.0,0.0,0.0,0.0,0.0,0.0,0.0,-0.7956,-0.7815,-0.9177,-1.051,0.0,0.0,-1.162,-1.1555,-1.2337,-1.2112,-0.9504,0.0,0.0,0.0,0.0,0.0,0.0,0.0,0.0,0.0,0.0,0.0,0.0,0.0,0.0,0.0,0.0,0.0,0.0,0.0,0.0,0.0,0.0,0.0,0.0,0.0,0.0,0.0,0.0,0.0,0.0,0.0,0.0,0.0,0.0,0.0,0.0,0.0,0.0,0.0,0.0,0.0,0.0,0.0,0.0,0.0,0.0,0.0,0.0,0.0,0.0,0.0,0.0,0.0,-0.983,-1.1386,-1.2121,-1.3026,-1.4063,-1.3527,-1.321,-1.3198,-1.2165,-1.1118,0.0,0.0,0.0,0.0,0.0,0.0,0.0,0.0,0.0,0.0,0.0,0.0,0.0,0.0,0.0,0.0,0.0,0.0,0.0,0.0,0.0,0.0,0.0,0.0,0.0,0.0,0.0,0.0,-0.3971,-0.4118,-0.3755,0.0,0.0,0.0,0.0,0.0,0.0,0.0,0.0,0.0,0.0,-0.8304,-0.8463,-0.9737,0.0,0.0,-1.2361,-1.2279,-1.2547,-1.2375,-1.1588,-0.9817,-0.927,0.0,0.0,0.0,0.0,0.0,0.0,0.0,0.0,0.0,0.0,0.0,0.0,0.0,0.0,0.0,0.0,0.0,0.0,0.0,0.0,0.0,0.0,0.0,0.0,0.0,0.0,0.0,0.0,0.0,0.0,0.0,0.0,0.0,0.0,0.0,0.0,0.0,0.0,0.0,0.0,0.0,0.0,0.0,0.0,0.0,0.0,0.0,0.0,0.0,0.0,0.0,0.0,-0.99,-1.1201,-1.225,-1.3156,-1.3875,-1.3429,-1.321,-1.3185,-1.2312,-1.1299,0.0,0.0,0.0,0.0,0.0,0.0,0.0,0.0,0.0,0.0,0.0,0.0,0.0,0.0,0.0,0.0,0.0,0.0,0.0,0.0,0.0,0.0,0.0,0.0,0.0,0.0,0.0,0.0,-0.4343,-0.445,-0.3948,0.0,0.0,0.0,0.0,0.0,0.0,0.0,0.0,0.0,0.0,-0.8701,-0.9099,-1.0298,-1.1588,-1.2747,-1.2759,-1.2776,-1.3135,-1.2448,-1.146,-1.0289,0.0,0.0,0.0,0.0,0.0,0.0,0.0,0.0,0.0,0.0,0.0,0.0,0.0,0.0,0.0,0.0,0.0,0.0,0.0,0.0,0.0,0.0,0.0,0.0,0.0,0.0,0.0,-0.7634,0.0,0.0,-0.7899,0.0,0.0,0.0,0.0,0.0,0.0,0.0,0.0,0.0,0.0,0.0,0.0,0.0,0.0,0.0,0.0,0.0,0.0,0.0,0.0,0.0,0.0,-1.0313,-1.1215,-1.2678,-1.3591,-1.3858,-1.3442,-1.321,-1.3198,-1.2663,-1.1836,-1.0681,0.0,0.0,0.0,0.0,0.0,0.0,0.0,0.0,0.0,0.0,0.0,0.0,0.0,0.0,0.0,0.0,0.0,0.0,0.0,0.0,0.0,0.0,0.0,0.0,0.0,0.0,-0.4342,-0.445,-0.4354,0.0,0.0,0.0,0.0,0.0,0.0,0.0,0.0,0.0,0.0,-0.8431,-0.9092,-0.9385,-1.0765,-1.1891,-1.2234,-1.2779,-1.3198,-1.3206,-1.2796,-1.2087,0.0,0.0,0.0,0.0,0.0,0.0,0.0,0.0,0.0,0.0,0.0,0.0,0.0,0.0,0.0,0.0,0.0,0.0,0.0,0.0,0.0,0.0,0.0,0.0,0.0,0.0,0.0,-1.0086,-0.9751,0.0,0.0,0.0,0.0,0.0,0.0,0.0,0.0,0.0,0.0,0.0,-1.3916,-1.4924,0.0,0.0,0.0,0.0,0.0,0.0,0.0,0.0,0.0,0.0,0.0,0.0,-1.0428,-1.116,-1.2441,-1.3208,-1.3416,-1.3271,-1.321,-1.3185,-1.2689,-1.1685,-1.0219,0.0,0.0,0.0,0.0,0.0,0.0,0.0,0.0,0.0,0.0,0.0,0.0,0.0,0.0,0.0,0.0,0.0,0.0,0.0,0.0,0.0,0.0,0.0,0.0,0.0,-0.4129,0.0,0.0,0.0,0.0,0.0,0.0,0.0,0.0,0.0,0.0,0.0,-0.7483,-0.8425,-0.9028,-0.9661,-1.042,-1.1221,-1.2143,0.0,0.0,0.0,0.0,0.0,0.0,0.0,0.0,0.0,0.0,0.0,0.0,0.0,0.0,-1.0559,-0.9122,-0.8082,-0.7548,-0.792,0.0,0.0,0.0,0.0,0.0,0.0,0.0,0.0,0.0,0.0,0.0,0.0,0.0,0.0,-1.1669,0.0,-1.1492,0.0,0.0,0.0,0.0,0.0,0.0,0.0,0.0,-1.5485,-1.6293,-1.592,-1.6918,-1.6795,0.0,-1.601,-1.4377,0.0,0.0,0.0,0.0,0.0,0.0,0.0,0.0,-1.1088,-1.1278,-1.2919,-1.3608,-1.3226,-1.3401,-1.3416,-1.3185,-1.2689,-1.1698,-1.0232,-0.9034,-0.8259,0.0,0.0,0.0,0.0,0.0,0.0,0.0,0.0,0.0,0.0,0.0,0.0,0.0,0.0,0.0,0.0,0.0,0.0,0.0,0.0,0.0,0.0,0.0,-0.4616,0.0,0.0,0.0,0.0,0.0,0.0,0.0,0.0,0.0,-0.7014,-0.7586,-0.8387,-0.9515,-1.001,-1.0547,-1.1191,0.0,0.0,0.0,0.0,0.0,0.0,0.0,-1.2945,-1.2646,-1.1716,-1.0959,-1.0842,-1.1311,-1.1621,-1.1395,0.0,0.0,-0.9595,-0.8596,-0.8083,-0.854,-0.8049,-0.7666,-0.8071,-0.8158,-0.8129,0.0,0.0,0.0,0.0,0.0,0.0,0.0,0.0,-1.2175,-1.2296,0.0,-1.2914,0.0,0.0,0.0,0.0,0.0,-1.4539,0.0,0.0,-1.839,-1.9054,-1.8007,-1.8463,-1.8253,-1.7478,-1.8276,-1.7211,-1.4467,-1.3066,0.0,0.0,0.0,0.0,0.0,0.0,-1.2172,-1.1587,-1.4095,-1.4761,-1.3374,-1.3808,-1.3815,-1.321,-1.2676,-1.1874,-1.0808,-1.0193,-0.9428,-0.8399,-0.7404,0.0,0.0,0.0,0.0,0.0,0.0,0.0,0.0,0.0,0.0,0.0,0.0,0.0,0.0,0.0,0.0,0.0,0.0,0.0,0.0,-0.5051,0.0,0.0,0.0,0.0,0.0,0.0,0.0,0.0,0.0,0.0,-0.8676,-0.8588,-0.9083,-1.0699,0.0,0.0,0.0,0.0,-1.2521,-1.3183,-1.3688,-1.4225,-1.4812,-1.4482,-1.411,-1.4082,0.0,0.0,-1.1149,-1.1094,-1.1164,-1.0977,-1.1095,-1.1101,-1.1002,-0.9912,-0.9177,-0.9512,-0.8965,-0.8603,-0.8936,-0.9053,-0.8975,-1.6732,0.0,0.0,0.0,0.0,-1.3816,-1.4603,-1.5788,-1.6151,-1.5986,-1.5385,-1.5218,0.0,0.0,0.0,0.0,0.0,0.0,-1.6278,-1.7206,-1.8418,-1.9036,-1.9197,-1.9337,-1.9281,-1.902,-1.9284,-1.8745,-1.7437,-1.6369,-1.4025,-1.0609,0.0,0.0,0.0,0.0,-1.266,-1.2784,-1.4256,-1.4974,-1.4771,-1.4317,-1.3803,-1.321,-1.2689,-1.2237,-1.1911,-1.0996,-1.0156,-0.9454,-0.8442,0.0,0.0,0.0,0.0,0.0,0.0,0.0,0.0,0.0,0.0,0.0,0.0,0.0,0.0,0.0,0.0,0.0,0.0,0.0,-0.4431,-0.4922,-0.5392,0.0,0.0,0.0,0.0,0.0,0.0,0.0,0.0,0.0,-1.019,-1.0225,-1.0477,0.0,0.0,-1.1702,-1.1992,-1.2145,-1.2709,-1.4072,-1.4417,0.0,-1.5363,-1.5065,-1.4547,-1.4055,-1.3305,-1.2686,-1.2381,-1.2344,-1.2266,-1.1901,-1.1784,-1.1675,-1.1421,-1.0637,-1.0029,-1.0029,-0.9648,-0.9416,-0.9805,-0.9941,-0.9883,-1.9518,-1.7427,-1.6362,-1.6239,-1.6719,-1.6848,-1.7468,-1.8424,-1.8752,-1.8587,-1.8032,-1.7697,-1.6775,-1.5389,-1.4747,0.0,0.0,0.0,-1.7521,-1.8521,-1.8912,-1.9301,-1.9693,-1.9723,-1.9723,-1.9723,-1.9723,-1.9253,-1.8459,-1.789,-1.5837,-1.2424,0.0,0.0,-1.2311,-1.3148,-1.3649,-1.3916,-1.497,-1.5645,-1.5833,-1.4707,-1.3916,-1.3559,-1.3002,-1.2526,-1.2102,-1.1422,-1.0695,-0.9931,-0.9077,-0.8135,0.0,0.0,0.0,0.0,0.0,0.0,0.0,0.0,0.0,0.0,0.0,-0.5729,0.0,0.0,0.0,0.0,-0.4335,-0.4688,-0.5195,-0.5789,0.0,0.0,0.0,0.0,0.0,0.0,0.0,-0.9102,-0.9825,-1.0591,-1.1306,-1.1576,-1.1809,-1.2074,-1.2113,-1.221,-1.2451,0.0,-1.296,-1.4273,-1.4594,-1.5004,-1.5868,-1.5777,-1.5286,-1.4372,-1.3693,-1.3166,-1.2929,-1.2915,-1.2783,-1.2549,-1.2412,-1.2246,-1.1895,-1.1396,-1.0918,-1.0596,-1.0195,-1.0,-1.0234,-1.0322,-1.0322,-2.1757,-2.1143,-2.0606,-2.0264,-2.0108,-2.0151,-2.0159,-2.0173,-2.0202,-2.0223,-2.0217,-2.0075,-1.9281,-1.8097,-1.741,0.0,-1.7951,-1.8597,-1.9151,-1.9708,-1.9723,-1.9723,-1.9723,-1.9723,-1.9723,-1.9723,-1.9723,-1.9169,-1.821,-1.8112,-1.7074,-1.5132,-1.4576,-1.4254,-1.4204,-1.4689,-1.4997,-1.5029,-1.604,-1.6524,-1.6488,-1.4974,-1.4135,-1.4091,-1.3483,-1.2663,-1.1728,-1.1578,-1.1035,-1.0031,-0.9403,-0.8724,-0.7922,0.0,0.0,0.0,0.0,0.0,0.0,0.0,0.0,0.0,0.0,0.0,0.0,0.0,0.0,0.0,-0.5751,0.0,-0.6475,-0.7262,0.0,0.0,0.0,-0.8688,-0.916,-0.9931,-1.041,-1.044,0.0,0.0,-1.2077,-1.2539,-1.2915,-1.2915,-1.2915,-1.2915,-1.2915,-1.2895,-1.32,-1.4003,-1.4445,-1.513,-1.6222,-1.6287,-1.5818,-1.4824,-1.4177,-1.3491,-1.3017,-1.2915,-1.2915,-1.2886,-1.2905,-1.2754,-1.2344,-1.2184,-1.196,-1.1151,-1.0693,-1.041,-1.04,-1.0391,-1.0381,-2.3881,-2.3666,-2.3024,-2.1751,-2.0165,-2.0535,-2.0704,-2.0739,-2.1146,-2.1324,-2.1289,-2.0863,-2.0495,-2.0197,-2.0404,-2.0333,-2.0001,-2.015,-2.0034,-1.9723,-1.9723,-1.9723,-1.9723,-1.9723,-1.9723,-1.9723,-1.9723,-1.9369,-1.8722,-1.8302,-1.7638,-1.6734,-1.6196,-1.5525,-1.4765,-1.5248,-1.5702,-1.6118,-1.6777,-1.6898,-1.6487,-1.5331,-1.4513,-1.4116,-1.3107,-1.2475,-1.2215,-1.136,-1.0795,-1.0519,-0.9604,-0.9189,-0.9341,-0.7611,0.0,0.0,0.0,0.0,0.0,0.0,0.0,0.0,0.0,-0.7551,-0.5894,0.0,-0.6788,0.0,-0.6588,-0.6963,-0.7359,-0.791,0.0,0.0,-0.926,-0.9766,-1.0871,-1.1154,-1.1359,-1.1572,-1.2275,-1.2715,-1.2676,-1.2817,-1.2915,-1.2915,-1.2915,-1.2915,-1.2915,-1.2915,-1.32,-1.3956,-1.4445,-1.513,-1.6185,-1.57,-1.5062,-1.4744,-1.3826,-1.3065,-1.2929,-1.2915,-1.2915,-1.2915,-1.2915,-1.2832,-1.2734,-1.2471,-1.2174,-1.1911,-1.1562,-1.1173,-1.084,-1.0752,-1.0664,-2.5038,-2.4978,-2.4328,-2.3282,-2.209,-2.2096,-2.2085,-2.2127,-2.2429,-2.2532,-2.2512,-2.1966,-2.1527,-2.1283,-2.156,-2.15,-2.1156,-2.1156,-2.0946,-2.0591,-2.0307,-2.0139,-2.0124,-1.9824,-1.9723,-1.9723,-1.9723,-1.9424,-1.8893,-1.8361,-1.7827,-1.7305,-1.6774,-1.6208,-1.5643,-1.5919,-1.6359,-1.6994,-1.7556,-1.7545,-1.6864,-1.5802,-1.4986,-1.4456,-1.3345,-1.2538,-1.2052,-1.1437,-1.0871,-1.0356,-0.9793,-0.9478,-0.9529,-0.8397,-0.7728,0.0,0.0,0.0,0.0,0.0,0.0,0.0,0.0,0.0,0.0,0.0,-0.8316,-0.8082,-0.8444,-0.8972,-0.9606,-1.0002,-1.0419,-1.0841,-1.0805,-1.1053,-1.1787,-1.2054,-1.224,-1.2383,-1.2676,-1.2915,-1.2915,-1.2915,-1.2915,-1.2915,-1.2915,-1.2915,-1.2915,-1.2915,-1.3238,-1.4201,-1.456,-1.5107,-1.6315,-1.5722,-1.5096,-1.5028,-1.4306,-1.3705,-1.3681,-1.3539,-1.3396,-1.331,-1.3079,-1.2915,-1.2895,-1.2729,-1.2529,-1.249,-1.2324,-1.1946,-1.1359,-1.1045,-1.082,-2.5734,-2.5674,-2.4993,-2.4724,-2.4679,-2.4029,-2.3684,-2.3595,-2.3595,-2.3595,-2.3565,-2.3026,-2.2493,-2.1949,-2.1934,-2.1904,-2.1829,-2.1834,-2.1784,-2.1665,-2.1096,-2.0797,-2.0673,-2.0094,-1.9798,-1.9723,-1.9723,-1.9424,-1.8912,-1.8438,-1.7894,-1.7312,-1.69,-1.668,-1.6595,-1.6607,-1.6947,-1.7644,-1.8105,-1.8044,-1.7422,-1.6295,-1.5451,-1.4865,-1.3792,-1.2701,-1.1666,-1.1603,-1.1098,-1.0068,-1.0081,-0.9868,-0.934,-0.9251,-0.875,0.0,-0.7653,0.0,0.0,0.0,0.0,0.0,0.0,0.0,0.0,-0.9745,-1.0032,-1.0243,-1.0824,-1.1499,-1.2217,-1.2531,-1.2701,-1.2701,-1.2585,-1.249,-1.2431,-1.279,-1.2968,-1.2905,-1.2915,-1.2915,-1.2915,-1.2915,-1.2915,-1.2915,-1.2915,-1.2915,-1.2905,-1.2992,-1.3478,-1.4617,-1.4858,-1.5433,-1.6228,-1.5986,-1.5588,-1.5509,-1.4915,-1.4606,-1.4491,-1.4154,-1.3862,-1.3755,-1.3286,-1.2954,-1.3002,-1.2968,-1.2895,-1.2876,-1.2846,-1.2582,-1.1868,-1.1396,-1.1034,-2.6408,-2.6348,-2.5689,-2.542,-2.5337,-2.4694,-2.4081,-2.3595,-2.3595,-2.3595,-2.358,-2.346,-2.3355,-2.3236,-2.3251,-2.2987,-2.2523,-2.2508,-2.2224,-2.1695,-2.1575,-2.1231,-2.0703,-2.0587,-2.0228,-1.9738,-1.9723,-1.9424,-1.8893,-1.8798,-1.8249,-1.7333,-1.7626,-1.7565,-1.7167,0.0,0.0,0.0,-1.7289,-1.7235,-1.7874,-1.6473,-1.5436,-1.4903,-1.3779,0.0,-1.165,-1.1603,-1.1274,-1.062,-1.101,0.0,0.0,0.0,0.0,0.0,0.0,0.0,0.0,0.0,0.0,0.0,-1.0596,-1.0883,-1.1111,-1.15,-1.1709,-1.1722,-1.2945,-1.3616,-1.3194,-1.3551,-1.3803,-1.3793,-1.4049,-1.4037,-1.3583,-1.3561,-1.3443,-1.2978,-1.2915,-1.2905,-1.2929,-1.2915,-1.2905,-1.2905,-1.2915,-1.2915,-1.2929,-1.33,-1.4003,-1.5005,-1.5668,-1.6173,-1.6457,-1.5996,-1.5654,-1.5477,-1.4664,-1.4097,-1.4027,-1.3586,-1.3358,-1.3684,-1.33,-1.3079,-1.3515,-1.3272,-1.2915,-1.2915,-1.2915,-1.2725,-1.2217,-1.2018,-1.1755,-2.7106,0.0,-2.6363,-2.6093,0.0,-2.5367,-2.4911,-2.4537,-2.3879,-2.3595,-2.3595,-2.3595,-2.3595,-2.3595,-2.3595,-2.343,-2.3131,-2.3152,-2.2972,-2.2622,-2.2323,-2.2029,-2.1665,-2.1021,-2.0543,-2.0183,-1.9872,-1.9566,-1.9281,-1.9024,-1.8631,-1.8106,-1.8092,-1.7953,-1.7706,-1.7686,-1.7847,-1.8092,-1.8072,-1.8086,-1.8058,-1.7061,-1.6094,-1.5293,-1.4212,0.0,0.0,0.0,0.0,0.0,0.0,0.0,0.0,0.0,0.0,-1.0721,-1.0484,-1.0459,-1.0709,-1.0734,-1.1086,-1.1899,-1.2994,-1.34,-1.2889,-1.3268,-1.3647,-1.3876,-1.487,-1.5338,-1.4989,-1.4893,-1.4837,-1.486,-1.4756,-1.456,-1.4306,-1.4247,-1.4131,-1.3871,-1.38,-1.3681,-1.3372,-1.3334,-1.3214,-1.2954,-1.2915,-1.3017,-1.331,-1.3589,-1.419,-1.5265,-1.6042,-1.65,-1.6479,-1.6281,-1.603,-1.592,-1.5298,-1.4767,-1.4698,-1.419,-1.3836,-1.3849,-1.3766,-1.3776,-1.3358,-1.3104,-1.2915,-1.2915,-1.2915,-1.2846,-1.2578,-1.2359,-1.2168,-2.7585,-2.7555,-2.7016,-2.6791,-2.6707,-2.6063,-2.5719,-2.5525,0.0,0.0,0.0,-2.3655,-2.3595,-2.3595,-2.3595,-2.3595,-2.3595,-2.3595,-2.3595,-2.3565,-2.3092,-2.2808,-2.2643,-2.156,-2.0946,-2.0673,-2.0139,-1.9809,-1.969,-1.9244,-1.8987,-1.8893,-1.8554,-1.8341,-1.8249,-1.8341,-1.8341,-1.8269,-1.9006,-1.9043,-1.8249,-1.7628,-1.6826,-1.5863,-1.491,-1.4054,-1.3378,-1.3027,-1.2592,-1.208,-1.2131,-1.214,-1.2012,-1.2002,-1.1964,-1.1847,-1.1939,-1.2007,-1.2046,-1.2131,-1.2592,-1.3561,-1.4895,-1.5336,-1.4437,-1.4878,-1.5374,-1.5806,-1.6237,-1.65,-1.6513,-1.6073,-1.5764,-1.5742,-1.532,-1.4994,-1.488,-1.4858,-1.4812,-1.4721,-1.4629,-1.4479,-1.3862,-1.3779,-1.3576,-1.3065,-1.3041,-1.3358,-1.3933,-1.4179,-1.4584,-1.561,-1.6216,-1.6513,-1.65,-1.6479,-1.6513,-1.6436,-1.5952,-1.5588,-1.5387,-1.4858,-1.4283,-1.3873,-1.4283,-1.4154,-1.3334,-1.3104,-1.3017,-1.292,-1.2915,-1.2915,-1.2876,-1.2707,-1.2583,-2.7585,-2.7585,-2.7495,-2.745,-2.7405,-2.6761,-2.6138,-2.5531,-2.4784,-2.447,-2.4425,-2.3864,-2.3595,-2.3595,-2.3595,-2.3595,-2.3595,-2.3595,-2.3595,-2.3595,-2.352,-2.3212,-2.2703,-2.2508,-2.1799,-2.0733,-2.0583,-2.0258,-1.975,-1.9636,-1.935,-1.9006,-1.9295,-1.9225,-1.8874,-1.9244,-1.9244,-1.8803,-1.8477,-1.8477,-1.8765,-1.7812,-1.7016,-1.6409,-1.5791,-1.4997,-1.4022,-1.4318,-1.4311,-1.3783,-1.4186,-1.4172,-1.3615,-1.3582,-1.3345,-1.2885,-1.3279,-1.3639,-1.373,-1.4173,-1.4708,-1.5279,-1.5567,-1.5618,-1.5525,-1.5969,-1.6321,-1.6387,-1.645,-1.6513,-1.65,-1.6402,-1.6349,-1.6371,-1.6293,-1.6064,-1.5555,-1.5477,-1.5298,-1.4858,-1.4709,-1.4491,-1.398,-1.3849,-1.3647,-1.3152,-1.3443,-1.4063,-1.4949,-1.5331,-1.5632,-1.6194,-1.6436,-1.6513,-1.6513,-1.6513,-1.6513,-1.6513,-1.5996,-1.5454,-1.505,-1.4048,-1.3501,-1.3732,-1.4201,-1.426,-1.3718,-1.3661,-1.3396,-1.3017,-1.2915,-1.2915,-1.2915,-1.3148,-1.3235,-2.7585,-2.7585,-2.7585,-2.7585,-2.757,-2.727,-2.6971,-2.6641,-2.5974,-2.5247,-2.459,-2.4261,-2.3932,-2.361,-2.3595,-2.3595,-2.3595,-2.3595,-2.3595,-2.3595,-2.3595,-2.3445,-2.3182,-2.2832,-2.2373,-2.1769,-2.1017,-2.0539,-2.0243,-1.9884,-1.9584,-1.9369,-1.9584,-1.9424,-1.8968,-1.9442,-1.9442,-1.8912,-1.8949,-1.8949,-1.8893,-1.8131,-1.7491,-1.6936,-1.613,-1.5467,-1.4984,-1.4921,-1.4771,-1.4551,-1.5055,-1.5181,-1.4915,-1.5144,-1.507,-1.4512,-1.4716,-1.4768,-1.455,-1.5022,-1.5449,-1.5693,-1.5982,-1.6132,-1.6132,-1.6362,-1.65,-1.6513,-1.6513,-1.6513,-1.6513,-1.6513,-1.6513,-1.6513,-1.6513,-1.638,-1.616,-1.6073,-1.5964,-1.57,-1.5365,-1.496,-1.4376,-1.4283,-1.405,-1.3586,-1.4133,-1.4994,-1.5543,-1.5886,-1.616,-1.6423,-1.6513,-1.6513,-1.6513,-1.6513,-1.6513,-1.6513,-1.5986,-1.5543,-1.5118,-1.399,-1.3334,-1.3637,-1.3813,-1.361,-1.3324,-1.331,-1.3176,-1.3041,-1.2915,-1.2915,-1.2954,-1.3118,-1.2976,-2.7585,-2.7585,-2.7585,-2.7585,-2.7625,-2.776,-2.781,-2.775,-2.7267,-2.6447,-2.5499,-2.4994,-2.449,-2.4029,-2.3848,-2.3788,-2.3752,-2.3659,-2.3595,-2.3595,-2.3595,-2.3595,-2.355,-2.3107,-2.2838,-2.2613,-2.1655,-2.0987,-2.0658,-2.0168,-1.9857,-1.9723,-1.9723,-1.9479,-1.9099,-1.9479,-1.9512,-1.9132,-1.9479,-1.9479,-1.908,-1.8438,-1.7894,-1.7457,-1.6435,-1.5881,-1.5856,-1.5587,-1.5445,-1.5465,-1.596,-1.6233,-1.6208,-1.6468,-1.6381,-1.5905,-1.5833,-1.5658,-1.532,-1.5651,-1.5881,-1.5894,-1.6271,-1.65,-1.6513,-1.6513,-1.6513,-1.6513,-1.6513,-1.6513,-1.6513,-1.6513,-1.6513,-1.6513,-1.6513,-1.65,-1.65,-1.6513,-1.6513,-1.6457,-1.6086,-1.5521,-1.4926,-1.4835,-1.4744,-1.448,-1.5039,-1.5588,-1.582,-1.6238,-1.6479,-1.6513,-1.6513,-1.6513,-1.6513,-1.6513,-1.6513,-1.6479,-1.6139,-1.5808,-1.5454,-1.4445,-1.3695,-1.3862,-1.33,-1.3041,-1.2944,-1.3055,-1.3055,-1.2968,-1.2915,-1.3012,-1.3361,-1.3099,-1.2753,-2.7625,-2.7585,-2.765,-2.7585,-2.771,-2.8189,-2.8431,-2.8415,-2.8338,-2.8263,-2.7799,-2.6158,-2.5336,-2.5166,-2.458,-2.4302,-2.4246,-2.3815,-2.3595,-2.3595,-2.3595,-2.3595,-2.3595,-2.352,-2.3236,-2.2763,-2.2523,-2.1829,-2.0857,-2.0628,-2.0303,-1.9783,-1.9723,-1.9672,-1.9621,-1.9672,-1.9672,-1.9636,-1.9675,-1.969,-1.9566,-1.8631,-1.8066,-1.8027,-1.6983,-1.6425,-1.6451,-1.6855,-1.7059,-1.7133,-1.7544,-1.7798,-1.7657,-1.7311,-1.6821,-1.6304,-1.6256,-1.6261,-1.6338,-1.64,-1.64,-1.6425,-1.645,-1.6513,-1.6513,-1.6513,-1.6513,-1.6513,-1.6513,-1.6513,-1.6513,-1.6513,-1.6513,-1.6513,-1.6513,-1.6513,-1.6513,-1.6513,-1.6513,-1.6513,-1.638,-1.5998,-1.5039,-1.5141,-1.5454,-1.5365,-1.5521,-1.5864,-1.625,-1.6402,-1.6513,-1.6513,-1.6513,-1.6513,-1.6513,-1.6513,-1.6513,-1.65,-1.6457,-1.6194,-1.5798,-1.5832,-1.5732,-1.4084,-1.331,-1.2929,-1.3017,-1.3286,-1.3443,-1.3017,-1.2988,-1.3206,-1.4047,-1.3635,-1.2801,-2.8953,-2.9279,-2.8841,-2.867,-2.8693,-2.8927,-2.9035,-2.9019,-2.9019,-2.9005,-2.8884,-2.8046,-2.7018,-2.5882,-2.4864,-2.4425,-2.4384,-2.3858,-2.3595,-2.3595,-2.3595,-2.3595,-2.3595,-2.3595,-2.3445,-2.3227,-2.2868,-2.2418,-2.1849,-2.1111,-2.0363,-1.9783,-1.9723,-1.9723,-1.9723,-1.9723,-1.9723,-1.9723,-1.9723,-1.9723,-1.9636,-1.8949,-1.8419,-1.8052,-1.736,-1.6972,-1.6993,-1.7188,-1.7442,-1.7767,-1.8302,-1.8536,-1.8481,-1.8592,-1.8259,-1.7439,-1.6764,-1.6439,-1.6509,-1.6513,-1.6513,-1.6513,-1.6513,-1.6513,-1.6513,-1.6513,-1.6513,-1.6513,-1.6513,-1.6513,-1.6513,-1.6513,-1.6513,-1.6513,-1.6513,-1.6513,-1.6513,-1.6513,-1.6513,-1.65,-1.6173,-1.582,-1.5399,-1.5432,-1.5742,-1.6017,-1.6151,-1.625,-1.6479,-1.6513,-1.6513,-1.6513,-1.6513,-1.6513,-1.6513,-1.6513,-1.6513,-1.6513,-1.6513,-1.6337,-1.6259,-1.6293,-1.5976,-1.456,-1.3634,-1.3051,-1.2915,-1.3041,-1.3152,-1.2915,-1.2939,-1.3178,-1.3999,-1.3494,-1.2991,-3.0046,-3.0357,-2.9717,-2.9406,-2.9406,-2.9585,-2.9651,-2.9651,-2.9651,-2.9739,-2.9848,-2.9416,-2.8414,-2.6997,-2.5711,-2.4981,-2.4588,-2.4053,-2.373,-2.3616,-2.3595,-2.3595,-2.3595,-2.3595,-2.3595,-2.352,-2.3167,-2.2868,-2.2568,-2.135,-2.0453,-2.0004,-1.9798,-1.9723,-1.9723,-1.9723,-1.9723,-1.9723,-1.9723,-1.9723,-1.9654,-1.9332,-1.8784,-1.8145,-1.7727,-1.7456,-1.7312,-1.7598,-1.7894,-1.8302,-1.8822,-1.9132,-1.9132,-1.9369,-1.8987,-1.7953,-1.7013,-1.6513,-1.6513,-1.6513,-1.6513,-1.6513,-1.6513,-1.6513,-1.6513,-1.6513,-1.6513,-1.6513,-1.6513,-1.6513,-1.6513,-1.6513,-1.6513,-1.6513,-1.6513,-1.6513,-1.6513,-1.6513,-1.6513,-1.6457,-1.6194,-1.5842,-1.582,-1.572,-1.5798,-1.6337,-1.6479,-1.6513,-1.6513,-1.6513,-1.6513,-1.6513,-1.6513,-1.6513,-1.6513,-1.6513,-1.6513,-1.6513,-1.6513,-1.6513,-1.6513,-1.6513,-1.6272,-1.505,-1.4025,-1.3382,-1.331,-1.3248,-1.3041,-1.2954,-1.2939,-1.311,-1.3762,-1.3272,-1.3339,-3.0477,-3.0427,-2.9717,-2.9473,-2.9451,-3.0038,-3.0272,-3.0267,-3.0251,-3.0559,-3.0834,-2.9792,-2.9104,-2.8743,-2.7488,-2.6284,-2.5188,-2.4599,-2.4063,-2.3616,-2.3595,-2.3595,-2.3595,-2.3595,-2.3595,-2.3595,-2.352,-2.3206,-2.2658,-2.138,-2.0688,-2.0598,-2.0004,-1.9723,-1.9723,-1.9723,-1.9723,-1.9723,-1.9723,-1.9723,-1.9723,-1.9672,-1.9151,-1.823,-1.8072,-1.7847,-1.7524,-1.8302,-1.8836,-1.8874,-1.935,-1.9654,-1.9636,-1.9188,-1.8472,-1.7483,-1.6837,-1.6513,-1.6513,-1.6513,-1.6513,-1.6513,-1.6513,-1.6513,-1.6513,-1.6513,-1.6513,-1.6513,-1.6513,-1.6513,-1.6513,-1.6513,-1.6513,-1.6513,-1.6513,-1.6513,-1.6513,-1.6513,-1.6513,-1.6513,-1.6436,-1.6358,-1.6402,-1.5952,-1.5986,-1.6337,-1.6513,-1.6513,-1.6513,-1.6513,-1.6513,-1.6513,-1.6513,-1.6513,-1.6513,-1.6513,-1.6513,-1.6513,-1.6513,-1.6513,-1.6513,-1.6436,-1.6051,-1.5698,-1.5062,-1.4479,-1.399,-1.3624,-1.3372,-1.32,-1.2978,-1.3193,-1.3896,-1.333,-1.3425,-3.212,-3.1573,-3.0875,-3.0539,-3.058,-3.0781,-3.0895,-3.0878,-3.0878,-3.0995,-3.1081,-3.0673,-3.0188,-2.9683,-2.8816,-2.7241,-2.5272,-2.4729,-2.4189,-2.364,-2.3595,-2.3595,-2.3595,-2.3595,-2.3595,-2.3595,-2.3595,-2.3302,-2.2658,-2.1769,-2.1092,-2.0628,-2.0034,-1.9723,-1.9723,-1.9723,-1.9723,-1.9723,-1.9723,-1.9723,-1.9723,-1.9723,-1.935,-1.8669,-1.8612,-1.8535,-1.8341,-1.8688,-1.9062,-1.9387,-1.9603,-1.9723,-1.9636,-1.8874,-1.823,-1.7807,-1.6993,-1.6513,-1.6513,-1.6513,-1.6513,-1.6513,-1.6513,-1.6513,-1.6513,-1.6513,-1.6513,-1.6513,-1.6513,-1.6513,-1.6513,-1.6513,-1.6513,-1.6513,-1.6513,-1.6513,-1.6513,-1.6513,-1.6513,-1.6513,-1.6513,-1.6513,-1.6457,-1.6315,-1.6293,-1.6457,-1.6513,-1.6513,-1.6513,-1.6513,-1.6513,-1.6513,-1.6513,-1.6513,-1.6513,-1.6513,-1.6513,-1.6513,-1.6513,-1.6513,-1.6513,-1.6513,-1.6216,-1.5908,-1.5555,-1.513,-1.4468,-1.3563,-1.3382,-1.342,-1.32,-1.3407,-1.4209,-1.3704,-1.3894,-3.3009,-3.2256,-3.1495,-3.119,-3.119,-3.119,-3.119,-3.119,-3.119,-3.119,-3.119,-3.119,-3.0801,-3.0092,-2.953,-2.7912,-2.5671,-2.5072,-2.4393,-2.364,-2.3595,-2.3595,-2.3595,-2.3595,-2.3595,-2.3595,-2.3595,-2.337,-2.2972,-2.2343,-2.168,-2.1036,-2.0348,-1.9917,-1.9753,-1.9723,-1.9723,-1.9723,-1.9723,-1.9723,-1.9723,-1.9723,-1.9515,-1.9225,-1.9169,-1.9076,-1.8912,-1.9076,-1.9299,-1.9654,-1.9723,-1.9723,-1.9617,-1.8688,-1.8092,-1.7993,-1.7084,-1.6513,-1.6513,-1.6513,-1.6513,-1.6513,-1.6513,-1.6513,-1.6513,-1.6513,-1.6513,-1.6513,-1.6513,-1.6513,-1.6513,-1.6513,-1.6513,-1.6513,-1.6513,-1.6513,-1.6513,-1.6513,-1.6513,-1.6513,-1.6513,-1.6513,-1.6513,-1.6513,-1.65,-1.6513,-1.6513,-1.6513,-1.6513,-1.6513,-1.6513,-1.6513,-1.6513,-1.6513,-1.6513,-1.6513,-1.6513,-1.6513,-1.6513,-1.6513,-1.6513,-1.6513,-1.6414,-1.6095,-1.5776,-1.5421,-1.4721,-1.3729,-1.3478,-1.3586,-1.3525,-1.3573,-1.3957,-1.4103,-1.4345,-3.2979,-3.2293,-3.1515,-3.119,-3.119,-3.119,-3.119,-3.119,-3.119,-3.119,-3.119,-3.119,-3.0835,-3.0149,-2.9641,-2.8265,-2.6573,-2.5674,-2.47,-2.3661,-2.3595,-2.3595,-2.3595,-2.3595,-2.3595,-2.3595,-2.3595,-2.3595,-2.3475,-2.2897,-2.2283,-2.168,-2.1036,-2.0408,-1.9768,-1.9813,-1.9753,-1.9723,-1.9723,-1.9723,-1.9723,-1.9723,-1.969,-1.9654,-1.9654,-1.9424,-1.8968,-1.9406,-1.9672,-1.969,-1.9723,-1.9723,-1.9581,-1.8688,-1.8092,-1.7907,-1.7063,-1.6565,-1.6513,-1.6513,-1.6513,-1.6513,-1.6513,-1.6513,-1.6513,-1.6513,-1.6513,-1.6513,-1.6513,-1.6513,-1.6513,-1.6513,-1.6513,-1.6513,-1.6513,-1.6513,-1.6513,-1.6513,-1.6513,-1.6513,-1.6513,-1.6513,-1.6513,-1.6513,-1.6513,-1.6513,-1.6513,-1.6513,-1.6513,-1.6513,-1.6513,-1.6513,-1.6513,-1.6513,-1.6513,-1.6513,-1.6513,-1.6513,-1.6513,-1.6513,-1.6513,-1.6513,-1.6513,-1.6272,-1.603,-1.5666,-1.5073,-1.4201,-1.3789,-1.3789,-1.3705,-1.3823,-1.414,-1.4454,-1.464,-3.3271,-3.2899,-3.1698,-3.119,-3.119,-3.119,-3.119,-3.119,-3.119,-3.119,-3.119,-3.119,-3.1055,-3.0667,-2.9854,-2.8804,-2.7652,-2.6247,-2.4844,-2.3781,-2.361,-2.3595,-2.3595,-2.3595,-2.3595,-2.3595,-2.3595,-2.3595,-2.349,-2.3002,-2.2553,-2.2298,-2.1729,-2.1051,-2.0408,-2.0393,-2.0198,-1.9768,-1.9723,-1.9723,-1.9723,-1.9723,-1.9723,-1.9723,-1.9723,-1.9617,-1.946,-1.9621,-1.9708,-1.9723,-1.9723,-1.9723,-1.9512,-1.8688,-1.8013,-1.7706,-1.6972,-1.6513,-1.6513,-1.6513,-1.6513,-1.6513,-1.6513,-1.6513,-1.6513,-1.6513,-1.6513,-1.6513,-1.6513,-1.6513,-1.6513,-1.6513,-1.6513,-1.6513,-1.6513,-1.6513,-1.6513,-1.6513,-1.6513,-1.6513,-1.6513,-1.6513,-1.6513,-1.6513,-1.6513,-1.6513,-1.6513,-1.6513,-1.6513,-1.6513,-1.6513,-1.6513,-1.6513,-1.6513,-1.6513,-1.6513,-1.6513,-1.6513,-1.6513,-1.6513,-1.6513,-1.6513,-1.6513,-1.6436,-1.6194,-1.582,-1.5253,-1.4778,-1.4329,-1.4213,-1.4283,-1.4491,-1.4732,-1.4983,-1.5208,-3.3389,-3.3237,-3.1816,-3.119,-3.119,-3.119,-3.119,-3.119,-3.119,-3.119,-3.119,-3.119,-3.119,-3.0995,-3.0166,-2.9248,-2.8281,-2.667,-2.5228,-2.4066,-2.367,-2.3595,-2.3595,-2.3595,-2.3595,-2.3595,-2.3595,-2.3595,-2.358,-2.3206,-2.2912,-2.2643,-2.2283,-2.159,-2.0793,-2.0673,-2.0378,-1.9813,-1.9723,-1.9723,-1.9723,-1.9723,-1.9723,-1.9723,-1.9723,-1.9723,-1.9723,-1.9723,-1.9723,-1.9672,-1.9515,-1.9493,-1.9566,-1.8535,-1.7747,-1.7517,-1.6951,-1.6513,-1.6513,-1.6513,-1.6513,-1.6513,-1.6513,-1.6513,-1.6513,-1.6513,-1.6513,-1.6513,-1.6513,-1.6513,-1.6513,-1.6513,-1.6513,-1.6513,-1.6513,-1.6513,-1.6513,-1.6513,-1.6513,-1.6513,-1.6513,-1.6513,-1.6513,-1.6513,-1.6513,-1.6513,-1.6513,-1.6513,-1.6513,-1.6513,-1.6513,-1.6513,-1.6513,-1.6513,-1.6513,-1.6513,-1.6513,-1.6513,-1.6513,-1.6513,-1.6513,-1.6513,-1.6513,-1.6479,-1.6315,-1.603,-1.5499,-1.5141,-1.4755,-1.4824,-1.4846,-1.4892,-1.5073,-1.5622,-1.5842,-3.3389,-3.3203,-3.1816,-3.119,-3.119,-3.119,-3.119,-3.119,-3.119,-3.119,-3.119,-3.119,-3.119,-3.1055,-3.0497,-2.9636,-2.8421,-2.7039,-2.5869,-2.4784,-2.4043,-2.3595,-2.3595,-2.3595,-2.3595,-2.3595,-2.3595,-2.3595,-2.3595,-2.3535,-2.3332,-2.2853,-2.2748,-2.2069,-2.1111,-2.0763,-2.0468,-1.9813,-1.9723,-1.9723,-1.9723,-1.9723,-1.9723,-1.9723,-1.9723,-1.9723,-1.9723,-1.9723,-1.9723,-1.9654,-1.9299,-1.9244,-1.9244,-1.8145,-1.7524,-1.7463,-1.6858,-1.6586,-1.6513,-1.6513,-1.6513,-1.6513,-1.6513,-1.6513,-1.6513,-1.6513,-1.6513,-1.6513,-1.6513,-1.6513,-1.6513,-1.6513,-1.6513,-1.6513,-1.6513,-1.6513,-1.6513,-1.6513,-1.6513,-1.6513,-1.6513,-1.6538,-1.6563,-1.655,-1.6588,-1.6513,-1.6513,-1.6513,-1.6513,-1.6513,-1.6513,-1.6513,-1.6513,-1.6513,-1.6513,-1.6513,-1.6513,-1.6513,-1.6513,-1.6513,-1.6513,-1.6513,-1.6513,-1.6479,-1.6414,-1.6129,-1.5842,-1.5499,-1.5298,-1.5287,-1.5265,-1.5208,-1.5511,-1.603,-1.6194,-3.3389,-3.3237,-3.1816,-3.119,-3.119,-3.119,-3.119,-3.119,-3.119,-3.119,-3.119,-3.119,-3.119,-3.1114,-3.058,-3.0077,-2.9301,-2.7522,-2.641,-2.5797,-2.4286,-2.3661,-2.3595,-2.3595,-2.3595,-2.3595,-2.3595,-2.3595,-2.3595,-2.3595,-2.3505,-2.3385,-2.3281,-2.2697,-2.1635,-2.1425,-2.0797,-1.9872,-1.9723,-1.9723,-1.9723,-1.9723,-1.9723,-1.9723,-1.9723,-1.9723,-1.9723,-1.9723,-1.9723,-1.969,-1.9584,-1.9151,-1.8669,-1.8125,-1.7524,-1.69,-1.6671,-1.6513,-1.6513,-1.6513,-1.6513,-1.6513,-1.6513,-1.6513,-1.6513,-1.6513,-1.6513,-1.6513,-1.6513,-1.6513,-1.6513,-1.6513,-1.6513,-1.6513,-1.6513,-1.6513,-1.6513,-1.6513,-1.6513,-1.6538,-1.6873,-1.6898,-1.6798,-1.6861,-1.6936,-1.6613,-1.6513,-1.6513,-1.6513,-1.6513,-1.6513,-1.6513,-1.6513,-1.6513,-1.6513,-1.6513,-1.6513,-1.6513,-1.6513,-1.6513,-1.6513,-1.6513,-1.6513,-1.65,-1.6479,-1.6272,-1.6117,-1.5886,-1.582,-1.5744,-1.5666,-1.5622,-1.5998,-1.6436,-1.6414,-3.3389,-3.3271,-3.1816,-3.119,-3.119,-3.119,-3.119,-3.119,-3.119,-3.119,-3.119,-3.119,-3.119,-3.1151,-3.0838,-3.0518,-3.0049,-2.8167,-2.7015,-2.6158,-2.45,-2.3676,-2.3595,-2.3595,-2.3595,-2.3595,-2.3595,-2.3595,-2.3595,-2.3595,-2.3595,-2.358,-2.3595,-2.3056,-2.2179,-2.1769,-2.1201,-2.0258,-1.9902,-1.9723,-1.9723,-1.9723,-1.9723,-1.9723,-1.9723,-1.9723,-1.9723,-1.9723,-1.9723,-1.9654,-1.9479,-1.9169,-1.8765,-1.8072,-1.7394,-1.6565,-1.6513,-1.6513,-1.6513,-1.6513,-1.6513,-1.6513,-1.6513,-1.6513,-1.6513,-1.6513,-1.6513,-1.6513,-1.6513,-1.6513,-1.6513,-1.6513,-1.6513,-1.6513,-1.6513,-1.6513,-1.6513,-1.6513,-1.6513,-1.6626,-1.6986,-1.7436,-1.7174,-1.7338,-1.7061,-1.6697,-1.6513,-1.6513,-1.6513,-1.6513,-1.6513,-1.6513,-1.6513,-1.6513,-1.6513,-1.6513,-1.6513,-1.6513,-1.6513,-1.6513,-1.6513,-1.6513,-1.6513,-1.6513,-1.6513,-1.6457,-1.6315,-1.6216,-1.6216,-1.6129,-1.6051,-1.6073,-1.6392,-1.6513,-1.6513,-3.3389,-3.3271,-3.1799,-3.119,-3.119,-3.119,-3.119,-3.119,-3.119,-3.119,-3.119,-3.119,-3.119,-3.119,-3.1095,-3.0882,-3.0315,-2.8637,-2.7178,-2.5864,-2.4433,-2.3595,-2.3595,-2.3595,-2.3595,-2.3595,-2.3595,-2.3595,-2.3595,-2.3595,-2.3595,-2.3595,-2.3595,-2.3272,-2.2628,-2.2104,-2.144,-2.0677,-2.0154,-1.9842,-1.9753,-1.9723,-1.9723,-1.9723,-1.9723,-1.9723,-1.9723,-1.9723,-1.9723,-1.9723,-1.924,-1.9281,-1.9406,-1.8171,-1.7167,-1.6659,-1.6513,-1.6513,-1.6513,-1.6513,-1.6513,-1.6513,-1.6513,-1.6513,-1.6513,-1.6513,-1.6513,-1.6513,-1.6513,-1.6513,-1.6513,-1.6513,-1.6513,-1.6513,-1.6513,-1.6513,-1.6513,-1.6538,-1.6563,-1.6563,-1.7049,-1.7674,-1.7739,-1.7664,-1.7184,-1.6647,-1.6513,-1.6513,-1.6513,-1.6513,-1.6513,-1.6513,-1.6513,-1.6513,-1.6513,-1.6513,-1.6513,-1.6513,-1.6513,-1.6513,-1.6513,-1.6513,-1.6513,-1.6513,-1.6513,-1.6513,-1.6479,-1.6457,-1.6457,-1.6436,-1.6293,-1.6371,-1.6513,-1.6513,-1.6513,-3.3389,-3.325,-3.1799,-3.119,-3.119,-3.119,-3.119,-3.119,-3.119,-3.119,-3.119,-3.119,-3.119,-3.119,-3.119,-3.1095,-3.0637,-2.864,-2.644,-2.431,-2.3928,-2.3595,-2.3595,-2.3595,-2.3595,-2.3595,-2.3595,-2.3595,-2.3595,-2.3595,-2.3595,-2.3595,-2.3565,-2.3295,-2.2778,-2.2523,-2.1859,-2.0917,-2.0524,-2.0168,-1.9765,-1.9723,-1.9723,-1.9723,-1.9723,-1.9723,-1.9723,-1.9723,-1.9723,-1.9672,-1.9603,-1.9548,-1.9442,-1.8568,-1.7497,-1.6744,-1.6513,-1.6513,-1.6513,-1.6513,-1.6513,-1.6513,-1.6513,-1.6513,-1.6513,-1.6513,-1.6513,-1.6513,-1.6513,-1.6513,-1.6513,-1.6513,-1.6513,-1.6513,-1.6513,-1.6513,-1.6575,-1.6889,-1.6926,-1.6901,-1.7413,-1.7752,-1.7089,-1.7451,-1.7099,-1.6638,-1.6513,-1.6513,-1.6513,-1.6513,-1.6513,-1.6513,-1.6513,-1.6513,-1.6513,-1.6513,-1.6513,-1.6513,-1.6513,-1.6513,-1.6513,-1.6513,-1.6513,-1.6513,-1.6513,-1.6513,-1.6513,-1.6513,-1.6479,-1.6513,-1.6513,-1.6513,-1.6513,-1.6513,-1.6513,-3.3203,-3.2763,-3.1647,-3.119,-3.119,-3.119,-3.119,-3.119,-3.119,-3.119,-3.119,-3.119,-3.119,-3.119,-3.119,-3.119,-3.0603,-2.858,-2.6367,-2.4686,-2.3978,-2.3595,-2.3595,-2.3595,-2.3595,-2.3595,-2.3595,-2.3595,-2.3595,-2.3595,-2.3595,-2.3595,-2.3595,-2.3475,-2.3092,-2.2853,-2.2288,-2.153,-2.0908,-2.0382,-1.9823,-1.9713,-1.9723,-1.9723,-1.9723,-1.9723,-1.9723,-1.9723,-1.9548,-1.946,-1.9566,-1.9723,-1.9545,-1.8703,-1.7626,-1.6744,-1.6513,-1.6513,-1.6513,-1.6513,-1.6513,-1.6513,-1.6513,-1.6513,-1.6513,-1.6513,-1.6513,-1.6513,-1.6513,-1.6513,-1.6513,-1.6513,-1.6513,-1.6513,-1.6513,-1.6513,-1.6588,-1.7024,-1.7524,-1.7564,-1.8168,-1.7917,-1.7616,-1.74,-1.7112,-1.6688,-1.6513,-1.6513,-1.6513,-1.6513,-1.6513,-1.6513,-1.6513,-1.6513,-1.6513,-1.6513,-1.6513,-1.6513,-1.6513,-1.6513,-1.6513,-1.6513,-1.6513,-1.6513,-1.6513,-1.6513,-1.6513,-1.6513,-1.6513,-1.6513,-1.6513,-1.6513,-1.6513,-1.6513,-1.6513,-3.2865,-3.2242,-3.1495,-3.119,-3.119,-3.119,-3.119,-3.119,-3.119,-3.119,-3.119,-3.119,-3.119,-3.119,-3.119,-3.1137,-3.0299,-2.8809,-2.6746,-2.5286,-2.4277,-2.3818,-2.367,-2.3595,-2.3595,-2.3595,-2.3595,-2.3595,-2.3595,-2.3595,-2.3595,-2.3595,-2.3595,-2.355,-2.343,-2.3137,-2.2646,-2.2101,-2.1336,-2.0495,-1.9855,-1.9712,-1.9705,-1.9723,-1.9723,-1.9723,-1.9723,-1.9672,-1.9497,-1.908,-1.9442,-1.9654,-1.9475,-1.8798,-1.7827,-1.6837,-1.6786,-1.6723,-1.668,-1.6586,-1.6513,-1.6513,-1.6513,-1.6513,-1.6513,-1.6513,-1.6513,-1.6513,-1.6513,-1.6513,-1.6513,-1.6513,-1.6513,-1.6513,-1.6513,-1.6513,-1.66,-1.7024,-1.7612,-1.7965,-1.8168,-1.803,-1.7616,-1.729,-1.7027,-1.6776,-1.6613,-1.6513,-1.6513,-1.6513,-1.6513,-1.6513,-1.6513,-1.6513,-1.6513,-1.6513,-1.6513,-1.6513,-1.6513,-1.6513,-1.6513,-1.6513,-1.6513,-1.6513,-1.6513,-1.6513,-1.6513,-1.6513,-1.6513,-1.6513,-1.6513,-1.6513,-1.6513,-1.6513,-1.6513,-3.2412,-3.2226,-3.1495,-3.119,-3.119,-3.119,-3.119,-3.119,-3.119,-3.119,-3.119,-3.119,-3.119,-3.119,-3.119,-3.0656,-2.9788,-2.8545,-2.7211,-2.5681,-2.4697,-2.4141,-2.3655,-2.3595,-2.3595,-2.3595,-2.3595,-2.3595,-2.3595,-2.3595,-2.3595,-2.3595,-2.3595,-2.3595,-2.358,-2.343,-2.3014,-2.2489,-2.1814,-2.0985,-1.9979,-1.9719,-1.9723,-1.9723,-1.9723,-1.9723,-1.9723,-1.9708,-1.9639,-1.9599,-1.9639,-1.969,-1.9584,-1.908,-1.8477,-1.7894,-1.7312,-1.7076,-1.7055,-1.671,-1.6565,-1.6513,-1.6513,-1.6513,-1.6513,-1.6513,-1.6513,-1.6513,-1.6513,-1.6513,-1.6513,-1.6513,-1.6513,-1.6513,-1.6513,-1.6513,-1.6613,-1.6986,-1.7279,-1.7365,-1.7783,-1.8103,-1.7614,-1.7177,-1.6926,-1.6726,-1.6575,-1.6513,-1.6513,-1.6513,-1.6513,-1.6513,-1.6513,-1.6513,-1.6513,-1.6513,-1.6513,-1.6513,-1.6513,-1.6513,-1.6513,-1.6513,-1.6513,-1.6513,-1.6513,-1.6513,-1.6513,-1.6513,-1.6513,-1.6513,-1.6513,-1.6513,-1.6513,-1.6513,-1.6513,-3.2073,-3.1718,-3.1345,-3.119,-3.119,-3.119,-3.119,-3.119,-3.119,-3.119,-3.119,-3.119,-3.119,-3.119,-3.119,-3.0644,-2.9803,-2.8773,-2.7513,-2.6091,-2.5061,-2.4231,-2.3691,-2.361,-2.3595,-2.3595,-2.3595,-2.3595,-2.3595,-2.3595,-2.3595,-2.3595,-2.3595,-2.3595,-2.3595,-2.3565,-2.3364,-2.2873,-2.2387,-2.1376,-1.9905,-1.9738,-1.9735,-1.9723,-1.9723,-1.9723,-1.9723,-1.9723,-1.9708,-1.9705,-1.9723,-1.9723,-1.9636,-1.946,-1.9188,-1.8765,-1.7913,-1.7312,-1.7229,-1.6816,-1.6522,-1.6513,-1.6513,-1.6513,-1.6513,-1.6513,-1.6513,-1.6513,-1.6513,-1.6513,-1.6513,-1.6513,-1.6513,-1.6513,-1.6513,-1.6513,-1.6626,-1.7061,-1.7042,-1.6944,-1.7644,-1.7882,-1.7413,-1.7074,-1.6848,-1.6663,-1.6538,-1.6513,-1.6513,-1.6513,-1.6513,-1.6513,-1.6513,-1.6513,-1.6513,-1.6513,-1.6513,-1.6513,-1.6513,-1.6513,-1.6513,-1.6513,-1.6513,-1.6513,-1.6513,-1.6513,-1.6513,-1.6513,-1.6513,-1.6513,-1.6513,-1.6513,-1.6513,-1.6513,-1.6513,-3.1752,-3.119,-3.119,-3.119,-3.119,-3.119,-3.119,-3.119,-3.119,-3.119,-3.119,-3.119,-3.119,-3.119,-3.1151,-3.0902,-3.0369,-2.917,-2.8062,-2.7056,-2.5531,-2.4445,-2.4098,-2.3683,-2.3595,-2.3595,-2.3595,-2.3595,-2.3595,-2.3595,-2.3595,-2.3595,-2.3595,-2.3595,-2.3595,-2.3595,-2.3595,-2.3415,-2.2966,-2.175,-2.0519,-1.9986,-1.9899,-1.9839,-1.9783,-1.9723,-1.9723,-1.9723,-1.9723,-1.9723,-1.9723,-1.9723,-1.9723,-1.9723,-1.9723,-1.9475,-1.8263,-1.7626,-1.7333,-1.6816,-1.6513,-1.6513,-1.6513,-1.6513,-1.6513,-1.6513,-1.6513,-1.6513,-1.6513,-1.6513,-1.6513,-1.6513,-1.6513,-1.6513,-1.6513,-1.6525,-1.6609,-1.6851,-1.7153,-1.7324,-1.7823,-1.7766,-1.7375,-1.6923,-1.6676,-1.6626,-1.6513,-1.6513,-1.6513,-1.6513,-1.6513,-1.6513,-1.6513,-1.6513,-1.6513,-1.6513,-1.6513,-1.6513,-1.6513,-1.6513,-1.6513,-1.6513,-1.6513,-1.6513,-1.6513,-1.6513,-1.6513,-1.6513,-1.6513,-1.6513,-1.6513,-1.6513,-1.6513,-1.6513,-1.6513,-3.1258,-3.119,-3.119,-3.119,-3.119,-3.119,-3.119,-3.119,-3.119,-3.119,-3.119,-3.119,-3.119,-3.119,-3.119,-3.1151,-3.068,-2.9773,-2.8919,-2.8179,-2.6435,-2.5284,-2.4985,-2.4036,-2.3732,-2.3659,-2.3638,-2.3595,-2.3595,-2.3595,-2.3595,-2.3595,-2.3595,-2.3595,-2.3595,-2.3595,-2.3595,-2.349,-2.3017,-2.2267,-2.1491,-2.0874,-2.0628,-2.0434,-2.0139,-1.9902,-1.9947,-1.9917,-1.9809,-1.9783,-1.9738,-1.9723,-1.9723,-1.9723,-1.9723,-1.9387,-1.8727,-1.7993,-1.7807,-1.7055,-1.6513,-1.6522,-1.6552,-1.6522,-1.665,-1.6565,-1.6522,-1.6513,-1.6543,-1.665,-1.6701,-1.6607,-1.6543,-1.6586,-1.6659,-1.6607,-1.6636,-1.6854,-1.7106,-1.74,-1.7794,-1.7718,-1.7478,-1.6969,-1.6538,-1.6525,-1.6513,-1.6513,-1.6513,-1.6513,-1.6513,-1.6513,-1.6513,-1.6513,-1.6513,-1.6513,-1.6513,-1.6513,-1.6513,-1.6513,-1.6513,-1.6513,-1.6513,-1.6513,-1.6513,-1.6513,-1.6513,-1.6513,-1.6513,-1.6513,-1.6513,-1.6513,-1.6513,-1.6513,-1.6513,-3.119,-3.119,-3.119,-3.119,-3.119,-3.119,-3.119,-3.119,-3.119,-3.119,-3.119,-3.119,-3.119,-3.119,-3.119,-3.119,-3.0988,-3.0165,-2.9329,-2.8692,-2.7137,-2.589,-2.501,-2.4585,-2.4307,-2.3752,-2.3858,-2.3837,-2.3709,-2.3595,-2.3595,-2.3595,-2.3595,-2.3595,-2.3595,-2.3595,-2.3595,-2.3379,-2.2915,-2.2452,-2.2128,-2.165,-2.1261,-2.1261,-2.0946,-2.0797,-2.0692,-2.0408,-2.0303,-2.0198,-1.9992,-1.9723,-1.9723,-1.9723,-1.9723,-1.9621,-1.8688,-1.8131,-1.7953,-1.7063,-1.668,-1.6616,-1.6795,-1.7118,-1.7188,-1.6888,-1.6858,-1.7394,-1.7209,-1.7188,-1.7333,-1.7415,-1.7415,-1.7333,-1.7076,-1.6972,-1.6964,-1.6993,-1.7206,-1.751,-1.778,-1.7847,-1.7827,-1.7469,-1.6976,-1.6607,-1.6565,-1.6513,-1.6513,-1.6513,-1.6513,-1.6513,-1.6513,-1.6513,-1.6513,-1.6513,-1.6513,-1.6513,-1.6513,-1.6513,-1.6513,-1.6513,-1.6513,-1.6513,-1.6513,-1.6513,-1.6513,-1.6513,-1.6513,-1.6513,-1.6513,-1.6513,-1.6513,-1.6513,-1.6513,-3.119,-3.119,-3.119,-3.119,-3.119,-3.119,-3.119,-3.119,-3.119,-3.119,-3.119,-3.119,-3.119,-3.119,-3.119,-3.119,-3.1117,-3.0369,-2.9583,-2.8606,-2.7479,-2.6278,-2.5592,-2.5293,-2.4652,-2.3794,-2.4158,-2.4032,-2.3709,-2.3595,-2.3595,-2.3595,-2.3595,-2.3595,-2.3595,-2.3595,-2.3595,-2.3535,-2.3037,-2.2835,-2.2772,-2.2278,-2.2009,-2.1889,-2.1819,-2.1695,-2.1605,-2.1036,-2.0673,-2.0557,-2.0037,-1.9723,-1.9723,-1.9723,-1.9723,-1.9548,-1.8822,-1.8288,-1.7933,-1.7312,-1.6829,-1.6879,-1.7167,-1.7626,-1.7827,-1.725,-1.7034,-1.7927,-1.7947,-1.7933,-1.8033,-1.8033,-1.7953,-1.7827,-1.7706,-1.7585,-1.7483,-1.7504,-1.7686,-1.8086,-1.8341,-1.8458,-1.8361,-1.8046,-1.7537,-1.6879,-1.6616,-1.6543,-1.6513,-1.6513,-1.6513,-1.6513,-1.6513,-1.6513,-1.6513,-1.6513,-1.6513,-1.6513,-1.6513,-1.6513,-1.6513,-1.6513,-1.6513,-1.6513,-1.6513,-1.6513,-1.6513,-1.6513,-1.6513,-1.6513,-1.6513,-1.6513,-1.6513,-1.6513,-1.6513,-3.119,-3.119,-3.119,-3.119,-3.119,-3.119,-3.119,-3.119,-3.119,-3.119,-3.119,-3.119,-3.119,-3.119,-3.119,-3.119,-3.1123,-2.9734,-2.949,-2.8816,-2.7555,-2.6609,-2.6129,-2.565,-2.4989,-2.4369,-2.445,-2.4163,-2.3709,-2.3595,-2.3595,-2.3595,-2.3595,-2.3595,-2.3595,-2.3595,-2.3595,-2.3595,-2.3364,-2.3364,-2.3281,-2.2957,-2.2622,-2.2493,-2.2104,-2.171,-2.1699,-2.1246,-2.0838,-2.0808,-2.0079,-1.9723,-1.9723,-1.9723,-1.9723,-1.9548,-1.8987,-1.8496,-1.8125,-1.7686,-1.7353,-1.7401,-1.7666,-1.8052,-1.8308,-1.7847,-1.7787,-1.8171,-1.8458,-1.8438,-1.8308,-1.8131,-1.8361,-1.8308,-1.8249,-1.8033,-1.7953,-1.7973,-1.8224,-1.8684,-1.8893,-1.8968,-1.8874,-1.8554,-1.8046,-1.7394,-1.6837,-1.6744,-1.6543,-1.6513,-1.6513,-1.6513,-1.6513,-1.6513,-1.6513,-1.6513,-1.6513,-1.6513,-1.6513,-1.6513,-1.6513,-1.6513,-1.6513,-1.6513,-1.6513,-1.6513,-1.6513,-1.6513,-1.6513,-1.6513,-1.6513,-1.6513,-1.6513,-1.6513,-1.6513,-3.119,-3.119,-3.119,-3.119,-3.119,-3.119,-3.119,-3.119,-3.119,-3.119,-3.119,-3.119,-3.119,-3.119,-3.119,-3.119,-3.1055,-3.0192,-2.9702,-2.9006,-2.7949,-2.6961,-2.6583,-2.6122,-2.5582,-2.4716,-2.4637,-2.4389,-2.3666,-2.3595,-2.3595,-2.3595,-2.3595,-2.3595,-2.3595,-2.3595,-2.3595,-2.3595,-2.3595,-2.3595,-2.355,-2.343,-2.3236,-2.3191,-2.3116,-2.2877,-2.2802,-2.2269,-2.1769,-2.1156,-2.0273,-1.9899,-1.9753,-1.9753,-1.969,-1.9599,-1.8949,-1.8593,-1.8496,-1.8125,-1.7947,-1.8185,-1.8263,-1.8361,-1.8817,-1.84,-1.8477,-1.8803,-1.9132,-1.9058,-1.9132,-1.9095,-1.9132,-1.8987,-1.8765,-1.8535,-1.8477,-1.8496,-1.8554,-1.8926,-1.924,-1.9424,-1.9262,-1.9062,-1.8496,-1.7907,-1.7374,-1.6888,-1.6659,-1.6513,-1.6513,-1.6513,-1.6513,-1.6513,-1.6513,-1.6513,-1.6513,-1.6513,-1.6513,-1.6513,-1.6513,-1.6513,-1.6513,-1.6513,-1.6513,-1.6513,-1.6513,-1.6513,-1.6513,-1.6513,-1.6513,-1.6513,-1.6513,-1.6513,-1.6513,-3.119,-3.119,-3.119,-3.119,-3.119,-3.119,-3.119,-3.119,-3.119,-3.119,-3.119,-3.119,-3.119,-3.119,-3.119,-3.0987,-3.0768,-3.0209,-2.9465,-2.872,-2.7905,-2.7159,-2.6618,-2.6141,-2.5728,-2.4914,-2.4657,-2.4394,-2.3638,-2.3595,-2.3595,-2.3595,-2.3595,-2.3595,-2.3595,-2.3595,-2.3595,-2.3595,-2.3595,-2.3595,-2.3595,-2.358,-2.3565,-2.355,-2.349,-2.3475,-2.3281,-2.2838,-2.2383,-2.1695,-2.0921,-2.0139,-1.9944,-1.9806,-1.9632,-1.9314,-1.902,-1.8679,-1.8535,-1.8593,-1.8574,-1.893,-1.8869,-1.9095,-1.9258,-1.8987,-1.9062,-1.9439,-1.9654,-1.9723,-1.9723,-1.9599,-1.9545,-1.9369,-1.9225,-1.9024,-1.9024,-1.9024,-1.902,-1.9147,-1.9406,-1.9654,-1.9566,-1.9314,-1.8607,-1.8027,-1.7456,-1.6951,-1.6629,-1.6513,-1.6513,-1.6513,-1.6513,-1.6513,-1.6513,-1.6513,-1.6513,-1.6513,-1.6513,-1.6513,-1.6513,-1.6513,-1.6513,-1.6513,-1.6513,-1.6513,-1.6513,-1.6513,-1.6513,-1.6513,-1.6513,-1.6513,-1.6513,-1.6513,-1.6513,-3.119,-3.119,-3.119,-3.119,-3.119,-3.119,-3.119,-3.119,-3.119,-3.119,-3.119,-3.119,-3.119,-3.1173,-3.1106,-3.0751,-3.0277,-2.9989,-2.9227,-2.8162,-2.7705,-2.7231,-2.6705,-2.6175,-2.5726,-2.5202,-2.4736,-2.4246,-2.3595,-2.3595,-2.3595,-2.3595,-2.3595,-2.3595,-2.3595,-2.3595,-2.3595,-2.3595,-2.3595,-2.3595,-2.3595,-2.3595,-2.3595,-2.3595,-2.3595,-2.3595,-2.346,-2.3146,-2.2742,-2.2313,-2.147,-2.0872,-2.0658,-2.0213,-1.9827,-1.9347,-1.9579,-1.9174,-1.8369,-1.8679,-1.9153,-1.949,-1.9347,-1.9545,-1.9654,-1.9584,-1.9479,-1.9723,-1.9723,-1.9723,-1.9723,-1.9723,-1.9723,-1.9672,-1.953,-1.946,-1.9424,-1.9424,-1.9369,-1.9347,-1.9512,-1.9723,-1.9708,-1.9475,-1.8722,-1.8086,-1.7524,-1.7076,-1.6723,-1.665,-1.668,-1.6513,-1.6513,-1.6513,-1.6513,-1.6513,-1.6513,-1.6513,-1.6513,-1.6513,-1.6513,-1.6513,-1.6513,-1.6513,-1.6513,-1.6513,-1.6513,-1.6513,-1.6513,-1.6513,-1.6513,-1.6513,-1.6513,-1.6513,-1.6513,-3.119,-3.119,-3.119,-3.119,-3.119,-3.119,-3.119,-3.119,-3.119,-3.119,-3.119,-3.119,-3.119,-3.1089,-3.0683,-3.0328,-2.9973,-2.877,-2.7993,-2.7841,-2.7401,-2.6755,-2.6329,-2.61,-2.5572,-2.4851,-2.441,-2.4122,-2.3595,-2.3595,-2.3595,-2.3595,-2.3595,-2.3595,-2.3595,-2.3595,-2.3595,-2.3595,-2.3595,-2.3595,-2.3595,-2.3595,-2.3595,-2.3595,-2.3595,-2.3595,-2.3595,-2.3281,-2.3107,-2.2823,-2.1994,-2.1754,-2.144,-2.0961,-2.0855,-2.0583,-2.0715,-2.0137,-1.964,-1.974,-1.9905,-1.9848,-1.9723,-1.9723,-1.9723,-1.9723,-1.9723,-1.9723,-1.9723,-1.9723,-1.9723,-1.9723,-1.9723,-1.9723,-1.9636,-1.9636,-1.9636,-1.9636,-1.9617,-1.9599,-1.9723,-1.9723,-1.9723,-1.9672,-1.9039,-1.8607,-1.8125,-1.7517,-1.7089,-1.7013,-1.6993,-1.665,-1.6513,-1.6513,-1.6513,-1.6513,-1.6513,-1.6513,-1.6513,-1.6513,-1.6513,-1.6513,-1.6513,-1.6513,-1.6513,-1.6513,-1.6513,-1.6513,-1.6513,-1.6513,-1.6513,-1.6513,-1.6513,-1.6513,-1.6513,-3.119,-3.119,-3.119,-3.119,-3.119,-3.119,-3.119,-3.119,-3.119,-3.119,-3.119,-3.119,-3.1021,-3.0734,-3.0345,-2.96,-2.9294,-2.8704,-2.7621,-2.7554,-2.7283,-2.7009,-2.6733,-2.6145,-2.5786,-2.5021,-2.4487,-2.4122,-2.3616,-2.3595,-2.3595,-2.3595,-2.3595,-2.3595,-2.3595,-2.3595,-2.3595,-2.3595,-2.3595,-2.3595,-2.3595,-2.3595,-2.3595,-2.3595,-2.3595,-2.3595,-2.3595,-2.3535,-2.343,-2.3077,-2.2778,-2.2538,-2.2128,-2.1844,-2.166,-2.1379,-2.1102,-2.0605,-2.0367,-2.0361,-2.0247,-1.975,-1.9723,-1.9723,-1.9723,-1.9723,-1.9723,-1.9723,-1.9723,-1.9723,-1.9723,-1.9723,-1.9723,-1.9723,-1.9723,-1.9723,-1.9723,-1.9723,-1.9723,-1.9723,-1.9723,-1.9723,-1.9723,-1.9636,-1.9406,-1.908,-1.8765,-1.8086,-1.7374,-1.7209,-1.7076,-1.6744,-1.6513,-1.6513,-1.6513,-1.6513,-1.6513,-1.6513,-1.6513,-1.6513,-1.6513,-1.6513,-1.6513,-1.6513,-1.6513,-1.6513,-1.6513,-1.6513,-1.6513,-1.6513,-1.6513,-1.6513,-1.6513,-1.6513,-1.6513,-3.119,-3.119,-3.119,-3.119,-3.119,-3.119,-3.119,-3.119,-3.119,-3.119,-3.119,-3.1123,-3.0768,-3.0209,-3.0023,-2.9193,-2.8246,-2.8484,-2.7791,-2.7249,-2.7199,-2.7332,-2.7021,-2.6348,-2.5775,-2.5528,-2.4987,-2.3991,-2.3616,-2.3595,-2.3595,-2.3595,-2.3595,-2.3595,-2.3595,-2.3595,-2.3595,-2.3595,-2.3595,-2.3595,-2.3595,-2.3595,-2.3595,-2.3595,-2.3595,-2.3595,-2.3595,-2.3565,-2.3565,-2.3355,-2.3092,-2.2868,-2.2538,-2.2099,-2.1556,-2.1243,-2.1177,-2.1111,-2.0966,-2.1042,-2.0509,-2.0019,-1.9753,-1.9723,-1.9723,-1.9723,-1.9723,-1.9723,-1.9723,-1.9723,-1.9723,-1.9723,-1.9723,-1.9723,-1.9723,-1.9723,-1.9723,-1.9723,-1.9723,-1.9723,-1.9723,-1.9723,-1.9723,-1.9654,-1.9566,-1.9225,-1.8784,-1.8072,-1.7456,-1.7013,-1.6879,-1.6659,-1.6513,-1.6513,-1.6513,-1.6513,-1.6513,-1.6513,-1.6513,-1.6513,-1.6513,-1.6513,-1.6513,-1.6513,-1.6513,-1.6513,-1.6513,-1.6513,-1.6513,-1.6513,-1.6513,-1.6513,-1.6513,-1.6513,-1.6513,-3.119,-3.119,-3.119,-3.119,-3.119,-3.119,-3.119,-3.119,-3.119,-3.119,-3.1193,-3.0632,-3.0311,-3.004,-2.8973,-2.828,-2.7841,-2.7486,-2.7148,-2.6945,-2.6996,-2.6772,-2.6423,-2.5961,-2.5394,-2.4896,-2.4358,-2.3858,-2.3638,-2.3595,-2.3595,-2.3595,-2.3616,-2.3595,-2.3616,-2.3595,-2.3595,-2.3595,-2.3595,-2.3595,-2.3595,-2.3595,-2.3595,-2.3595,-2.3595,-2.3595,-2.3595,-2.3595,-2.3595,-2.3505,-2.343,-2.3325,-2.3295,-2.3146,-2.2914,-2.2893,-2.2806,-2.2661,-2.2153,-2.1665,-2.1066,-2.0378,-1.9959,-1.9738,-1.9723,-1.9723,-1.9723,-1.9723,-1.9723,-1.9723,-1.9723,-1.9723,-1.9723,-1.9723,-1.9723,-1.9723,-1.9738,-1.9842,-1.9857,-1.9884,-1.9869,-1.9798,-1.9783,-1.9705,-1.9566,-1.9244,-1.8803,-1.8151,-1.7585,-1.7188,-1.6752,-1.6586,-1.6513,-1.6513,-1.6513,-1.6513,-1.6513,-1.6513,-1.6513,-1.6513,-1.6513,-1.6513,-1.6513,-1.6513,-1.6513,-1.6513,-1.6513,-1.6513,-1.6513,-1.6513,-1.6513,-1.6513,-1.6513,-1.6513,-1.6513,-3.119,-3.119,-3.119,-3.119,-3.119,-3.119,-3.119,-3.119,-3.119,-3.119,-3.1106,-3.0463,-2.9956,-2.9465,-2.8432,-2.7672,-2.7317,-2.7029,-2.6759,-2.6759,-2.6674,-2.6859,-2.6474,-2.5889,-2.5574,-2.4916,-2.4343,-2.39,-2.3681,-2.3616,-2.3638,-2.3921,-2.3788,-2.3752,-2.3815,-2.3752,-2.3595,-2.3595,-2.3595,-2.3595,-2.3595,-2.3595,-2.3595,-2.3595,-2.3595,-2.3595,-2.3595,-2.3595,-2.3595,-2.3595,-2.3595,-2.3595,-2.3595,-2.3565,-2.3565,-2.3462,-2.3432,-2.3088,-2.2583,-2.1964,-2.1395,-2.0752,-2.0094,-1.9813,-1.9723,-1.9723,-1.9723,-1.9723,-1.9723,-1.9723,-1.9723,-1.9723,-1.9723,-1.9723,-1.9723,-1.9723,-1.9842,-1.9974,-2.0049,-2.0109,-2.0049,-1.9962,-1.9872,-1.9783,-1.9654,-1.9406,-1.9118,-1.865,-1.8066,-1.7558,-1.6993,-1.6573,-1.6522,-1.6513,-1.6513,-1.6513,-1.6513,-1.6513,-1.6513,-1.6513,-1.6513,-1.6513,-1.6513,-1.6513,-1.6513,-1.6513,-1.6513,-1.6513,-1.6513,-1.6513,-1.6513,-1.6513,-1.6513,-1.6513,-1.6513,-3.119,-3.119,-3.119,-3.119,-3.119,-3.119,-3.119,-3.119,-3.119,-3.119,-3.1055,-3.0345,-2.96,-2.9008,-2.8044,-2.73,-2.6996,-2.6742,-2.6708,-2.6674,-2.6539,-2.6705,-2.6767,-2.6501,-2.5628,-2.5489,-2.5039,-2.4027,-2.3702,-2.3616,-2.3794,-2.4287,-2.3858,-2.3767,-2.3985,-2.3752,-2.3595,-2.3595,-2.3595,-2.3595,-2.3595,-2.3595,-2.3595,-2.3595,-2.3595,-2.3595,-2.3595,-2.3595,-2.3595,-2.3595,-2.3595,-2.3595,-2.3595,-2.3595,-2.3595,-2.3595,-2.3595,-2.3236,-2.2718,-2.2074,-2.141,-2.0752,-2.0094,-1.9828,-1.9723,-1.9723,-1.9723,-1.9723,-1.9723,-1.9723,-1.9723,-1.9723,-1.9723,-1.9723,-1.9723,-1.9723,-1.9783,-2.0079,-2.0513,-2.0543,-2.0483,-2.0333,-2.0079,-1.9989,-1.9723,-1.9548,-1.9387,-1.9024,-1.8516,-1.7947,-1.7394,-1.6774,-1.6565,-1.6522,-1.6513,-1.6513,-1.6513,-1.6513,-1.6513,-1.6513,-1.6513,-1.6513,-1.6513,-1.6513,-1.6513,-1.6513,-1.6513,-1.6513,-1.6513,-1.6513,-1.6513,-1.6513,-1.6513,-1.6513,-1.6513,-3.119,-3.119,-3.119,-3.119,-3.119,-3.119,-3.119,-3.119,-3.119,-3.1173,-3.0954,-2.9905,-2.9213,-2.8874,-2.7604,-2.6877,-2.6776,-2.6708,-2.6708,-2.6556,-2.6401,-2.6363,-2.6351,-2.5889,-2.5307,-2.4858,-2.4431,-2.4163,-2.3885,-2.373,-2.3681,-2.3815,-2.3659,-2.3837,-2.3921,-2.3681,-2.3595,-2.3595,-2.3595,-2.3595,-2.3595,-2.3595,-2.3595,-2.3595,-2.3595,-2.3595,-2.3595,-2.3595,-2.3595,-2.3595,-2.3595,-2.3595,-2.3595,-2.3595,-2.3595,-2.3595,-2.358,-2.3272,-2.2718,-2.2089,-2.141,-2.0752,-2.0168,-1.9887,-1.9723,-1.9723,-1.9723,-1.9723,-1.9723,-1.9723,-1.9783,-1.9783,-1.9828,-1.9828,-1.9842,-1.9842,-1.9842,-2.0378,-2.0942,-2.0942,-2.0917,-2.0677,-2.0378,-2.0064,-1.9828,-1.969,-1.9639,-1.9387,-1.8874,-1.8341,-1.7907,-1.7312,-1.6689,-1.6573,-1.6586,-1.6586,-1.6629,-1.6543,-1.6513,-1.6513,-1.6513,-1.6513,-1.6513,-1.6513,-1.6513,-1.6513,-1.6513,-1.6513,-1.6513,-1.6513,-1.6513,-1.6513,-1.6513,-1.6513,-1.6513,-3.119,-3.119,-3.119,-3.119,-3.119,-3.119,-3.119,-3.119,-3.119,-3.0987,-3.0581,-2.9568,-2.8976,-2.8739,-2.7402,-2.6708,-2.6708,-2.6708,-2.6708,-2.6573,-2.6279,-2.6085,-2.5779,-2.5468,-2.4985,-2.4532,-2.445,-2.4287,-2.4204,-2.4328,-2.4369,-2.4184,-2.4095,-2.3906,-2.39,-2.3752,-2.3595,-2.3595,-2.3595,-2.3595,-2.3595,-2.3595,-2.3595,-2.3595,-2.3595,-2.3595,-2.3595,-2.3595,-2.3595,-2.3595,-2.3595,-2.3595,-2.3595,-2.3595,-2.3595,-2.3595,-2.3535,-2.3347,-2.2718,-2.2074,-2.138,-2.0707,-2.0079,-1.9738,-1.9723,-1.9723,-1.9723,-1.9723,-1.9723,-1.9723,-2.0154,-2.0273,-2.0587,-2.0707,-2.0861,-2.0951,-2.1006,-2.1306,-2.15,-2.138,-2.1201,-2.0812,-2.0453,-1.9914,-1.9723,-1.9723,-1.9708,-1.969,-1.9207,-1.8746,-1.8308,-1.7887,-1.7291,-1.6942,-1.6964,-1.69,-1.6837,-1.6701,-1.6513,-1.6513,-1.6513,-1.6513,-1.6513,-1.6513,-1.6513,-1.6513,-1.6513,-1.6513,-1.6513,-1.6513,-1.6513,-1.6513,-1.6513,-1.6513,-1.6513,-3.0869,-3.0903,-3.0886,-3.0954,-3.1055,-3.1038,-3.1021,-3.1021,-3.1021,-3.0632,-2.9905,-2.9127,-2.8891,-2.8333,-2.7453,-2.6979,-2.6708,-2.6708,-2.6708,-2.6573,-2.6209,-2.6067,-2.5852,-2.5524,-2.5182,-2.4792,-2.4556,-2.4796,-2.4989,-2.4989,-2.4914,-2.5008,-2.4716,-2.4333,-2.4178,-2.39,-2.3595,-2.3595,-2.3595,-2.3595,-2.3595,-2.3595,-2.3595,-2.3595,-2.3595,-2.3595,-2.3595,-2.3595,-2.3595,-2.3595,-2.3595,-2.3595,-2.3595,-2.3595,-2.3595,-2.3595,-2.3595,-2.3176,-2.2568,-2.1999,-2.1291,-2.0617,-2.0037,-1.9783,-1.9783,-1.9936,-1.9951,-2.0052,-2.0052,-2.0202,-2.0651,-2.0902,-2.1246,-2.147,-2.1635,-2.1859,-2.1979,-2.2084,-2.1979,-2.1844,-2.1485,-2.1096,-2.0602,-2.0052,-1.9723,-1.9723,-1.9723,-1.9723,-1.9581,-1.9151,-1.8708,-1.838,-1.7947,-1.768,-1.7353,-1.7034,-1.6858,-1.6701,-1.6513,-1.6513,-1.6513,-1.6513,-1.6513,-1.6513,-1.6513,-1.6513,-1.6513,-1.6513,-1.6513,-1.6513,-1.6513,-1.6513,-1.6513,-1.6513,-1.6513,-2.9433,-2.9397,-2.9433,-2.9753,-3.026,-3.0311,-3.0311,-3.0311,-3.0311,-2.9888,-2.9161,-2.8432,-2.8027,-2.801,-2.7148,-2.6708,-2.6708,-2.6708,-2.6708,-2.6624,-2.6209,-2.6067,-2.5906,-2.5689,-2.576,-2.543,-2.4973,-2.4816,-2.5411,-2.5373,-2.5008,-2.4672,-2.4597,-2.4225,-2.3773,-2.3595,-2.3595,-2.3595,-2.3595,-2.3595,-2.3595,-2.3595,-2.3595,-2.3595,-2.3595,-2.3595,-2.3595,-2.3595,-2.3595,-2.3595,-2.3595,-2.3595,-2.3595,-2.3595,-2.3595,-2.3595,-2.3595,-2.3041,-2.2448,-2.1954,-2.1276,-2.0333,-1.9947,-2.0049,-2.028,-2.079,-2.0937,-2.1255,-2.1285,-2.1319,-2.1604,-2.1535,-2.1724,-2.1769,-2.1889,-2.2224,-2.2448,-2.2538,-2.2517,-2.2308,-2.2039,-2.165,-2.1246,-2.0576,-1.9768,-1.9753,-1.9738,-1.9738,-1.9672,-1.9369,-1.908,-1.8817,-1.853,-1.7907,-1.7394,-1.6951,-1.6731,-1.6607,-1.6513,-1.6513,-1.6513,-1.6513,-1.6513,-1.6513,-1.6513,-1.6513,-1.6513,-1.6513,-1.6513,-1.6513,-1.6513,-1.6513,-1.6513,-1.6565,-1.6629]},{"header":{"parameterUnit":"m.s-1","parameterCategory":1,"la1":31.0,"la2":29.5877,"lo1":-88.7671,"lo2":-86.6584,"dy":0.0162,"dx":0.0185,"nx":115,"ny":88,"refTime":"2024-07-28T06:00:00:Z","depth":0,"parameterNumber":3,"parameterNumberName":"V-component_of_WINDS"},"data":[0.0,0.0,0.0,0.0,0.0,0.0,0.0,0.0,0.0,0.0,0.0,0.0,0.0,0.0,0.0,0.0,0.0,0.0,0.0,0.0,0.0,0.0,0.0,0.0,0.0,0.0,0.0,0.0,0.0,0.0,0.0,0.0,0.0,0.0,0.0,0.0,0.0,0.0,0.0,0.0,0.0,0.0,0.0,0.0,0.0,0.0,0.0,0.0,0.0,0.0,0.0,0.0,0.0,0.0,0.0,0.0,0.0,0.0,0.0,0.0,0.0,0.0,0.0,0.0,0.0,0.0,0.0,0.0,0.0,0.0,0.0,0.0,0.0,0.0,0.0,0.0,0.0,0.0,0.0,0.0,0.0,0.0,0.0,0.0,0.0,0.0,0.0,0.0,0.0,0.0,0.0,0.0,0.0,0.0,0.0,0.0,0.0,0.0,0.0,0.0,0.0,0.0,0.0,0.0,0.0,0.0,0.0,0.0,0.0,0.0,0.0,0.0,0.0,0.0,0.0,0.0,0.0,0.0,0.0,0.0,0.0,0.0,0.0,0.0,0.0,0.0,0.0,0.0,0.0,0.0,0.0,0.0,0.0,0.0,0.0,0.0,0.0,0.0,0.0,0.0,0.0,0.0,0.0,0.0,0.0,0.0,0.0,0.0,0.0,0.0,0.0,0.0,0.0,0.0,0.0,0.0,0.0,0.0,0.0,0.0,0.0,0.0,0.0,0.0,0.0,0.0,0.0,0.0,0.0,0.0,0.0,0.0,0.0,0.0,0.0,0.0,0.0,0.0,0.0,0.0,0.0,0.0,0.0,0.0,0.0,0.0,0.0,0.0,0.0,0.0,0.0,0.0,0.0,0.0,0.0,0.0,0.0,0.0,0.0,0.0,0.0,0.0,0.0,0.0,0.0,0.0,0.0,0.0,0.0,0.0,0.0,0.0,0.0,0.0,0.0,0.0,0.0,0.0,0.0,0.0,0.0,0.0,0.0,0.0,0.0,0.0,0.0,0.0,0.0,0.0,0.0,0.0,0.0,0.0,0.0,0.0,0.0,0.0,0.0,0.0,0.0,0.0,0.0,0.0,0.0,0.0,0.0,0.0,0.0,0.0,0.0,0.0,0.0,0.0,0.0,0.0,0.0,0.0,0.0,0.0,0.0,0.0,0.0,0.0,0.0,0.0,0.0,0.0,0.0,0.0,0.0,0.0,0.0,0.0,0.0,0.0,0.0,0.0,0.0,0.0,0.0,0.0,0.0,0.0,0.0,0.0,0.0,0.0,0.0,0.0,0.0,0.0,0.0,0.0,0.0,0.0,0.0,0.0,0.0,0.0,0.0,0.0,0.0,0.0,0.0,0.0,0.0,0.0,0.0,0.0,0.0,0.0,0.0,0.0,0.0,0.0,0.0,0.0,0.0,0.0,0.0,0.0,0.0,0.0,0.0,0.0,0.0,0.0,0.0,0.0,0.0,0.0,0.0,0.0,0.0,0.0,0.0,0.0,0.0,0.0,0.0,0.0,0.0,0.0,0.0,0.0,0.0,0.0,0.0,0.0,0.0,0.0,0.0,0.0,0.0,0.0,0.0,0.0,0.0,0.0,0.0,0.0,0.0,0.0,0.0,0.0,0.0,0.0,0.0,0.0,0.0,0.0,0.0,0.0,0.0,0.0,0.0,0.0,0.0,0.0,0.0,0.0,0.0,0.0,0.0,0.0,0.0,0.0,0.0,0.0,0.0,0.0,0.0,0.0,0.0,0.0,0.0,0.0,0.0,0.0,0.0,0.0,0.0,0.0,0.0,0.0,0.0,0.0,0.0,0.0,0.0,0.0,0.0,0.0,0.0,0.0,0.0,0.0,0.0,0.0,0.0,0.0,0.0,0.0,0.0,0.0,0.0,0.0,0.0,0.0,0.0,0.0,0.0,0.0,0.0,0.0,0.0,0.0,0.0,0.0,0.0,0.0,0.0,0.0,0.0,0.0,0.0,0.0,0.0,0.0,0.0,0.0,0.0,0.0,0.0,0.0,0.0,0.0,0.0,0.0,0.0,0.0,0.0,0.0,0.0,0.0,0.0,0.0,0.0,0.0,0.0,0.0,0.0,0.0,0.0,0.0,0.0,0.0,0.0,0.0,0.0,0.0,0.0,0.0,0.0,0.0,0.0,0.0,0.0,0.0,0.0,0.0,0.0,0.0,0.0,0.0,0.0,0.0,0.0,0.0,0.0,0.0,0.0,0.0,0.0,0.0,0.0,0.0,0.0,0.0,0.0,0.0,0.0,0.0,0.0,0.0,0.0,0.0,0.0,0.0,0.0,0.0,0.0,0.0,0.0,0.0,0.0,0.0,0.0,0.0,0.0,0.0,0.0,0.0,0.0,0.0,0.0,0.0,0.0,0.0,0.0,0.0,0.0,0.0,0.0,0.0,0.0,0.0,0.0,0.0,0.0,0.0,0.0,0.0,0.0,0.0,0.0,0.0,0.0,0.0,0.0,0.0,0.0,0.0,0.0,0.0,0.0,0.0,0.0,0.0,0.0,0.0,0.0,0.0,0.0,0.0,0.0,0.0,0.0,0.0,0.0,0.0,0.0,0.0,0.0,0.0,0.0,0.0,0.0,0.0,0.0,0.0,0.0,0.0,0.0,0.0,0.0,0.0,0.0,0.0,0.0,0.0,0.0,0.0,0.0,0.0,0.0,0.0,0.0,0.0,0.0,0.0,0.0,0.0,0.0,0.0,0.0,0.0,0.0,0.0,0.0,0.0,0.0,0.0,0.0,0.0,0.0,0.0,0.0,0.0,0.0,0.0,0.0,0.0,0.0,0.0,0.0,0.0,0.0,0.0,0.0,0.0,0.0,0.0,0.0,0.0,0.0,0.0,0.0,0.0,0.0,0.0,0.0,0.0,0.0,0.0,0.0,0.0,0.0,0.0,0.0,0.0,0.0,0.0,0.0,0.0,0.0,0.0,0.0,0.0,0.0,0.0,0.0,0.0,0.0,0.0,0.0,0.0,0.0,0.0,0.0,0.0,0.0,0.0,0.0,0.0,0.0,0.0,0.0,0.0,0.0,0.0,0.0,0.0,0.0,0.0,0.0,0.0,0.0,0.0,0.0,0.0,0.0,0.0,0.0,0.0,0.0,0.0,0.0,0.0,0.0,0.0,0.0,0.0,0.0,0.0,0.0,0.0,0.0,0.0,0.0,0.0,0.0,0.0,0.0,0.0,0.0,0.0,0.0,0.0,0.0,0.0,0.0,0.0,0.0,0.0,0.0,0.0,0.0,0.0,0.0,0.0,0.0,0.0,0.0,0.0,0.0,0.0,0.0,0.0,0.0,0.0,0.0,0.0,0.0,0.0,0.0,0.0,0.0,0.0,0.0,0.0,0.0,0.0,0.0,0.0,0.0,0.0,0.0,0.0,0.0,0.0,0.0,0.0,0.0,0.0,0.0,0.0,0.0,0.0,0.0,0.0,0.0,0.0,0.0,0.0,0.0,0.0,0.0,0.0,0.0,0.0,0.0,0.0,0.0,0.0,0.0,0.0,0.0,0.0,0.0,0.0,0.0,0.0,0.0,0.0,0.0,0.0,0.0,0.0,0.0,0.0,0.0,0.0,0.0,0.0,0.0,0.0,0.0,0.0,0.0,0.0,0.0,0.0,0.0,0.0,0.0,0.0,0.0,0.0,0.0,0.0,0.0,0.0,0.0,0.0,0.0,0.0,0.0,0.0,0.0,0.0,0.0,0.0,0.0,0.0,0.0,0.0,0.0,0.0,0.0,0.0,0.0,0.0,0.0,0.0,0.0,0.0,0.0,0.0,0.0,0.0,0.0,0.0,0.0,0.0,0.0,0.0,0.0,0.0,0.0,0.0,0.0,0.0,0.0,0.0,0.0,0.0,0.0,0.0,0.0,0.0,0.0,0.0,0.0,0.0,0.0,0.0,0.0,0.0,0.0,0.0,0.0,0.0,0.0,0.0,0.0,0.0,0.0,0.0,0.0,0.0,0.0,0.0,0.0,0.0,0.0,0.0,0.0,0.0,0.0,0.0,0.0,0.0,0.0,0.0,0.0,0.0,0.0,0.0,0.0,0.0,0.0,0.0,0.0,0.0,0.0,0.0,0.0,0.0,0.0,0.0,0.0,0.0,0.0,0.0,0.0,0.0,0.0,0.0,0.0,0.0,0.0,0.0,0.0,0.0,0.0,0.0,0.0,0.0,0.0,0.0,0.0,0.0,0.0,0.0,0.0,0.0,0.0,0.0,0.0,0.0,0.0,0.0,0.0,0.0,-0.3789,0.0,0.0,0.0,0.0,0.0,0.0,0.0,0.0,0.0,0.0,0.0,0.0,0.0,0.0,0.0,0.0,0.0,0.0,0.0,0.0,0.0,0.0,0.0,0.0,0.0,0.0,0.0,0.0,0.0,0.0,0.0,0.0,0.0,0.0,0.0,0.0,0.0,0.0,0.0,0.0,0.0,0.0,0.0,0.0,0.0,0.0,0.0,0.0,0.0,0.0,0.0,0.0,0.0,0.0,0.0,0.0,0.0,0.0,0.0,0.0,0.0,0.0,0.0,0.0,0.0,0.0,0.0,0.0,0.0,0.0,0.0,0.0,0.0,0.0,0.0,0.0,0.0,0.0,0.0,0.0,0.0,0.0,0.0,0.0,0.0,0.0,0.0,0.0,0.0,0.0,0.0,0.0,0.0,0.0,0.0,0.0,0.0,0.0,0.0,0.0,0.0,0.0,0.0,0.0,0.0,0.0,0.0,0.0,0.0,0.0,-0.4796,-0.455,-0.4549,-0.4478,-0.4333,0.0,0.0,0.0,0.0,0.0,0.0,0.0,0.0,0.0,0.0,0.0,0.0,0.0,0.0,0.0,0.0,0.0,0.0,0.0,0.0,0.0,0.0,0.0,0.0,0.0,0.0,0.0,0.0,0.0,0.0,0.0,0.0,0.0,0.0,0.0,0.0,0.0,0.0,0.0,0.0,0.0,0.0,0.0,0.0,0.0,0.0,0.0,0.0,0.0,0.0,0.0,0.0,0.0,0.0,0.0,0.0,0.0,0.0,0.0,0.0,0.0,0.0,0.0,0.0,0.0,0.0,0.0,0.0,0.0,0.0,0.0,0.0,0.0,0.0,0.0,0.0,0.0,0.0,0.0,0.0,0.0,0.0,0.0,0.0,0.0,0.0,0.0,0.0,0.0,0.0,0.0,0.0,0.0,0.0,0.0,0.0,0.0,0.0,0.0,0.0,0.0,0.0,0.0,0.0,0.0,0.0,0.0,0.0,0.0,0.0,0.0,0.0,-0.5274,-0.5115,-0.4861,0.0,0.0,0.0,0.0,0.0,0.0,0.0,0.0,0.0,0.0,0.0,0.0,0.0,0.0,0.0,0.0,0.0,0.0,0.0,0.0,0.0,0.0,0.0,0.0,0.0,0.0,0.0,0.0,0.0,0.0,0.0,0.0,0.0,0.0,0.0,0.0,0.0,0.0,0.0,0.0,0.0,0.0,0.0,0.0,0.0,0.0,0.0,0.0,0.0,0.0,0.0,0.0,0.0,0.0,0.0,0.0,0.0,0.0,0.0,0.0,0.0,0.0,0.0,0.0,0.0,0.0,0.0,0.0,0.0,0.0,0.0,0.0,0.0,0.0,0.0,0.0,0.0,0.0,0.0,0.0,0.0,0.0,0.0,0.0,0.0,0.0,0.0,0.0,0.0,0.0,0.0,0.0,0.0,0.0,0.0,0.0,0.0,0.0,0.0,0.0,0.0,0.0,0.0,0.0,0.0,0.0,0.0,0.0,0.0,0.0,-0.5699,-0.617,-0.5833,0.0,-0.5364,0.0,0.0,0.0,0.0,0.0,0.0,0.0,0.0,0.0,0.0,0.0,0.0,0.0,0.0,0.0,0.0,0.0,0.0,0.0,0.0,0.0,0.0,0.0,0.0,0.0,0.0,0.0,0.0,0.0,0.0,0.0,0.0,0.0,0.0,0.0,0.0,0.0,0.0,0.0,0.0,0.0,0.0,0.0,0.0,0.0,0.0,0.0,0.0,0.0,0.0,0.0,0.0,0.0,0.0,0.0,0.0,0.0,0.0,0.0,0.0,0.0,0.0,0.0,0.0,0.0,0.0,0.0,0.0,0.0,0.0,0.0,0.0,0.0,0.0,0.0,0.0,0.0,0.0,0.0,0.0,0.0,0.0,0.0,0.0,0.0,0.0,0.0,0.0,0.0,0.0,0.0,0.0,0.0,0.0,0.0,0.0,0.0,0.0,0.0,0.0,0.0,0.0,0.0,0.0,0.0,0.0,0.0,0.0,0.0,0.0,0.0,-0.6772,-0.6307,-0.5784,0.0,0.0,0.0,0.0,0.0,0.0,0.0,0.0,0.0,0.0,0.0,0.0,0.0,0.0,0.0,0.0,0.0,0.0,0.0,0.0,0.0,0.0,0.0,0.0,0.0,0.0,0.0,0.0,0.0,0.0,0.0,0.0,0.0,0.0,0.0,0.0,0.0,0.0,0.0,0.0,0.0,0.0,0.0,0.0,0.0,0.0,0.0,0.0,0.0,0.0,0.0,0.0,0.0,0.0,0.0,0.0,0.0,0.0,0.0,0.0,0.0,0.0,0.0,0.0,0.0,0.0,0.0,0.0,0.0,0.0,0.0,0.0,0.0,0.0,0.0,0.0,0.0,0.0,0.0,0.0,0.0,0.0,0.0,0.0,0.0,0.0,0.0,0.0,0.0,0.0,0.0,0.0,0.0,0.0,0.0,0.0,0.0,0.0,0.0,0.0,0.0,0.0,0.0,0.0,0.0,0.0,0.0,0.0,0.0,0.0,-0.6951,0.0,-0.7382,-0.6926,-0.6232,-0.5234,0.0,0.0,0.0,0.0,0.0,0.0,0.0,0.0,0.0,0.0,0.0,0.0,0.0,0.0,0.0,0.0,0.0,0.0,0.0,0.0,0.0,0.0,0.0,0.0,0.0,0.0,0.0,0.0,0.0,0.0,0.0,0.0,0.0,0.0,0.0,0.0,0.0,0.0,0.0,0.0,0.0,0.0,0.0,0.0,0.0,0.0,0.0,0.0,0.0,0.0,0.0,0.0,0.0,0.0,0.0,0.0,0.0,0.0,0.0,0.0,0.0,0.0,0.0,0.0,0.0,0.0,0.0,0.0,0.0,0.0,0.0,0.0,0.0,0.0,0.0,0.0,0.0,0.0,0.0,0.0,0.0,0.0,0.0,0.0,0.0,0.0,0.0,0.0,0.0,0.0,0.0,0.0,0.0,0.0,0.0,0.0,0.0,0.0,0.0,0.0,0.0,0.0,0.0,0.0,0.0,0.0,0.0,0.0,0.0,-0.7583,-0.7687,-0.8118,-0.7817,-0.6951,0.0,0.0,0.0,0.0,0.0,0.0,0.0,0.0,0.0,0.0,0.0,0.0,0.0,0.0,0.0,0.0,0.0,0.0,0.0,0.0,0.0,0.0,0.0,0.0,0.0,0.0,0.0,0.0,0.0,0.0,0.0,0.0,0.0,0.0,0.0,0.0,0.0,0.0,0.0,0.0,0.0,0.0,0.0,0.0,0.0,0.0,0.0,0.0,0.0,0.0,0.0,0.0,0.0,0.0,0.0,0.0,0.0,0.0,0.0,0.0,0.0,0.0,0.0,0.0,0.0,0.0,0.0,0.0,0.0,0.0,0.0,0.0,0.0,0.0,0.0,0.0,0.0,0.0,0.0,0.0,0.0,0.0,0.0,0.0,0.0,0.0,0.0,0.0,0.0,0.0,0.0,0.0,0.0,0.0,0.0,0.0,0.0,0.0,0.0,0.0,0.0,0.0,0.0,0.0,0.0,0.0,0.0,0.0,0.0,-0.6816,-0.7382,-0.7923,-0.8332,-0.7417,-0.6478,0.0,0.0,0.0,0.0,0.0,0.0,0.0,0.0,0.0,0.0,0.0,0.0,0.0,0.0,0.0,0.0,0.0,0.0,0.0,0.0,0.0,0.0,0.0,0.0,0.0,0.0,0.0,0.0,0.0,0.0,0.0,0.0,0.0,0.0,0.0,0.0,0.0,0.0,0.0,0.0,0.0,0.0,0.0,0.0,0.0,0.0,0.0,0.0,0.0,0.0,0.0,0.0,0.0,0.0,0.0,0.0,0.0,0.0,0.0,0.0,0.0,0.0,0.0,0.0,0.0,0.0,0.0,0.0,0.0,0.0,0.0,0.0,0.0,0.0,0.0,0.0,0.0,0.0,0.0,0.0,0.0,0.0,0.0,0.0,0.0,0.0,0.0,0.0,0.0,0.0,0.0,0.0,0.0,0.0,0.0,0.0,0.0,0.0,0.0,0.0,0.0,0.0,0.0,0.0,0.0,0.0,0.0,0.0,0.0,-0.7012,0.0,-0.8456,0.0,-0.7646,-0.6575,0.0,0.0,0.0,0.0,0.0,0.0,0.0,0.0,0.0,0.0,0.0,0.0,0.0,0.0,0.0,0.0,0.0,0.0,0.0,0.0,0.0,0.0,0.0,0.0,0.0,0.0,0.0,0.0,0.0,0.0,0.0,0.0,0.0,0.0,0.0,0.0,0.0,0.0,0.0,0.0,0.0,0.0,0.0,0.0,0.0,0.0,0.0,0.0,0.0,0.0,0.0,0.0,0.0,0.0,0.0,0.0,0.0,0.0,0.0,0.0,0.0,0.0,0.0,0.0,0.0,0.0,0.0,0.0,0.0,0.0,0.0,0.0,0.0,0.0,0.0,0.0,0.0,0.0,0.0,0.0,0.0,0.0,0.0,0.0,0.0,0.0,0.0,0.0,0.0,0.0,0.0,0.0,0.0,0.0,0.0,0.0,0.0,0.0,0.0,0.0,0.0,0.0,0.0,0.0,0.0,0.0,0.0,0.0,-0.7282,-0.861,-0.9249,-0.9289,-0.875,-0.8654,-0.7381,0.0,0.0,0.0,0.0,0.0,0.0,0.0,0.0,0.0,0.0,0.0,0.0,0.0,0.0,0.0,0.0,0.0,0.0,0.0,0.0,0.0,0.0,0.0,0.0,0.0,0.0,0.0,0.0,0.0,0.0,0.0,0.0,0.0,0.0,0.0,0.0,0.0,0.0,0.0,0.0,0.0,0.0,0.0,0.0,0.0,0.0,0.0,0.0,0.0,0.0,0.0,0.0,0.0,0.0,0.0,0.0,0.0,0.0,0.0,0.0,0.0,0.0,0.0,0.0,0.0,0.0,0.0,0.0,0.0,0.0,0.0,0.0,0.0,0.0,0.0,0.0,0.0,0.0,0.0,0.0,0.0,0.0,0.0,0.0,0.0,0.0,0.0,0.0,0.0,0.0,0.0,0.0,0.0,0.0,0.0,0.0,0.0,0.0,0.0,0.0,0.0,0.0,0.0,0.0,0.0,0.0,0.0,0.0,0.0,-0.8148,-0.9062,-0.9769,-1.0206,-0.8725,-0.774,0.0,0.0,0.0,0.0,0.0,0.0,0.0,0.0,0.0,0.0,0.0,0.0,0.0,0.0,0.0,0.0,0.0,0.0,0.0,0.0,0.0,0.0,0.0,0.0,0.0,0.0,0.0,0.0,0.0,0.0,0.0,0.0,0.0,0.0,0.0,0.0,0.0,0.0,0.0,0.0,0.0,0.0,0.0,0.0,0.0,0.0,0.0,0.0,0.0,0.0,0.0,0.0,0.0,0.0,0.0,0.0,0.0,0.0,0.0,0.0,0.0,0.0,0.0,0.0,0.0,0.0,0.0,0.0,0.0,0.0,0.0,0.0,0.0,0.0,0.0,0.0,0.0,0.0,0.0,0.0,0.0,0.0,0.0,0.0,0.0,0.0,0.0,0.0,0.0,0.0,0.0,0.0,0.0,0.0,0.0,0.0,0.0,0.0,0.0,0.0,0.0,0.0,0.0,0.0,0.0,0.0,0.0,0.0,0.0,-0.9439,-1.0067,-1.0597,-1.0982,-0.9461,-0.8472,-0.8113,0.0,0.0,0.0,0.0,0.0,0.0,0.0,0.0,0.0,0.0,0.0,0.0,0.0,0.0,0.0,0.0,0.0,0.0,0.0,0.0,0.0,0.0,0.0,0.0,0.0,0.0,0.0,0.0,0.0,0.0,0.0,0.0,0.0,0.0,0.0,0.0,0.0,0.0,0.0,0.0,0.0,0.0,0.0,0.0,0.0,0.0,0.0,0.0,0.0,0.0,0.0,0.0,0.0,0.0,0.0,0.0,0.0,0.0,0.0,0.0,0.0,0.0,0.0,0.0,0.0,0.0,0.0,0.0,0.0,0.0,0.0,0.0,0.0,0.0,0.0,0.0,0.0,0.0,0.0,0.0,0.0,0.0,0.0,0.0,0.0,0.0,0.0,0.0,0.0,0.0,0.0,0.0,0.0,0.0,0.0,0.0,0.0,0.0,0.0,0.0,0.0,0.0,0.0,0.0,0.0,0.0,0.0,0.0,-1.2017,-1.207,-1.1847,-1.1331,-1.0814,-0.9581,0.0,0.0,0.0,0.0,0.0,0.0,0.0,0.0,0.0,0.0,0.0,0.0,0.0,0.0,0.0,0.0,0.0,0.0,0.0,0.0,0.0,0.0,0.0,0.0,0.0,0.0,0.0,0.0,0.0,0.0,0.0,0.0,0.0,0.0,0.0,0.0,0.0,0.0,0.0,0.0,0.0,0.0,0.0,0.0,0.0,0.0,0.0,0.0,0.0,0.0,0.0,0.0,0.0,0.0,0.0,0.0,0.0,0.0,0.0,0.0,0.0,0.0,0.0,0.0,0.0,0.0,0.0,0.0,0.0,0.0,0.0,0.0,0.0,0.0,0.0,0.0,0.0,0.0,0.0,0.0,0.0,0.0,0.0,0.0,0.0,0.0,0.0,0.0,0.0,0.0,0.0,0.0,0.0,0.0,0.0,0.0,0.0,0.0,0.0,0.0,0.0,0.0,0.0,0.0,0.0,0.0,0.0,0.0,0.0,-1.2359,-1.3693,-1.4456,-1.4501,-1.2541,-1.1114,0.0,0.0,0.0,0.0,0.0,0.0,0.0,0.0,0.0,0.0,0.0,0.0,0.0,0.0,0.0,0.0,0.0,0.0,0.0,0.0,0.0,0.0,0.0,0.0,0.0,0.0,0.0,0.0,0.0,0.0,0.0,0.0,0.0,0.0,0.0,0.0,0.0,0.0,0.0,0.0,0.0,0.0,0.0,0.0,0.0,0.0,0.0,0.0,0.0,0.0,0.0,0.0,0.0,0.0,0.0,0.0,0.0,0.0,0.0,0.0,0.0,0.0,0.0,0.0,0.0,0.0,0.0,0.0,0.0,0.0,0.0,0.0,0.0,0.0,0.0,0.0,0.0,0.0,0.0,0.0,0.0,0.0,0.0,0.0,0.0,0.0,0.0,0.0,0.0,0.0,0.0,0.0,0.0,0.0,0.0,0.0,0.0,0.0,0.0,0.0,0.0,0.0,0.0,0.0,0.0,0.0,0.0,0.0,-1.1899,-1.3459,-1.5618,-1.6597,-1.627,-1.4183,-1.2451,0.0,0.0,0.0,0.0,0.0,0.0,0.0,0.0,0.0,0.0,0.0,0.0,0.0,0.0,0.0,0.0,0.0,0.0,0.0,0.0,0.0,0.0,0.0,0.0,0.0,0.0,0.0,0.0,0.0,0.0,0.0,0.0,0.0,0.0,0.0,0.0,0.0,0.0,0.0,0.0,0.0,0.0,0.0,0.0,0.0,0.0,0.0,0.0,0.0,0.0,0.0,0.0,0.0,0.0,0.0,0.0,0.0,0.0,0.0,0.0,0.0,0.0,0.0,0.0,0.0,0.0,0.0,0.0,0.0,0.0,0.0,0.0,0.0,0.0,0.0,0.0,0.0,0.0,0.0,0.0,0.0,0.0,0.0,0.0,0.0,0.0,0.0,0.0,0.0,0.0,0.0,0.0,0.0,0.0,0.0,0.0,0.0,0.0,0.0,0.0,0.0,0.0,0.0,0.0,0.0,0.0,0.0,0.0,-1.3067,-1.4788,-1.73,-1.8086,-1.6994,-1.564,-1.3645,0.0,0.0,0.0,0.0,0.0,0.0,0.0,0.0,0.0,0.0,0.0,0.0,0.0,0.0,0.0,0.0,0.0,0.0,0.0,0.0,0.0,0.0,0.0,0.0,0.0,0.0,0.0,0.0,0.0,0.0,0.0,0.0,0.0,0.0,0.0,0.0,0.0,0.0,0.0,0.0,0.0,0.0,0.0,0.0,0.0,0.0,0.0,0.0,0.0,0.0,0.0,0.0,0.0,0.0,0.0,0.0,0.0,0.0,0.0,0.0,0.0,0.0,0.0,0.0,0.0,0.0,0.0,0.0,0.0,0.0,0.0,0.0,0.0,0.0,0.0,0.0,0.0,0.0,0.0,0.0,0.0,0.0,0.0,0.0,0.0,0.0,0.0,0.0,0.0,0.0,0.0,0.0,0.0,0.0,0.0,0.0,0.0,0.0,0.0,0.0,0.0,0.0,0.0,0.0,0.0,0.0,0.0,0.0,-1.3204,-1.4778,-1.6933,-1.7897,-1.7533,-1.6263,-1.4345,0.0,0.0,0.0,0.0,0.0,0.0,0.0,0.0,0.0,0.0,0.0,0.0,0.0,0.0,0.0,0.0,0.0,0.0,0.0,0.0,0.0,0.0,0.0,0.0,0.0,0.0,0.0,0.0,0.0,0.0,0.0,0.0,0.0,0.0,0.0,0.0,0.0,0.0,0.0,0.0,0.0,0.0,0.0,0.0,0.0,0.0,0.0,0.0,-0.5855,0.0,0.0,0.0,0.0,0.0,0.0,0.0,0.0,0.0,0.0,0.0,0.0,0.0,0.0,0.0,0.0,0.0,0.0,0.0,0.0,0.0,0.0,0.0,0.0,0.0,0.0,0.0,0.0,0.0,0.0,0.0,0.0,0.0,0.0,0.0,0.0,0.0,0.0,0.0,0.0,0.0,0.0,0.0,0.0,0.0,0.0,0.0,0.0,0.0,0.0,0.0,0.0,0.0,0.0,0.0,0.0,0.0,0.0,0.0,-1.3487,-1.4855,-1.7144,-1.7921,-1.7001,-1.6775,-1.5141,0.0,0.0,0.0,0.0,0.0,0.0,0.0,0.0,0.0,0.0,0.0,0.0,0.0,0.0,0.0,0.0,0.0,0.0,0.0,0.0,0.0,0.0,0.0,0.0,0.0,0.0,0.0,0.0,0.0,0.0,0.0,0.0,0.0,0.0,0.0,0.0,0.0,0.0,0.0,0.0,0.0,0.0,0.0,0.0,0.0,0.0,0.0,0.0,0.0,0.0,0.0,0.0,0.0,0.0,0.0,0.0,0.0,0.0,0.0,0.0,0.0,0.0,0.0,0.0,0.0,0.0,0.0,0.0,0.0,0.0,0.0,0.0,0.0,0.0,0.0,0.0,0.0,0.0,0.0,0.0,0.0,0.0,0.0,0.0,0.0,0.0,0.0,0.0,0.0,0.0,0.0,0.0,0.0,0.0,0.0,0.0,0.0,0.0,0.0,0.0,0.0,0.0,0.0,0.0,0.0,0.0,0.0,-1.1855,-1.3631,-1.5031,-1.7407,-1.7861,-1.6298,-1.7122,-1.5787,-1.1973,0.0,0.0,0.0,0.0,0.0,0.0,0.0,0.0,0.0,0.0,0.0,0.0,0.0,0.0,0.0,0.0,0.0,0.0,0.0,0.0,0.0,0.0,0.0,0.0,0.0,0.0,0.0,0.0,0.0,0.0,0.0,0.0,0.0,0.0,0.0,0.0,0.0,0.0,-0.6222,-0.7163,0.0,0.0,0.0,0.0,0.0,0.0,0.0,0.0,-0.6655,0.0,0.0,0.0,0.0,0.0,0.0,0.0,0.0,0.0,0.0,0.0,0.0,0.0,0.0,0.0,0.0,0.0,0.0,0.0,0.0,0.0,0.0,0.0,0.0,0.0,0.0,0.0,0.0,0.0,0.0,0.0,0.0,0.0,0.0,0.0,0.0,0.0,0.0,0.0,0.0,0.0,0.0,0.0,0.0,0.0,0.0,0.0,0.0,0.0,0.0,0.0,0.0,0.0,0.0,0.0,0.0,-1.0223,-1.1334,-1.3045,-1.5512,-1.6876,-1.7309,-1.6809,-1.7055,-1.5506,-1.203,0.0,0.0,0.0,0.0,0.0,0.0,0.0,0.0,0.0,0.0,0.0,0.0,0.0,0.0,0.0,0.0,0.0,0.0,0.0,0.0,0.0,0.0,0.0,0.0,0.0,0.0,0.0,0.0,0.0,0.0,0.0,0.0,0.0,0.0,0.0,0.0,0.0,0.0,0.0,-0.7879,-0.853,0.0,0.0,0.0,0.0,0.0,0.0,0.0,0.0,-0.6652,0.0,0.0,0.0,0.0,0.0,0.0,0.0,0.0,0.0,0.0,0.0,0.0,0.0,0.0,0.0,0.0,0.0,0.0,0.0,0.0,0.0,0.0,0.0,0.0,0.0,0.0,0.0,0.0,0.0,0.0,0.0,0.0,0.0,0.0,0.0,0.0,0.0,0.0,0.0,0.0,0.0,0.0,0.0,0.0,0.0,0.0,0.0,0.0,0.0,0.0,0.0,0.0,0.0,0.0,0.0,-0.9932,-1.1518,-1.3406,-1.5615,-1.6623,-1.7029,-1.689,-1.6276,-1.4621,0.0,0.0,0.0,0.0,0.0,0.0,0.0,0.0,0.0,0.0,0.0,0.0,0.0,0.0,0.0,0.0,0.0,0.0,0.0,0.0,0.0,0.0,0.0,0.0,0.0,0.0,0.0,0.0,0.0,0.0,0.0,0.0,0.0,0.0,0.0,0.0,0.0,0.0,0.0,0.0,-0.8499,-0.8929,-0.9024,0.0,0.0,0.0,0.0,0.0,0.0,-0.7985,-0.7613,0.0,0.0,0.0,0.0,0.0,0.0,0.0,0.0,0.0,0.0,0.0,0.0,0.0,0.0,0.0,0.0,0.0,0.0,0.0,0.0,0.0,0.0,0.0,0.0,0.0,0.0,0.0,0.0,0.0,0.0,0.0,0.0,0.0,0.0,0.0,0.0,0.0,0.0,0.0,0.0,0.0,0.0,0.0,0.0,0.0,0.0,0.0,0.0,0.0,0.0,0.0,0.0,0.0,0.0,0.0,-0.9605,-1.162,-1.3589,-1.5433,-1.6323,-1.6735,-1.6706,-1.5506,-1.3884,0.0,0.0,0.0,0.0,0.0,0.0,0.0,0.0,0.0,0.0,0.0,0.0,0.0,0.0,0.0,0.0,0.0,0.0,0.0,0.0,0.0,0.0,0.0,0.0,0.0,0.0,0.0,0.0,0.0,0.0,0.0,0.0,0.0,0.0,0.0,0.0,0.0,0.0,0.0,0.0,0.0,-0.923,-0.9586,-0.9741,0.0,0.0,0.0,0.0,-0.9058,-0.903,0.0,0.0,0.0,0.0,0.0,0.0,0.0,0.0,0.0,0.0,0.0,0.0,0.0,0.0,0.0,0.0,0.0,0.0,0.0,0.0,0.0,0.0,0.0,0.0,0.0,0.0,0.0,0.0,0.0,0.0,0.0,0.0,0.0,0.0,0.0,0.0,0.0,0.0,0.0,0.0,0.0,0.0,0.0,0.0,0.0,0.0,0.0,0.0,0.0,0.0,0.0,0.0,0.0,0.0,0.0,0.0,-0.9569,-1.091,-1.2621,-1.4721,-1.5728,-1.6171,-1.6106,-1.5437,-1.3964,0.0,0.0,0.0,0.0,0.0,0.0,0.0,0.0,0.0,0.0,0.0,0.0,0.0,0.0,0.0,0.0,0.0,0.0,0.0,0.0,0.0,0.0,0.0,0.0,0.0,0.0,0.0,0.0,0.0,0.0,0.0,0.0,0.0,0.0,0.0,0.0,0.0,0.0,0.0,0.0,0.0,-0.9528,-0.8849,-1.0042,-1.0708,0.0,0.0,-1.0903,-1.0578,-1.0887,0.0,0.0,0.0,0.0,0.0,0.0,0.0,0.0,0.0,0.0,0.0,0.0,0.0,0.0,0.0,0.0,0.0,0.0,0.0,0.0,0.0,0.0,0.0,0.0,0.0,0.0,0.0,0.0,0.0,0.0,0.0,0.0,0.0,0.0,0.0,0.0,0.0,0.0,0.0,0.0,0.0,0.0,0.0,0.0,0.0,0.0,0.0,0.0,0.0,0.0,0.0,0.0,0.0,0.0,0.0,-0.7789,-0.9739,-1.1362,-1.314,-1.507,-1.5647,-1.6066,-1.6372,-1.4714,-1.3136,0.0,0.0,0.0,0.0,0.0,0.0,0.0,0.0,0.0,0.0,0.0,0.0,0.0,0.0,0.0,0.0,0.0,0.0,0.0,0.0,0.0,0.0,0.0,0.0,0.0,0.0,0.0,0.0,0.0,0.0,0.0,0.0,0.0,0.0,0.0,0.0,0.0,0.0,0.0,0.0,0.0,0.0,-1.0725,-1.119,0.0,0.0,0.0,-1.2205,-1.1975,0.0,0.0,0.0,0.0,0.0,0.0,0.0,0.0,0.0,0.0,0.0,0.0,0.0,0.0,0.0,0.0,0.0,0.0,0.0,0.0,0.0,0.0,0.0,0.0,0.0,0.0,0.0,0.0,0.0,0.0,0.0,0.0,0.0,0.0,0.0,0.0,0.0,0.0,0.0,0.0,0.0,0.0,0.0,0.0,0.0,0.0,0.0,0.0,0.0,0.0,0.0,0.0,0.0,0.0,0.0,0.0,0.0,-0.988,-1.1804,-1.3582,-1.518,-1.5622,-1.6009,-1.6413,-1.4244,0.0,0.0,0.0,0.0,0.0,0.0,0.0,0.0,0.0,0.0,0.0,0.0,0.0,0.0,0.0,0.0,0.0,0.0,0.0,0.0,0.0,0.0,0.0,0.0,0.0,0.0,0.0,-0.3648,0.0,0.0,0.0,0.0,0.0,0.0,0.0,0.0,0.0,0.0,0.0,0.0,0.0,0.0,-1.1827,-1.2495,-1.2548,-1.2822,0.0,0.0,-1.3492,-1.3103,-1.2912,-1.2396,0.0,0.0,0.0,0.0,0.0,0.0,0.0,0.0,0.0,0.0,0.0,0.0,0.0,0.0,0.0,0.0,0.0,0.0,0.0,0.0,0.0,0.0,0.0,0.0,0.0,0.0,0.0,0.0,0.0,0.0,0.0,0.0,0.0,0.0,0.0,0.0,0.0,0.0,0.0,0.0,0.0,0.0,0.0,0.0,0.0,0.0,0.0,0.0,0.0,0.0,0.0,0.0,0.0,0.0,0.0,-0.9881,-1.1818,-1.3387,-1.4549,-1.5373,-1.5814,-1.5829,-1.4468,-1.3037,0.0,0.0,0.0,0.0,0.0,0.0,0.0,0.0,0.0,0.0,0.0,0.0,0.0,0.0,0.0,0.0,0.0,0.0,0.0,0.0,0.0,0.0,0.0,0.0,0.0,0.0,0.0,0.0,0.0,0.0,0.0,0.0,0.0,0.0,0.0,0.0,0.0,0.0,0.0,0.0,0.0,-1.202,-1.3168,-1.3998,-1.4333,0.0,0.0,-1.474,-1.3863,-1.4736,-1.4466,-1.1351,0.0,0.0,0.0,0.0,0.0,0.0,0.0,0.0,0.0,0.0,0.0,0.0,0.0,0.0,0.0,0.0,0.0,0.0,0.0,0.0,0.0,0.0,0.0,0.0,0.0,0.0,0.0,0.0,0.0,0.0,0.0,0.0,0.0,0.0,0.0,0.0,0.0,0.0,0.0,0.0,0.0,0.0,0.0,0.0,0.0,0.0,0.0,0.0,0.0,0.0,0.0,0.0,0.0,-0.8248,-1.0297,-1.1964,-1.3459,-1.4819,-1.5492,-1.5814,-1.5799,-1.4498,-1.3133,0.0,0.0,0.0,0.0,0.0,0.0,0.0,0.0,0.0,0.0,0.0,0.0,0.0,0.0,0.0,0.0,0.0,0.0,0.0,0.0,0.0,0.0,0.0,0.0,0.0,0.0,0.0,0.0,-0.5944,-0.6639,-0.6265,0.0,0.0,0.0,0.0,0.0,0.0,0.0,0.0,0.0,0.0,-1.3718,-1.4622,-1.5102,0.0,0.0,-1.4995,-1.4962,-1.5019,-1.4781,-1.4089,-1.2679,-1.1892,0.0,0.0,0.0,0.0,0.0,0.0,0.0,0.0,0.0,0.0,0.0,0.0,0.0,0.0,0.0,0.0,0.0,0.0,0.0,0.0,0.0,0.0,0.0,0.0,0.0,0.0,0.0,0.0,0.0,0.0,0.0,0.0,0.0,0.0,0.0,0.0,0.0,0.0,0.0,0.0,0.0,0.0,0.0,0.0,0.0,0.0,0.0,0.0,0.0,0.0,0.0,0.0,-0.8587,-1.0583,-1.2223,-1.3713,-1.5075,-1.5551,-1.5814,-1.5784,-1.4706,-1.3466,0.0,0.0,0.0,0.0,0.0,0.0,0.0,0.0,0.0,0.0,0.0,0.0,0.0,0.0,0.0,0.0,0.0,0.0,0.0,0.0,0.0,0.0,0.0,0.0,0.0,0.0,0.0,0.0,-0.6867,-0.7443,-0.6787,0.0,0.0,0.0,0.0,0.0,0.0,0.0,0.0,0.0,0.0,-1.5071,-1.5721,-1.5972,-1.606,-1.599,-1.5478,-1.526,-1.5724,-1.5101,-1.4343,-1.3841,0.0,0.0,0.0,0.0,0.0,0.0,0.0,0.0,0.0,0.0,0.0,0.0,0.0,0.0,0.0,0.0,0.0,0.0,0.0,0.0,0.0,0.0,0.0,0.0,0.0,0.0,0.0,-0.6904,0.0,0.0,-0.6569,0.0,0.0,0.0,0.0,0.0,0.0,0.0,0.0,0.0,0.0,0.0,0.0,0.0,0.0,0.0,0.0,0.0,0.0,0.0,0.0,0.0,0.0,-0.9064,-1.0597,-1.2651,-1.4135,-1.509,-1.5566,-1.5814,-1.5799,-1.5125,-1.4137,-1.2786,0.0,0.0,0.0,0.0,0.0,0.0,0.0,0.0,0.0,0.0,0.0,0.0,0.0,0.0,0.0,0.0,0.0,0.0,0.0,0.0,0.0,0.0,0.0,0.0,0.0,0.0,-0.6259,-0.7191,-0.7522,0.0,0.0,0.0,0.0,0.0,0.0,0.0,0.0,0.0,0.0,-1.464,-1.5747,-1.6255,-1.6577,-1.6709,-1.6459,-1.6065,-1.5799,-1.5843,-1.6051,-1.5787,0.0,0.0,0.0,0.0,0.0,0.0,0.0,0.0,0.0,0.0,0.0,0.0,0.0,0.0,0.0,0.0,0.0,0.0,0.0,0.0,0.0,0.0,0.0,0.0,0.0,0.0,0.0,-0.9488,-0.8402,0.0,0.0,0.0,0.0,0.0,0.0,0.0,0.0,0.0,0.0,0.0,-1.2124,-1.269,0.0,0.0,0.0,0.0,0.0,0.0,0.0,0.0,0.0,0.0,0.0,0.0,-1.0092,-1.1838,-1.3341,-1.4573,-1.5536,-1.5711,-1.5814,-1.5784,-1.5155,-1.3957,-1.2179,0.0,0.0,0.0,0.0,0.0,0.0,0.0,0.0,0.0,0.0,0.0,0.0,0.0,0.0,0.0,0.0,0.0,0.0,0.0,0.0,0.0,0.0,0.0,0.0,0.0,-0.6655,0.0,0.0,0.0,0.0,0.0,0.0,0.0,0.0,0.0,0.0,0.0,-1.3225,-1.4666,-1.5716,-1.6817,-1.8093,-1.8046,-1.796,0.0,0.0,0.0,0.0,0.0,0.0,0.0,0.0,0.0,0.0,0.0,0.0,0.0,0.0,-1.5186,-1.2997,-1.1982,-1.1679,-1.2462,0.0,0.0,0.0,0.0,0.0,0.0,0.0,0.0,0.0,0.0,0.0,0.0,0.0,0.0,-1.1643,0.0,-1.0325,0.0,0.0,0.0,0.0,0.0,0.0,0.0,0.0,-1.2964,-1.3824,-1.3839,-1.4385,-1.4439,0.0,-1.3704,-1.2636,0.0,0.0,0.0,0.0,0.0,0.0,0.0,0.0,-1.1583,-1.3176,-1.457,-1.5551,-1.608,-1.6113,-1.6024,-1.5784,-1.5155,-1.3972,-1.2194,-1.0624,-0.9564,0.0,0.0,0.0,0.0,0.0,0.0,0.0,0.0,0.0,0.0,0.0,0.0,0.0,0.0,0.0,0.0,0.0,0.0,0.0,0.0,0.0,0.0,0.0,-0.7663,0.0,0.0,0.0,0.0,0.0,0.0,0.0,0.0,0.0,-1.3655,-1.4304,-1.5248,-1.6563,-1.7382,-1.8268,-1.9384,0.0,0.0,0.0,0.0,0.0,0.0,0.0,-1.7024,-1.7247,-1.7329,-1.7496,-1.7866,-1.7712,-1.7557,-1.7588,0.0,0.0,-1.4845,-1.379,-1.3486,-1.4214,-1.3665,-1.3278,-1.4014,-1.4166,-1.4116,0.0,0.0,0.0,0.0,0.0,0.0,0.0,0.0,-1.3611,-1.3449,0.0,-1.2662,0.0,0.0,0.0,0.0,0.0,-1.2146,0.0,0.0,-1.5397,-1.6454,-1.6428,-1.5944,-1.6184,-1.699,-1.6099,-1.5328,-1.4562,-1.259,0.0,0.0,0.0,0.0,0.0,0.0,-1.343,-1.4567,-1.6214,-1.6981,-1.6739,-1.6713,-1.6428,-1.5814,-1.514,-1.4182,-1.2909,-1.2175,-1.1236,-1.0009,-0.8574,0.0,0.0,0.0,0.0,0.0,0.0,0.0,0.0,0.0,0.0,0.0,0.0,0.0,0.0,0.0,0.0,0.0,0.0,0.0,0.0,-0.7759,0.0,0.0,0.0,0.0,0.0,0.0,0.0,0.0,0.0,0.0,-1.671,-1.7084,-1.7731,-1.8766,0.0,0.0,0.0,0.0,-1.9419,-1.9047,-1.8711,-1.8331,-1.7809,-1.8004,-1.8223,-1.8269,0.0,0.0,-1.907,-1.9215,-1.9287,-1.9012,-1.9169,-1.894,-1.7607,-1.6374,-1.5856,-1.6475,-1.5528,-1.4902,-1.5477,-1.568,-1.5544,-1.7102,0.0,0.0,0.0,0.0,-1.5445,-1.5625,-1.6031,-1.5665,-1.4875,-1.3853,-1.4037,0.0,0.0,0.0,0.0,0.0,0.0,-1.3629,-1.4438,-1.5454,-1.6115,-1.6468,-1.6334,-1.6431,-1.6643,-1.6397,-1.5975,-1.5427,-1.5466,-1.3872,-1.0796,0.0,0.0,0.0,0.0,-1.4693,-1.6036,-1.7027,-1.7494,-1.741,-1.695,-1.6413,-1.5814,-1.5155,-1.4616,-1.4227,-1.3133,-1.213,-1.1291,-0.9973,0.0,0.0,0.0,0.0,0.0,0.0,0.0,0.0,0.0,0.0,0.0,0.0,0.0,0.0,0.0,0.0,0.0,0.0,0.0,-0.7249,-0.8253,-0.92,0.0,0.0,0.0,0.0,0.0,0.0,0.0,0.0,0.0,-1.9114,-1.8784,-1.8756,0.0,0.0,-2.0217,-2.0771,-2.0773,-2.0639,-2.0427,-2.0305,0.0,-1.8596,-1.8687,-1.9044,-1.9434,-2.0586,-2.1429,-2.1336,-2.138,-2.1245,-2.0666,-2.0463,-2.012,-1.9341,-1.8102,-1.7326,-1.7371,-1.6712,-1.635,-1.6982,-1.7174,-1.7117,-1.8644,-1.6902,-1.7242,-1.7491,-1.7657,-1.7561,-1.7775,-1.8145,-1.7834,-1.7182,-1.6343,-1.6217,-1.517,-1.3526,-1.322,0.0,0.0,0.0,-1.467,-1.5575,-1.5869,-1.6195,-1.6488,-1.6513,-1.6513,-1.6513,-1.6513,-1.6553,-1.6657,-1.7238,-1.6257,-1.3859,0.0,0.0,-1.4194,-1.5226,-1.6338,-1.7456,-1.816,-1.8359,-1.8094,-1.7182,-1.6548,-1.6159,-1.553,-1.496,-1.4423,-1.3643,-1.2774,-1.1835,-1.0817,-0.9695,0.0,0.0,0.0,0.0,0.0,0.0,0.0,0.0,0.0,0.0,0.0,-0.4991,0.0,0.0,0.0,0.0,-0.6382,-0.7687,-0.8999,-1.0077,0.0,0.0,0.0,0.0,0.0,0.0,0.0,-1.6549,-1.8334,-1.9763,-2.0396,-2.0357,-2.0403,-2.0859,-2.0927,-2.1096,-2.1566,0.0,-2.1515,-2.1211,-2.1087,-2.0556,-1.9293,-1.9267,-1.9609,-2.0289,-2.1289,-2.2075,-2.2282,-2.2313,-2.2141,-2.1735,-2.1498,-2.1211,-2.0602,-1.9739,-1.891,-1.8352,-1.7659,-1.732,-1.7726,-1.7789,-1.7789,-1.959,-1.9163,-1.9598,-1.9784,-1.9803,-1.976,-1.9724,-1.9738,-1.968,-1.9658,-1.9609,-1.868,-1.7668,-1.6619,-1.5101,0.0,-1.513,-1.5605,-1.607,-1.65,-1.6513,-1.6513,-1.6513,-1.6513,-1.6513,-1.6513,-1.6513,-1.7034,-1.7973,-1.8072,-1.7993,-1.7796,-1.7217,-1.6875,-1.6816,-1.7428,-1.8113,-1.8767,-1.9329,-1.9304,-1.8636,-1.7417,-1.6771,-1.6681,-1.6069,-1.5125,-1.3947,-1.3767,-1.3151,-1.1954,-1.1181,-1.0374,-0.9441,0.0,0.0,0.0,0.0,0.0,0.0,0.0,0.0,0.0,0.0,0.0,0.0,0.0,0.0,0.0,-0.905,0.0,-1.1214,-1.2609,0.0,0.0,0.0,-1.5011,-1.5866,-1.7157,-1.7986,-1.8036,0.0,0.0,-2.097,-2.1718,-2.2313,-2.2313,-2.2313,-2.2313,-2.2313,-2.2279,-2.2077,-2.146,-2.1166,-2.0682,-1.9811,-1.9758,-2.011,-2.083,-2.1369,-2.1855,-2.2209,-2.2313,-2.2313,-2.2262,-2.2296,-2.209,-2.138,-2.1156,-2.0767,-1.9362,-1.8521,-1.7986,-1.7969,-1.7952,-1.7935,-2.0397,-2.0258,-1.9926,-1.9801,-1.9773,-1.936,-1.918,-1.9171,-1.875,-1.8577,-1.8588,-1.8744,-1.8657,-1.8346,-1.7581,-1.7061,-1.682,-1.6945,-1.681,-1.6513,-1.6513,-1.6513,-1.6513,-1.6513,-1.6513,-1.6513,-1.6513,-1.6837,-1.7497,-1.7907,-1.8264,-1.8626,-1.8838,-1.8461,-1.7518,-1.8132,-1.8796,-1.9466,-1.9214,-1.8767,-1.8112,-1.7676,-1.7219,-1.6711,-1.562,-1.4901,-1.4558,-1.3568,-1.2894,-1.2564,-1.1446,-1.0927,-1.1157,-0.909,0.0,0.0,0.0,0.0,0.0,0.0,0.0,0.0,0.0,-0.794,-0.6546,0.0,-0.8326,0.0,-1.0646,-1.206,-1.2778,-1.3701,0.0,0.0,-1.6079,-1.6915,-1.8735,-1.927,-1.9625,-2.0044,-2.1262,-2.2023,-2.1955,-2.2144,-2.2313,-2.2313,-2.2313,-2.2313,-2.2313,-2.2313,-2.2077,-2.1491,-2.1166,-2.0682,-1.9942,-2.0277,-2.0731,-2.0959,-2.1598,-2.218,-2.2282,-2.2313,-2.2313,-2.2313,-2.2313,-2.2226,-2.2057,-2.16,-2.114,-2.0683,-2.0027,-1.9304,-1.8775,-1.8623,-1.8471,-2.1056,-2.1006,-2.0413,-2.0195,-2.0154,-1.9592,-1.9368,-1.932,-1.903,-1.8907,-1.8932,-1.8969,-1.8879,-1.8624,-1.8333,-1.8041,-1.7752,-1.7752,-1.7576,-1.724,-1.7002,-1.6898,-1.6886,-1.6635,-1.6513,-1.6513,-1.6513,-1.6774,-1.7312,-1.7847,-1.838,-1.8926,-1.9424,-1.9316,-1.8642,-1.8972,-1.9239,-1.9335,-1.8827,-1.8489,-1.8323,-1.7704,-1.7277,-1.7114,-1.5904,-1.4975,-1.4363,-1.363,-1.2984,-1.237,-1.1645,-1.1271,-1.1331,-0.9985,-0.9068,0.0,0.0,0.0,0.0,0.0,0.0,0.0,0.0,0.0,0.0,0.0,-1.0455,-1.1124,-1.2727,-1.4015,-1.4721,-1.5929,-1.7003,-1.7821,-1.8389,-1.9193,-2.0416,-2.0826,-2.1147,-2.1448,-2.1955,-2.2313,-2.2313,-2.2313,-2.2313,-2.2313,-2.2313,-2.2313,-2.2313,-2.2313,-2.2032,-2.1354,-2.1086,-2.0698,-1.9836,-2.026,-2.0682,-2.0732,-2.126,-2.1721,-2.1736,-2.1825,-2.1913,-2.1988,-2.2149,-2.2313,-2.2279,-2.1992,-2.1701,-2.1634,-2.1346,-2.064,-1.9625,-1.913,-1.8741,-2.1594,-2.1543,-2.1018,-2.0792,-2.0754,-2.0162,-1.9874,-1.9798,-1.9798,-1.9798,-1.9773,-1.9321,-1.8832,-1.8417,-1.8405,-1.838,-1.8317,-1.8281,-1.8279,-1.8179,-1.7702,-1.7451,-1.7385,-1.6861,-1.6575,-1.6513,-1.6513,-1.6774,-1.7291,-1.7767,-1.8288,-1.8893,-1.9314,-1.953,-1.9603,-1.9617,-1.9325,-1.8798,-1.8464,-1.8442,-1.8765,-1.7705,-1.7311,-1.7637,-1.6473,-1.517,-1.3872,-1.3797,-1.3226,-1.2025,-1.2014,-1.176,-1.1106,-1.0977,-1.0428,0.0,-0.9182,0.0,0.0,0.0,0.0,0.0,0.0,0.0,0.0,-1.2088,-1.2957,-1.3655,-1.507,-1.6196,-1.6738,-1.8404,-1.9465,-1.9511,-2.0486,-2.1204,-2.1262,-2.1821,-2.2237,-2.2296,-2.2313,-2.2313,-2.2313,-2.2313,-2.2313,-2.2313,-2.2313,-2.2313,-2.2296,-2.2223,-2.1886,-2.1071,-2.0878,-2.0481,-1.9907,-2.0052,-2.0314,-2.035,-2.0813,-2.1055,-2.1134,-2.1385,-2.1552,-2.1643,-2.2003,-2.2268,-2.224,-2.2237,-2.2279,-2.2245,-2.2195,-2.1738,-2.0504,-1.9739,-1.9159,-2.2159,-2.2108,-2.1556,-2.133,-2.1307,-2.0767,-2.0251,-1.9798,-1.9798,-1.9798,-1.9786,-1.9685,-1.9597,-1.9497,-1.951,-1.9246,-1.8857,-1.8845,-1.8607,-1.8204,-1.8103,-1.7815,-1.741,-1.7275,-1.6974,-1.6525,-1.6513,-1.6774,-1.7312,-1.7415,-1.7933,-1.8874,-1.8574,-1.8631,-1.9024,0.0,0.0,0.0,-1.8993,-1.9016,-1.8308,-1.8335,-1.8153,-1.7682,-1.6458,0.0,-1.3885,-1.3797,-1.3436,-1.2684,-1.3121,0.0,0.0,0.0,0.0,0.0,0.0,0.0,0.0,0.0,0.0,0.0,-1.2628,-1.2999,-1.3241,-1.4686,-1.5681,-1.5914,-1.7415,-1.8401,-1.837,-1.9219,-1.9805,-1.9836,-2.0537,-2.1158,-2.1475,-2.165,-2.1884,-2.2254,-2.2313,-2.2296,-2.2282,-2.2313,-2.2296,-2.2296,-2.2313,-2.2313,-2.2282,-2.1972,-2.146,-2.0796,-2.0326,-1.9927,-1.9744,-2.0019,-2.0263,-2.0399,-2.0991,-2.1399,-2.1445,-2.1796,-2.1959,-2.1688,-2.1972,-2.2149,-2.184,-2.2034,-2.2313,-2.2313,-2.2313,-2.204,-2.116,-2.0869,-2.0412,-2.2694,0.0,-2.2121,-2.1895,0.0,-2.1333,-2.0903,-2.0589,-2.0037,-1.9798,-1.9798,-1.9798,-1.9798,-1.9798,-1.9798,-1.966,-1.9409,-1.9384,-1.9233,-1.8982,-1.8731,-1.8444,-1.8179,-1.7639,-1.7237,-1.6936,-1.6638,-1.6637,-1.6909,-1.7167,-1.7565,-1.8106,-1.8092,-1.823,-1.8496,-1.8516,-1.8361,-1.8092,-1.8112,-1.8125,-1.8098,-1.7978,-1.7993,-1.8145,-1.6937,0.0,0.0,0.0,0.0,0.0,0.0,0.0,0.0,0.0,0.0,-1.2777,-1.2467,-1.2437,-1.2762,-1.2792,-1.3211,-1.4212,-1.5485,-1.5935,-1.5293,-1.6348,-1.7196,-1.7562,-1.8694,-1.9369,-1.9271,-1.9763,-2.0097,-2.0128,-2.0639,-2.1086,-2.126,-2.1323,-2.14,-2.1616,-2.1661,-2.1736,-2.1928,-2.1974,-2.2046,-2.2268,-2.2313,-2.2209,-2.1988,-2.1748,-2.1337,-2.0582,-2.0032,-1.9708,-1.9726,-1.9839,-2.0017,-2.0104,-2.0533,-2.0894,-2.0943,-2.1337,-2.1615,-2.1583,-2.166,-2.1676,-2.1959,-2.2135,-2.2313,-2.2313,-2.2313,-2.2195,-2.1786,-2.1461,-2.0917,-2.3095,-2.307,-2.2619,-2.2431,-2.241,-2.187,-2.1581,-2.1418,0.0,0.0,0.0,-1.9849,-1.9798,-1.9798,-1.9798,-1.9798,-1.9798,-1.9798,-1.9798,-1.9773,-1.9334,-1.9096,-1.8958,-1.8091,-1.7576,-1.7385,-1.6898,-1.6622,-1.6522,-1.6951,-1.7209,-1.7312,-1.7646,-1.7867,-1.7933,-1.7867,-1.7867,-1.7913,-1.7188,-1.7146,-1.7933,-1.7589,-1.777,-1.8532,-1.7574,-1.6712,-1.5979,-1.5559,-1.5007,-1.4365,-1.4425,-1.434,-1.4065,-1.4022,-1.3977,-1.3871,-1.3948,-1.412,-1.4292,-1.4425,-1.5007,-1.6233,-1.7791,-1.8237,-1.713,-1.7652,-1.8281,-1.8837,-1.9393,-1.9708,-1.9723,-1.9982,-2.0177,-2.0195,-2.0516,-2.078,-2.0862,-2.0878,-2.091,-2.0975,-2.1039,-2.1166,-2.1552,-2.1628,-2.1779,-2.218,-2.2194,-2.1959,-2.1506,-2.1321,-2.1023,-2.0297,-1.9892,-1.9723,-1.9708,-1.9726,-1.9723,-1.9762,-2.0054,-2.0314,-2.0466,-2.0878,-2.1275,-2.1568,-2.1275,-2.1385,-2.1974,-2.2135,-2.2209,-2.2265,-2.2313,-2.2313,-2.2245,-2.1734,-2.1149,-2.3095,-2.3095,-2.302,-2.2982,-2.2945,-2.2406,-2.1933,-2.1471,-2.0842,-2.0578,-2.0541,-2.0024,-1.9798,-1.9798,-1.9798,-1.9798,-1.9798,-1.9798,-1.9798,-1.9798,-1.9736,-1.9434,-1.9008,-1.8845,-1.8292,-1.7436,-1.731,-1.6999,-1.6572,-1.6586,-1.6858,-1.7188,-1.6921,-1.6972,-1.7333,-1.6951,-1.6951,-1.7381,-1.7727,-1.7727,-1.7422,-1.8204,-1.8448,-1.8025,-1.8286,-1.7833,-1.6637,-1.7026,-1.698,-1.6353,-1.6831,-1.6484,-1.5022,-1.492,-1.466,-1.4154,-1.4587,-1.5315,-1.6219,-1.6816,-1.7489,-1.8208,-1.8553,-1.8612,-1.8461,-1.9031,-1.945,-1.9573,-1.9648,-1.9723,-1.9708,-1.9764,-1.9833,-1.9815,-1.9854,-2.0015,-2.0364,-2.0399,-2.0533,-2.0878,-2.1007,-2.1134,-2.1476,-2.1583,-2.1735,-2.2106,-2.1884,-2.1398,-2.0765,-2.0484,-2.028,-1.9909,-1.9762,-1.9723,-1.9723,-1.9723,-1.9723,-1.9723,-2.0019,-2.0416,-2.0715,-2.1478,-2.1871,-2.1658,-2.1354,-2.1291,-2.169,-2.1703,-2.1913,-2.2209,-2.2313,-2.2313,-2.2313,-2.1881,-2.1439,-2.3095,-2.3095,-2.3095,-2.3095,-2.3083,-2.2832,-2.2581,-2.2305,-2.1794,-2.1232,-2.0679,-2.0402,-2.0126,-1.9811,-1.9798,-1.9798,-1.9798,-1.9798,-1.9798,-1.9798,-1.9798,-1.9673,-1.9409,-1.9158,-1.8732,-1.8267,-1.7674,-1.7272,-1.6986,-1.6685,-1.6616,-1.6837,-1.6616,-1.6774,-1.7229,-1.6752,-1.6752,-1.7291,-1.725,-1.725,-1.7312,-1.8052,-1.8432,-1.8442,-1.8638,-1.8433,-1.7818,-1.7743,-1.7564,-1.7264,-1.7243,-1.6897,-1.6135,-1.5785,-1.564,-1.563,-1.592,-1.6401,-1.7188,-1.7863,-1.8371,-1.8702,-1.9046,-1.9226,-1.9226,-1.9543,-1.9708,-1.9723,-1.9723,-1.9723,-1.9723,-1.9723,-1.9723,-1.9723,-1.9723,-1.9782,-1.9912,-1.9982,-2.007,-2.0277,-2.0483,-2.0781,-2.1213,-2.1275,-2.143,-2.1796,-2.1352,-2.0732,-2.0348,-2.0106,-1.9912,-1.9747,-1.9723,-1.9723,-1.9723,-1.9723,-1.9723,-1.9723,-2.0052,-2.0348,-2.0666,-2.1492,-2.1974,-2.1718,-2.163,-2.1781,-2.1957,-2.1988,-2.2092,-2.2194,-2.2313,-2.2313,-2.2268,-2.2104,-2.1756,-2.3095,-2.3095,-2.3095,-2.3095,-2.3078,-2.2884,-2.2823,-2.2774,-2.2377,-2.156,-2.0557,-2.0467,-2.0188,-1.9764,-1.9615,-1.9566,-1.9579,-1.9721,-1.9798,-1.9798,-1.9798,-1.9798,-1.9761,-1.9346,-1.9121,-1.8933,-1.813,-1.7649,-1.7373,-1.6923,-1.6626,-1.6513,-1.6513,-1.671,-1.7084,-1.671,-1.6701,-1.7076,-1.671,-1.671,-1.7105,-1.7767,-1.8288,-1.8679,-1.8865,-1.8927,-1.8897,-1.8331,-1.7965,-1.7948,-1.7456,-1.7068,-1.6821,-1.654,-1.6488,-1.676,-1.7016,-1.7466,-1.8097,-1.861,-1.8927,-1.8942,-1.939,-1.9708,-1.9723,-1.9723,-1.9723,-1.9723,-1.9723,-1.9723,-1.9723,-1.9723,-1.9723,-1.9723,-1.9723,-1.9708,-1.9708,-1.9723,-1.9723,-1.9744,-1.9997,-2.0365,-2.0829,-2.0894,-2.0959,-2.1118,-2.0699,-2.0314,-2.0158,-1.9874,-1.9726,-1.9723,-1.9723,-1.9723,-1.9723,-1.9723,-1.9723,-1.9726,-1.9929,-2.0143,-2.0416,-2.1166,-2.1705,-2.1552,-2.1972,-2.2194,-2.2251,-2.2163,-2.2163,-2.2237,-2.2313,-2.2257,-2.2072,-2.2183,-2.1978,-2.3078,-2.3095,-2.3047,-2.3095,-2.2944,-2.2322,-2.2013,-2.2002,-2.1942,-2.1105,-1.992,-1.9712,-1.9662,-1.953,-1.9075,-1.8859,-1.89,-1.9501,-1.9798,-1.9798,-1.9798,-1.9798,-1.9798,-1.9736,-1.9497,-1.9058,-1.8857,-1.8317,-1.7501,-1.7348,-1.7036,-1.6563,-1.6513,-1.6543,-1.6573,-1.6543,-1.6543,-1.6586,-1.6509,-1.6522,-1.6637,-1.7565,-1.8145,-1.8185,-1.9111,-1.9618,-1.9519,-1.9093,-1.878,-1.8739,-1.8247,-1.7528,-1.6719,-1.6937,-1.6932,-1.6482,-1.7395,-1.842,-1.9385,-1.9588,-1.9588,-1.9618,-1.9648,-1.9723,-1.9723,-1.9723,-1.9723,-1.9723,-1.9723,-1.9723,-1.9723,-1.9723,-1.9723,-1.9723,-1.9723,-1.9723,-1.9723,-1.9723,-1.9723,-1.9723,-1.9782,-2.0067,-2.0747,-2.0649,-2.0416,-2.0483,-2.0365,-2.0124,-1.9889,-1.9764,-1.9723,-1.9723,-1.9723,-1.9723,-1.9723,-1.9723,-1.9723,-1.9708,-1.9744,-1.9909,-2.0176,-2.0174,-2.0227,-2.1431,-2.1988,-2.2282,-2.2209,-2.2003,-2.1884,-2.2209,-2.2271,-2.2142,-2.1735,-2.1927,-2.195,-2.2519,-2.1963,-2.1733,-2.1604,-2.1573,-2.1259,-2.1144,-2.1132,-2.1132,-2.0785,-2.0178,-1.9365,-1.8962,-1.8804,-1.8736,-1.87,-1.8753,-1.9449,-1.9798,-1.9798,-1.9798,-1.9798,-1.9798,-1.9798,-1.9673,-1.9447,-1.9146,-1.877,-1.8293,-1.7714,-1.7087,-1.6563,-1.6513,-1.6513,-1.6513,-1.6513,-1.6513,-1.6513,-1.6513,-1.6513,-1.6586,-1.725,-1.7787,-1.8131,-1.8822,-1.9225,-1.9207,-1.9006,-1.8746,-1.8438,-1.7907,-1.7437,-1.7009,-1.6888,-1.699,-1.7363,-1.8415,-1.9248,-1.9675,-1.9723,-1.9723,-1.9723,-1.9723,-1.9723,-1.9723,-1.9723,-1.9723,-1.9723,-1.9723,-1.9723,-1.9723,-1.9723,-1.9723,-1.9723,-1.9723,-1.9723,-1.9723,-1.9723,-1.9723,-1.9708,-1.9927,-2.0158,-2.0482,-2.0433,-2.0195,-2.0002,-1.9945,-1.9889,-1.9726,-1.9723,-1.9723,-1.9723,-1.9723,-1.9723,-1.9723,-1.9723,-1.9723,-1.9723,-1.9723,-1.9818,-1.9856,-1.9854,-2.0085,-2.1086,-2.1766,-2.2211,-2.2313,-2.2194,-2.2106,-2.2313,-2.2299,-2.2204,-2.1974,-2.2128,-2.211,-2.188,-2.1207,-2.076,-2.059,-2.059,-2.0333,-2.0236,-2.0236,-2.0236,-2.0107,-1.9803,-1.8966,-1.8321,-1.7954,-1.8171,-1.8317,-1.8486,-1.9176,-1.9605,-1.9773,-1.9798,-1.9798,-1.9798,-1.9798,-1.9798,-1.9736,-1.9396,-1.9146,-1.8895,-1.7915,-1.7162,-1.6785,-1.6575,-1.6513,-1.6513,-1.6513,-1.6513,-1.6513,-1.6513,-1.6513,-1.6565,-1.6879,-1.7401,-1.8066,-1.8477,-1.876,-1.8893,-1.8626,-1.8288,-1.7907,-1.736,-1.7076,-1.7076,-1.6837,-1.7209,-1.823,-1.9188,-1.9723,-1.9723,-1.9723,-1.9723,-1.9723,-1.9723,-1.9723,-1.9723,-1.9723,-1.9723,-1.9723,-1.9723,-1.9723,-1.9723,-1.9723,-1.9723,-1.9723,-1.9723,-1.9723,-1.9723,-1.9723,-1.9723,-1.9744,-1.9909,-2.0141,-2.0158,-2.0212,-2.0176,-1.9818,-1.9726,-1.9723,-1.9723,-1.9723,-1.9723,-1.9723,-1.9723,-1.9723,-1.9723,-1.9723,-1.9723,-1.9723,-1.9723,-1.9723,-1.9723,-1.9723,-1.9871,-2.0715,-2.1493,-2.1945,-2.1988,-2.2049,-2.2194,-2.2268,-2.2299,-2.2312,-2.2239,-2.2308,-2.2199,-2.1241,-2.1108,-2.076,-2.0494,-2.0526,-1.9694,-1.9332,-1.9375,-1.9365,-1.8911,-1.8345,-1.8481,-1.7922,-1.6931,-1.7302,-1.7438,-1.776,-1.8536,-1.9226,-1.9773,-1.9798,-1.9798,-1.9798,-1.9798,-1.9798,-1.9798,-1.9736,-1.9472,-1.897,-1.794,-1.7398,-1.7322,-1.6785,-1.6513,-1.6513,-1.6513,-1.6513,-1.6513,-1.6513,-1.6513,-1.6513,-1.6543,-1.7055,-1.7953,-1.8112,-1.8361,-1.8669,-1.7907,-1.7374,-1.7333,-1.6858,-1.6565,-1.6586,-1.7013,-1.776,-1.8708,-1.9369,-1.9723,-1.9723,-1.9723,-1.9723,-1.9723,-1.9723,-1.9723,-1.9723,-1.9723,-1.9723,-1.9723,-1.9723,-1.9723,-1.9723,-1.9723,-1.9723,-1.9723,-1.9723,-1.9723,-1.9723,-1.9723,-1.9723,-1.9723,-1.9762,-1.98,-1.9764,-2.0054,-2.0052,-1.9818,-1.9723,-1.9723,-1.9723,-1.9723,-1.9723,-1.9723,-1.9723,-1.9723,-1.9723,-1.9723,-1.9723,-1.9723,-1.9723,-1.9723,-1.9723,-1.9762,-2.0,-2.0229,-2.0731,-2.1166,-2.1492,-2.1749,-2.1928,-2.2077,-2.2254,-2.2286,-2.2293,-2.2295,-2.2124,-2.0611,-1.9538,-1.9106,-1.8944,-1.8877,-1.8586,-1.8472,-1.8462,-1.8462,-1.8303,-1.808,-1.8158,-1.7826,-1.7181,-1.7832,-1.7903,-1.7778,-1.9234,-1.994,-1.9836,-1.9798,-1.9798,-1.9798,-1.9798,-1.9798,-1.9798,-1.9798,-1.9509,-1.897,-1.8267,-1.7737,-1.7348,-1.681,-1.6513,-1.6513,-1.6513,-1.6513,-1.6513,-1.6513,-1.6513,-1.6513,-1.6513,-1.6858,-1.7524,-1.7585,-1.7666,-1.7867,-1.7504,-1.7126,-1.6816,-1.6595,-1.6513,-1.6586,-1.7333,-1.7953,-1.84,-1.9207,-1.9723,-1.9723,-1.9723,-1.9723,-1.9723,-1.9723,-1.9723,-1.9723,-1.9723,-1.9723,-1.9723,-1.9723,-1.9723,-1.9723,-1.9723,-1.9723,-1.9723,-1.9723,-1.9723,-1.9723,-1.9723,-1.9723,-1.9723,-1.9723,-1.9723,-1.9744,-1.9836,-1.9854,-1.9744,-1.9723,-1.9723,-1.9723,-1.9723,-1.9723,-1.9723,-1.9723,-1.9723,-1.9723,-1.9723,-1.9723,-1.9723,-1.9723,-1.9723,-1.9723,-1.9723,-1.9892,-2.0089,-2.0364,-2.0682,-2.115,-2.1811,-2.1945,-2.1899,-2.2077,-2.2204,-2.2304,-2.2091,-2.181,-1.9883,-1.8623,-1.8184,-1.8008,-1.8008,-1.8008,-1.8008,-1.8008,-1.8008,-1.8008,-1.8008,-1.8008,-1.7783,-1.7681,-1.8677,-1.8694,-1.8059,-1.9588,-2.0152,-1.9836,-1.9798,-1.9798,-1.9798,-1.9798,-1.9798,-1.9798,-1.9798,-1.961,-1.9233,-1.8707,-1.8191,-1.7652,-1.7074,-1.6676,-1.6538,-1.6513,-1.6513,-1.6513,-1.6513,-1.6513,-1.6513,-1.6513,-1.6667,-1.6972,-1.7034,-1.7139,-1.7291,-1.7139,-1.6888,-1.6565,-1.6513,-1.6513,-1.6607,-1.7504,-1.8092,-1.819,-1.9099,-1.9723,-1.9723,-1.9723,-1.9723,-1.9723,-1.9723,-1.9723,-1.9723,-1.9723,-1.9723,-1.9723,-1.9723,-1.9723,-1.9723,-1.9723,-1.9723,-1.9723,-1.9723,-1.9723,-1.9723,-1.9723,-1.9723,-1.9723,-1.9723,-1.9723,-1.9723,-1.9723,-1.9708,-1.9723,-1.9723,-1.9723,-1.9723,-1.9723,-1.9723,-1.9723,-1.9723,-1.9723,-1.9723,-1.9723,-1.9723,-1.9723,-1.9723,-1.9723,-1.9723,-1.9723,-1.978,-1.9965,-2.0193,-2.0465,-2.0975,-2.1706,-2.1886,-2.1796,-2.1857,-2.1988,-2.1908,-2.1768,-2.1469,-1.9089,-1.8598,-1.8149,-1.8008,-1.8008,-1.8008,-1.8008,-1.8008,-1.8008,-1.8008,-1.8008,-1.8008,-1.7803,-1.7892,-1.948,-1.97,-1.878,-1.9479,-1.9868,-1.981,-1.9798,-1.9798,-1.9798,-1.9798,-1.9798,-1.9798,-1.9798,-1.9798,-1.9698,-1.9171,-1.8657,-1.8191,-1.7652,-1.7124,-1.655,-1.6588,-1.6538,-1.6513,-1.6513,-1.6513,-1.6513,-1.6513,-1.6522,-1.6565,-1.6565,-1.6774,-1.7229,-1.6795,-1.6543,-1.6522,-1.6513,-1.6513,-1.665,-1.7504,-1.8092,-1.8302,-1.9118,-1.9654,-1.9723,-1.9723,-1.9723,-1.9723,-1.9723,-1.9723,-1.9723,-1.9723,-1.9723,-1.9723,-1.9723,-1.9723,-1.9723,-1.9723,-1.9723,-1.9723,-1.9723,-1.9723,-1.9723,-1.9723,-1.9723,-1.9723,-1.9723,-1.9723,-1.9723,-1.9723,-1.9723,-1.9723,-1.9723,-1.9723,-1.9723,-1.9723,-1.9723,-1.9723,-1.9723,-1.9723,-1.9723,-1.9723,-1.9723,-1.9723,-1.9723,-1.9723,-1.9723,-1.9723,-1.9723,-1.9871,-2.0017,-2.0278,-2.0699,-2.1354,-2.1645,-2.1645,-2.1721,-2.1646,-2.1464,-2.1278,-2.1103,-1.9209,-1.8994,-1.8301,-1.8008,-1.8008,-1.8008,-1.8008,-1.8008,-1.8008,-1.8008,-1.8008,-1.8008,-1.793,-1.8245,-1.976,-2.0122,-1.9452,-2.0368,-2.0526,-1.991,-1.9811,-1.9798,-1.9798,-1.9798,-1.9798,-1.9798,-1.9798,-1.9798,-1.971,-1.9259,-1.8882,-1.8669,-1.8193,-1.7664,-1.7124,-1.7112,-1.6948,-1.655,-1.6513,-1.6513,-1.6513,-1.6513,-1.6513,-1.6513,-1.6513,-1.6607,-1.6731,-1.6573,-1.65,-1.6513,-1.6513,-1.6513,-1.6701,-1.7504,-1.8171,-1.8496,-1.9225,-1.9723,-1.9723,-1.9723,-1.9723,-1.9723,-1.9723,-1.9723,-1.9723,-1.9723,-1.9723,-1.9723,-1.9723,-1.9723,-1.9723,-1.9723,-1.9723,-1.9723,-1.9723,-1.9723,-1.9723,-1.9723,-1.9723,-1.9723,-1.9723,-1.9723,-1.9723,-1.9723,-1.9723,-1.9723,-1.9723,-1.9723,-1.9723,-1.9723,-1.9723,-1.9723,-1.9723,-1.9723,-1.9723,-1.9723,-1.9723,-1.9723,-1.9723,-1.9723,-1.9723,-1.9723,-1.9723,-1.9762,-1.9909,-2.0158,-2.0566,-2.091,-2.1244,-2.1322,-2.1275,-2.1134,-2.0943,-2.0764,-2.06,-1.9277,-1.9189,-1.8369,-1.8008,-1.8008,-1.8008,-1.8008,-1.8008,-1.8008,-1.8008,-1.8008,-1.8008,-1.8008,-1.8303,-1.9497,-1.9961,-1.9848,-2.065,-2.0704,-2.0149,-1.9861,-1.9798,-1.9798,-1.9798,-1.9798,-1.9798,-1.9798,-1.9798,-1.9786,-1.9472,-1.9183,-1.8958,-1.8657,-1.8116,-1.7486,-1.7385,-1.7099,-1.6588,-1.6513,-1.6513,-1.6513,-1.6513,-1.6513,-1.6513,-1.6513,-1.6513,-1.6513,-1.6513,-1.6513,-1.6543,-1.6667,-1.6723,-1.6637,-1.7666,-1.8458,-1.8703,-1.9244,-1.9723,-1.9723,-1.9723,-1.9723,-1.9723,-1.9723,-1.9723,-1.9723,-1.9723,-1.9723,-1.9723,-1.9723,-1.9723,-1.9723,-1.9723,-1.9723,-1.9723,-1.9723,-1.9723,-1.9723,-1.9723,-1.9723,-1.9723,-1.9723,-1.9723,-1.9723,-1.9723,-1.9723,-1.9723,-1.9723,-1.9723,-1.9723,-1.9723,-1.9723,-1.9723,-1.9723,-1.9723,-1.9723,-1.9723,-1.9723,-1.9723,-1.9723,-1.9723,-1.9723,-1.9723,-1.9723,-1.9726,-1.9836,-2.0017,-2.0382,-2.0649,-2.0927,-2.0878,-2.0862,-2.083,-2.0699,-2.0313,-2.0141,-1.9277,-1.917,-1.8369,-1.8008,-1.8008,-1.8008,-1.8008,-1.8008,-1.8008,-1.8008,-1.8008,-1.8008,-1.8008,-1.8202,-1.9011,-1.9523,-1.9716,-2.0099,-2.0439,-2.0385,-2.0085,-1.9798,-1.9798,-1.9798,-1.9798,-1.9798,-1.9798,-1.9798,-1.9798,-1.9748,-1.9534,-1.9133,-1.9045,-1.8518,-1.7714,-1.7461,-1.7174,-1.6588,-1.6513,-1.6513,-1.6513,-1.6513,-1.6513,-1.6513,-1.6513,-1.6513,-1.6513,-1.6513,-1.6513,-1.6565,-1.6888,-1.6951,-1.6951,-1.8066,-1.8669,-1.8727,-1.935,-1.9636,-1.9723,-1.9723,-1.9723,-1.9723,-1.9723,-1.9723,-1.9723,-1.9723,-1.9723,-1.9723,-1.9723,-1.9723,-1.9723,-1.9723,-1.9723,-1.9723,-1.9723,-1.9723,-1.9723,-1.9723,-1.9723,-1.9723,-1.9723,-1.9753,-1.9783,-1.9768,-1.9813,-1.9723,-1.9723,-1.9723,-1.9723,-1.9723,-1.9723,-1.9723,-1.9723,-1.9723,-1.9723,-1.9723,-1.9723,-1.9723,-1.9723,-1.9723,-1.9723,-1.9723,-1.9723,-1.9726,-1.978,-1.9962,-2.0141,-2.0382,-2.0533,-2.0565,-2.0582,-2.06,-2.0398,-2.0017,-1.9909,-1.9277,-1.9189,-1.8369,-1.8008,-1.8008,-1.8008,-1.8008,-1.8008,-1.8008,-1.8008,-1.8008,-1.8008,-1.8008,-1.81,-1.8877,-1.9346,-1.9532,-1.9904,-2.022,-2.0246,-1.9975,-1.981,-1.9798,-1.9798,-1.9798,-1.9798,-1.9798,-1.9798,-1.9798,-1.9798,-1.9723,-1.9623,-1.9535,-1.9045,-1.8154,-1.7978,-1.7451,-1.6638,-1.6513,-1.6513,-1.6513,-1.6513,-1.6513,-1.6513,-1.6513,-1.6513,-1.6513,-1.6513,-1.6513,-1.6522,-1.6616,-1.7055,-1.7524,-1.8086,-1.8669,-1.9314,-1.9563,-1.9723,-1.9723,-1.9723,-1.9723,-1.9723,-1.9723,-1.9723,-1.9723,-1.9723,-1.9723,-1.9723,-1.9723,-1.9723,-1.9723,-1.9723,-1.9723,-1.9723,-1.9723,-1.9723,-1.9723,-1.9723,-1.9723,-1.9753,-2.0109,-2.0139,-2.0019,-2.0094,-2.0183,-1.9842,-1.9723,-1.9723,-1.9723,-1.9723,-1.9723,-1.9723,-1.9723,-1.9723,-1.9723,-1.9723,-1.9723,-1.9723,-1.9723,-1.9723,-1.9723,-1.9723,-1.9723,-1.9708,-1.9726,-1.9871,-1.9947,-2.0106,-2.0158,-2.0243,-2.0278,-2.0313,-2.0067,-1.9762,-1.978,-1.9277,-1.9209,-1.8369,-1.8008,-1.8008,-1.8008,-1.8008,-1.8008,-1.8008,-1.8008,-1.8008,-1.8008,-1.8008,-1.8076,-1.8529,-1.8977,-1.9282,-1.9223,-1.9538,-2.0163,-1.9929,-1.9823,-1.9798,-1.9798,-1.9798,-1.9798,-1.9798,-1.9798,-1.9798,-1.9798,-1.9798,-1.9786,-1.9798,-1.9346,-1.8569,-1.8267,-1.779,-1.6999,-1.6663,-1.6513,-1.6513,-1.6513,-1.6513,-1.6513,-1.6513,-1.6513,-1.6513,-1.6513,-1.6513,-1.6565,-1.671,-1.7034,-1.7422,-1.8112,-1.8817,-1.9654,-1.9723,-1.9723,-1.9723,-1.9723,-1.9723,-1.9723,-1.9723,-1.9723,-1.9723,-1.9723,-1.9723,-1.9723,-1.9723,-1.9723,-1.9723,-1.9723,-1.9723,-1.9723,-1.9723,-1.9723,-1.9723,-1.9723,-1.9723,-1.9857,-2.0243,-2.0733,-2.0468,-2.0662,-2.0333,-1.9899,-1.9723,-1.9723,-1.9723,-1.9723,-1.9723,-1.9723,-1.9723,-1.9723,-1.9723,-1.9723,-1.9723,-1.9723,-1.9723,-1.9723,-1.9723,-1.9723,-1.9723,-1.9723,-1.9723,-1.9744,-1.9836,-1.9892,-1.9892,-1.9962,-2.0,-1.9982,-1.9797,-1.9723,-1.9723,-1.9277,-1.9209,-1.8359,-1.8008,-1.8008,-1.8008,-1.8008,-1.8008,-1.8008,-1.8008,-1.8008,-1.8008,-1.8008,-1.8008,-1.8134,-1.8418,-1.9081,-1.8552,-1.9074,-1.9712,-1.9918,-1.9798,-1.9798,-1.9798,-1.9798,-1.9798,-1.9798,-1.9798,-1.9798,-1.9798,-1.9798,-1.9798,-1.9798,-1.9484,-1.8945,-1.8506,-1.799,-1.735,-1.6911,-1.6613,-1.6538,-1.6513,-1.6513,-1.6513,-1.6513,-1.6513,-1.6513,-1.6513,-1.6513,-1.6513,-1.6985,-1.6909,-1.6795,-1.8013,-1.9024,-1.9548,-1.9723,-1.9723,-1.9723,-1.9723,-1.9723,-1.9723,-1.9723,-1.9723,-1.9723,-1.9723,-1.9723,-1.9723,-1.9723,-1.9723,-1.9723,-1.9723,-1.9723,-1.9723,-1.9723,-1.9723,-1.9723,-1.9753,-1.9783,-1.9783,-2.0318,-2.1017,-2.1141,-2.1051,-2.0434,-1.9839,-1.9723,-1.9723,-1.9723,-1.9723,-1.9723,-1.9723,-1.9723,-1.9723,-1.9723,-1.9723,-1.9723,-1.9723,-1.9723,-1.9723,-1.9723,-1.9723,-1.9723,-1.9723,-1.9723,-1.9723,-1.9726,-1.9744,-1.9744,-1.9762,-1.9854,-1.9815,-1.9723,-1.9723,-1.9723,-1.9277,-1.9245,-1.8359,-1.8008,-1.8008,-1.8008,-1.8008,-1.8008,-1.8008,-1.8008,-1.8008,-1.8008,-1.8008,-1.8008,-1.8008,-1.8134,-1.8409,-1.8511,-1.9166,-1.973,-1.9856,-1.9798,-1.9798,-1.9798,-1.9798,-1.9798,-1.9798,-1.9798,-1.9798,-1.9798,-1.9798,-1.9798,-1.9773,-1.9547,-1.907,-1.8857,-1.8342,-1.7551,-1.726,-1.6923,-1.6584,-1.6513,-1.6513,-1.6513,-1.6513,-1.6513,-1.6513,-1.6513,-1.6513,-1.6543,-1.6595,-1.6659,-1.6752,-1.7659,-1.8722,-1.9475,-1.9723,-1.9723,-1.9723,-1.9723,-1.9723,-1.9723,-1.9723,-1.9723,-1.9723,-1.9723,-1.9723,-1.9723,-1.9723,-1.9723,-1.9723,-1.9723,-1.9723,-1.9723,-1.9723,-1.9723,-1.9798,-2.0172,-2.0217,-2.0187,-2.0752,-2.1156,-2.0412,-2.0797,-2.0378,-1.9872,-1.9723,-1.9723,-1.9723,-1.9723,-1.9723,-1.9723,-1.9723,-1.9723,-1.9723,-1.9723,-1.9723,-1.9723,-1.9723,-1.9723,-1.9723,-1.9723,-1.9723,-1.9723,-1.9723,-1.9723,-1.9723,-1.9723,-1.9726,-1.9723,-1.9723,-1.9723,-1.9723,-1.9723,-1.9723,-1.917,-1.8916,-1.8271,-1.8008,-1.8008,-1.8008,-1.8008,-1.8008,-1.8008,-1.8008,-1.8008,-1.8008,-1.8008,-1.8008,-1.8008,-1.8008,-1.8161,-1.8604,-1.9201,-1.9636,-1.9766,-1.9798,-1.9798,-1.9798,-1.9798,-1.9798,-1.9798,-1.9798,-1.9798,-1.9798,-1.9798,-1.9798,-1.9798,-1.9698,-1.9334,-1.9133,-1.8743,-1.8187,-1.7622,-1.7216,-1.6968,-1.6615,-1.6513,-1.6513,-1.6513,-1.6513,-1.6513,-1.6513,-1.6659,-1.6731,-1.6637,-1.6513,-1.6693,-1.7517,-1.8574,-1.9475,-1.9723,-1.9723,-1.9723,-1.9723,-1.9723,-1.9723,-1.9723,-1.9723,-1.9723,-1.9723,-1.9723,-1.9723,-1.9723,-1.9723,-1.9723,-1.9723,-1.9723,-1.9723,-1.9723,-1.9723,-1.9813,-2.0288,-2.0838,-2.0932,-2.1699,-2.14,-2.1041,-2.0737,-2.0393,-1.9932,-1.9723,-1.9723,-1.9723,-1.9723,-1.9723,-1.9723,-1.9723,-1.9723,-1.9723,-1.9723,-1.9723,-1.9723,-1.9723,-1.9723,-1.9723,-1.9723,-1.9723,-1.9723,-1.9723,-1.9723,-1.9723,-1.9723,-1.9723,-1.9723,-1.9723,-1.9723,-1.9723,-1.9723,-1.9723,-1.8975,-1.8568,-1.8184,-1.8008,-1.8008,-1.8008,-1.8008,-1.8008,-1.8008,-1.8008,-1.8008,-1.8008,-1.8008,-1.8008,-1.8008,-1.8022,-1.825,-1.8753,-1.9343,-1.9535,-1.9924,-1.9897,-1.9861,-1.9798,-1.9798,-1.9798,-1.9798,-1.9798,-1.9798,-1.9798,-1.9798,-1.9798,-1.9798,-1.9761,-1.966,-1.9371,-1.9045,-1.8752,-1.8023,-1.7505,-1.726,-1.6798,-1.6534,-1.6513,-1.6513,-1.6513,-1.6513,-1.6543,-1.6689,-1.7105,-1.6752,-1.6565,-1.6744,-1.7415,-1.838,-1.9369,-1.9439,-1.9493,-1.953,-1.9636,-1.9723,-1.9723,-1.9723,-1.9723,-1.9723,-1.9723,-1.9723,-1.9723,-1.9723,-1.9723,-1.9723,-1.9723,-1.9723,-1.9723,-1.9723,-1.9723,-1.9828,-2.0288,-2.0942,-2.141,-2.1699,-2.1535,-2.1041,-2.0651,-2.0337,-2.0037,-1.9842,-1.9723,-1.9723,-1.9723,-1.9723,-1.9723,-1.9723,-1.9723,-1.9723,-1.9723,-1.9723,-1.9723,-1.9723,-1.9723,-1.9723,-1.9723,-1.9723,-1.9723,-1.9723,-1.9723,-1.9723,-1.9723,-1.9723,-1.9723,-1.9723,-1.9723,-1.9723,-1.9723,-1.9723,-1.8666,-1.8559,-1.8184,-1.8008,-1.8008,-1.8008,-1.8008,-1.8008,-1.8008,-1.8008,-1.8008,-1.8008,-1.8008,-1.8008,-1.8008,-1.8148,-1.8524,-1.9118,-1.9499,-1.9662,-2.0089,-2.0302,-1.9849,-1.9798,-1.9798,-1.9798,-1.9798,-1.9798,-1.9798,-1.9798,-1.9798,-1.9798,-1.9798,-1.9798,-1.9786,-1.966,-1.9397,-1.908,-1.8426,-1.7923,-1.7445,-1.6879,-1.6513,-1.6513,-1.6513,-1.6513,-1.6513,-1.65,-1.6552,-1.6629,-1.6552,-1.6522,-1.6616,-1.7105,-1.7727,-1.8288,-1.8893,-1.9132,-1.9151,-1.9479,-1.9654,-1.9723,-1.9723,-1.9723,-1.9723,-1.9723,-1.9723,-1.9723,-1.9723,-1.9723,-1.9723,-1.9723,-1.9723,-1.9723,-1.9723,-1.9723,-1.9842,-2.0243,-2.0456,-2.0512,-2.1053,-2.1575,-2.0991,-2.0516,-2.0217,-1.9977,-1.9798,-1.9723,-1.9723,-1.9723,-1.9723,-1.9723,-1.9723,-1.9723,-1.9723,-1.9723,-1.9723,-1.9723,-1.9723,-1.9723,-1.9723,-1.9723,-1.9723,-1.9723,-1.9723,-1.9723,-1.9723,-1.9723,-1.9723,-1.9723,-1.9723,-1.9723,-1.9723,-1.9723,-1.9723,-1.8471,-1.8266,-1.8052,-1.8008,-1.8008,-1.8008,-1.8008,-1.8008,-1.8008,-1.8008,-1.8008,-1.8008,-1.8008,-1.8008,-1.8008,-1.8322,-1.8941,-1.9408,-1.9715,-1.993,-2.0385,-2.0377,-1.9835,-1.9811,-1.9798,-1.9798,-1.9798,-1.9798,-1.9798,-1.9798,-1.9798,-1.9798,-1.9798,-1.9798,-1.9798,-1.9773,-1.9648,-1.9321,-1.8868,-1.8338,-1.7765,-1.7007,-1.6559,-1.6513,-1.6513,-1.6513,-1.6513,-1.6513,-1.65,-1.6534,-1.6513,-1.6513,-1.6586,-1.6731,-1.7013,-1.7422,-1.8269,-1.8893,-1.8968,-1.9387,-1.969,-1.9723,-1.9723,-1.9723,-1.9723,-1.9723,-1.9723,-1.9723,-1.9723,-1.9723,-1.9723,-1.9723,-1.9723,-1.9723,-1.9723,-1.9723,-1.9857,-2.0333,-2.0042,-1.9664,-2.0659,-2.1123,-2.0752,-2.0348,-2.0079,-1.9902,-1.9753,-1.9723,-1.9723,-1.9723,-1.9723,-1.9723,-1.9723,-1.9723,-1.9723,-1.9723,-1.9723,-1.9723,-1.9723,-1.9723,-1.9723,-1.9723,-1.9723,-1.9723,-1.9723,-1.9723,-1.9723,-1.9723,-1.9723,-1.9723,-1.9723,-1.9723,-1.9723,-1.9723,-1.9723,-1.8286,-1.8008,-1.8008,-1.8008,-1.8008,-1.8008,-1.8008,-1.8008,-1.8008,-1.8008,-1.8008,-1.8008,-1.8008,-1.8008,-1.8076,-1.8385,-1.9069,-1.9307,-1.9513,-1.9748,-2.0173,-2.0151,-1.9865,-1.9784,-1.9798,-1.9798,-1.9798,-1.9798,-1.9798,-1.9798,-1.9798,-1.9798,-1.9798,-1.9798,-1.9798,-1.9798,-1.9798,-1.9648,-1.9271,-1.8741,-1.8074,-1.7259,-1.6697,-1.6647,-1.6563,-1.6513,-1.6513,-1.6513,-1.6513,-1.6513,-1.6513,-1.6513,-1.6513,-1.6513,-1.6513,-1.6744,-1.7947,-1.8574,-1.8874,-1.9387,-1.9723,-1.9723,-1.9723,-1.9723,-1.9723,-1.9723,-1.9723,-1.9723,-1.9723,-1.9723,-1.9723,-1.9723,-1.9723,-1.9723,-1.9723,-1.9738,-1.9794,-1.9949,-1.9819,-1.9929,-2.0685,-2.0528,-1.9988,-2.0168,-1.9917,-1.9857,-1.9723,-1.9723,-1.9723,-1.9723,-1.9723,-1.9723,-1.9723,-1.9723,-1.9723,-1.9723,-1.9723,-1.9723,-1.9723,-1.9723,-1.9723,-1.9723,-1.9723,-1.9723,-1.9723,-1.9723,-1.9723,-1.9723,-1.9723,-1.9723,-1.9723,-1.9723,-1.9723,-1.9723,-1.9723,-1.8047,-1.8008,-1.8008,-1.8008,-1.8008,-1.8008,-1.8008,-1.8008,-1.8008,-1.8008,-1.8008,-1.8008,-1.8008,-1.8008,-1.8008,-1.8076,-1.8298,-1.8695,-1.887,-1.8962,-1.9472,-1.9665,-1.9477,-1.9726,-1.9694,-1.9721,-1.9747,-1.9798,-1.9798,-1.9798,-1.9798,-1.9798,-1.9798,-1.9798,-1.9798,-1.9798,-1.9798,-1.971,-1.9271,-1.8767,-1.8234,-1.7632,-1.7348,-1.7184,-1.6898,-1.6663,-1.6701,-1.6676,-1.6622,-1.6563,-1.6525,-1.6513,-1.6513,-1.6513,-1.6513,-1.6816,-1.7463,-1.819,-1.84,-1.9151,-1.9723,-1.969,-1.9639,-1.969,-1.9581,-1.9654,-1.969,-1.9723,-1.9672,-1.9581,-1.9512,-1.9617,-1.9672,-1.9636,-1.9548,-1.9617,-1.9695,-1.9561,-1.9419,-1.9156,-1.959,-1.9421,-1.9032,-1.9435,-1.9753,-1.9738,-1.9723,-1.9723,-1.9723,-1.9723,-1.9723,-1.9723,-1.9723,-1.9723,-1.9723,-1.9723,-1.9723,-1.9723,-1.9723,-1.9723,-1.9723,-1.9723,-1.9723,-1.9723,-1.9723,-1.9723,-1.9723,-1.9723,-1.9723,-1.9723,-1.9723,-1.9723,-1.9723,-1.9723,-1.9723,-1.8008,-1.8008,-1.8008,-1.8008,-1.8008,-1.8008,-1.8008,-1.8008,-1.8008,-1.8008,-1.8008,-1.8008,-1.8008,-1.8008,-1.8008,-1.8008,-1.8162,-1.8621,-1.8595,-1.8323,-1.8825,-1.9157,-1.8932,-1.878,-1.8821,-1.9579,-1.9449,-1.9475,-1.9631,-1.9798,-1.9798,-1.9798,-1.9798,-1.9798,-1.9798,-1.9798,-1.9798,-1.9661,-1.9271,-1.8881,-1.8568,-1.8166,-1.784,-1.784,-1.7576,-1.7451,-1.7363,-1.7124,-1.7036,-1.6948,-1.6738,-1.6513,-1.6513,-1.6513,-1.6513,-1.6573,-1.7504,-1.8052,-1.823,-1.9118,-1.953,-1.9584,-1.9406,-1.9095,-1.9006,-1.9299,-1.935,-1.8817,-1.8987,-1.9006,-1.8874,-1.8798,-1.8798,-1.8874,-1.9132,-1.9225,-1.9258,-1.9207,-1.9068,-1.8736,-1.8452,-1.8361,-1.838,-1.8774,-1.9273,-1.9617,-1.9654,-1.9723,-1.9723,-1.9723,-1.9723,-1.9723,-1.9723,-1.9723,-1.9723,-1.9723,-1.9723,-1.9723,-1.9723,-1.9723,-1.9723,-1.9723,-1.9723,-1.9723,-1.9723,-1.9723,-1.9723,-1.9723,-1.9723,-1.9723,-1.9723,-1.9723,-1.9723,-1.9723,-1.9723,-1.8008,-1.8008,-1.8008,-1.8008,-1.8008,-1.8008,-1.8008,-1.8008,-1.8008,-1.8008,-1.8008,-1.8008,-1.8008,-1.8008,-1.8008,-1.8008,-1.8056,-1.8474,-1.8262,-1.8093,-1.8145,-1.8315,-1.8171,-1.7917,-1.8367,-1.9527,-1.9044,-1.9202,-1.9631,-1.9798,-1.9798,-1.9798,-1.9798,-1.9798,-1.9798,-1.9798,-1.9798,-1.9748,-1.946,-1.9246,-1.9108,-1.8694,-1.8468,-1.8367,-1.8268,-1.8204,-1.8129,-1.7652,-1.7385,-1.725,-1.6776,-1.6513,-1.6513,-1.6513,-1.6513,-1.6659,-1.736,-1.7894,-1.8249,-1.8893,-1.9402,-1.9332,-1.9024,-1.8574,-1.838,-1.8949,-1.9169,-1.8283,-1.8263,-1.8249,-1.8151,-1.8151,-1.823,-1.838,-1.8496,-1.8612,-1.8708,-1.8688,-1.8516,-1.8125,-1.7867,-1.7747,-1.7847,-1.8165,-1.8684,-1.9332,-1.9584,-1.9672,-1.9723,-1.9723,-1.9723,-1.9723,-1.9723,-1.9723,-1.9723,-1.9723,-1.9723,-1.9723,-1.9723,-1.9723,-1.9723,-1.9723,-1.9723,-1.9723,-1.9723,-1.9723,-1.9723,-1.9723,-1.9723,-1.9723,-1.9723,-1.9723,-1.9723,-1.9723,-1.9723,-1.8008,-1.8008,-1.8008,-1.8008,-1.8008,-1.8008,-1.8008,-1.8008,-1.8008,-1.8008,-1.8008,-1.8008,-1.8008,-1.8008,-1.8008,-1.8008,-1.7969,-1.721,-1.7241,-1.7229,-1.701,-1.7156,-1.7213,-1.7506,-1.7907,-1.8741,-1.8635,-1.9006,-1.9631,-1.9798,-1.9798,-1.9798,-1.9798,-1.9798,-1.9798,-1.9798,-1.9798,-1.9798,-1.9648,-1.9648,-1.9535,-1.9221,-1.8982,-1.8832,-1.8506,-1.8216,-1.8168,-1.7827,-1.7524,-1.7498,-1.6848,-1.6513,-1.6513,-1.6513,-1.6513,-1.6659,-1.7209,-1.7706,-1.8086,-1.8516,-1.8855,-1.8784,-1.8535,-1.8131,-1.7874,-1.8361,-1.8419,-1.8013,-1.7747,-1.7767,-1.7874,-1.8052,-1.7847,-1.7874,-1.7933,-1.8151,-1.823,-1.821,-1.7987,-1.7537,-1.7312,-1.7229,-1.7333,-1.7646,-1.8165,-1.8817,-1.9369,-1.9475,-1.9672,-1.9723,-1.9723,-1.9723,-1.9723,-1.9723,-1.9723,-1.9723,-1.9723,-1.9723,-1.9723,-1.9723,-1.9723,-1.9723,-1.9723,-1.9723,-1.9723,-1.9723,-1.9723,-1.9723,-1.9723,-1.9723,-1.9723,-1.9723,-1.9723,-1.9723,-1.9723,-1.8008,-1.8008,-1.8008,-1.8008,-1.8008,-1.8008,-1.8008,-1.8008,-1.8008,-1.8008,-1.8008,-1.8008,-1.8008,-1.8008,-1.8008,-1.8008,-1.793,-1.7432,-1.7148,-1.6831,-1.6587,-1.6522,-1.6651,-1.6722,-1.7013,-1.8248,-1.8355,-1.8715,-1.9683,-1.9798,-1.9798,-1.9798,-1.9798,-1.9798,-1.9798,-1.9798,-1.9798,-1.9798,-1.9798,-1.9798,-1.9761,-1.966,-1.9497,-1.9459,-1.9397,-1.9196,-1.9133,-1.8644,-1.8267,-1.7752,-1.7011,-1.6697,-1.6538,-1.6538,-1.6522,-1.6629,-1.725,-1.7605,-1.7706,-1.8086,-1.8263,-1.8027,-1.7947,-1.7847,-1.7394,-1.7807,-1.7727,-1.7381,-1.7076,-1.716,-1.7076,-1.7118,-1.7076,-1.7209,-1.7422,-1.7666,-1.7727,-1.7706,-1.7646,-1.7305,-1.6985,-1.6774,-1.693,-1.7126,-1.7706,-1.8302,-1.8836,-1.9299,-1.9548,-1.9723,-1.9723,-1.9723,-1.9723,-1.9723,-1.9723,-1.9723,-1.9723,-1.9723,-1.9723,-1.9723,-1.9723,-1.9723,-1.9723,-1.9723,-1.9723,-1.9723,-1.9723,-1.9723,-1.9723,-1.9723,-1.9723,-1.9723,-1.9723,-1.9723,-1.9723,-1.8008,-1.8008,-1.8008,-1.8008,-1.8008,-1.8008,-1.8008,-1.8008,-1.8008,-1.8008,-1.8008,-1.8008,-1.8008,-1.8008,-1.8008,-1.7891,-1.7764,-1.7441,-1.7012,-1.6623,-1.6315,-1.6158,-1.6033,-1.6216,-1.6828,-1.7977,-1.8328,-1.8676,-1.9747,-1.9798,-1.9798,-1.9798,-1.9798,-1.9798,-1.9798,-1.9798,-1.9798,-1.9798,-1.9798,-1.9798,-1.9798,-1.9786,-1.9773,-1.9761,-1.971,-1.9698,-1.9535,-1.9121,-1.8781,-1.8204,-1.7516,-1.6898,-1.6735,-1.6656,-1.662,-1.69,-1.7201,-1.7571,-1.7666,-1.7605,-1.7626,-1.7271,-1.7366,-1.7118,-1.6964,-1.7209,-1.7126,-1.6786,-1.6565,-1.6513,-1.6513,-1.6629,-1.6693,-1.6837,-1.6972,-1.7167,-1.7167,-1.7167,-1.7201,-1.7089,-1.6795,-1.6565,-1.6637,-1.69,-1.7619,-1.8185,-1.876,-1.9244,-1.9599,-1.9723,-1.9723,-1.9723,-1.9723,-1.9723,-1.9723,-1.9723,-1.9723,-1.9723,-1.9723,-1.9723,-1.9723,-1.9723,-1.9723,-1.9723,-1.9723,-1.9723,-1.9723,-1.9723,-1.9723,-1.9723,-1.9723,-1.9723,-1.9723,-1.9723,-1.9723,-1.8008,-1.8008,-1.8008,-1.8008,-1.8008,-1.8008,-1.8008,-1.8008,-1.8008,-1.8008,-1.8008,-1.8008,-1.8008,-1.7998,-1.7959,-1.7754,-1.748,-1.7314,-1.6917,-1.63,-1.6036,-1.5841,-1.5927,-1.6197,-1.6866,-1.7605,-1.8221,-1.89,-1.9798,-1.9798,-1.9798,-1.9798,-1.9798,-1.9798,-1.9798,-1.9798,-1.9798,-1.9798,-1.9798,-1.9798,-1.9798,-1.9798,-1.9798,-1.9798,-1.9798,-1.9798,-1.9685,-1.9422,-1.9083,-1.8682,-1.8016,-1.7513,-1.7373,-1.6961,-1.6934,-1.7305,-1.6982,-1.7264,-1.7894,-1.7571,-1.717,-1.6757,-1.6892,-1.6693,-1.6565,-1.6616,-1.671,-1.6513,-1.6513,-1.6513,-1.6513,-1.6513,-1.6513,-1.6543,-1.668,-1.6731,-1.6774,-1.6774,-1.6837,-1.6892,-1.6701,-1.6513,-1.65,-1.6744,-1.7497,-1.8125,-1.8669,-1.9132,-1.9493,-1.9581,-1.953,-1.9723,-1.9723,-1.9723,-1.9723,-1.9723,-1.9723,-1.9723,-1.9723,-1.9723,-1.9723,-1.9723,-1.9723,-1.9723,-1.9723,-1.9723,-1.9723,-1.9723,-1.9723,-1.9723,-1.9723,-1.9723,-1.9723,-1.9723,-1.9723,-1.8008,-1.8008,-1.8008,-1.8008,-1.8008,-1.8008,-1.8008,-1.8008,-1.8008,-1.8008,-1.8008,-1.8008,-1.8008,-1.7949,-1.7715,-1.751,-1.7305,-1.6652,-1.6202,-1.6114,-1.586,-1.5957,-1.6095,-1.6428,-1.7168,-1.8097,-1.8688,-1.9059,-1.9798,-1.9798,-1.9798,-1.9798,-1.9798,-1.9798,-1.9798,-1.9798,-1.9798,-1.9798,-1.9798,-1.9798,-1.9798,-1.9798,-1.9798,-1.9798,-1.9798,-1.9798,-1.9798,-1.9535,-1.9346,-1.9108,-1.8455,-1.8254,-1.799,-1.7589,-1.7655,-1.7971,-1.7849,-1.8092,-1.8115,-1.7657,-1.7113,-1.6728,-1.6513,-1.6513,-1.6513,-1.6513,-1.6513,-1.6513,-1.6513,-1.6513,-1.6513,-1.6513,-1.6513,-1.6513,-1.6586,-1.6586,-1.6586,-1.6586,-1.6607,-1.6629,-1.6513,-1.6513,-1.6513,-1.6543,-1.718,-1.7619,-1.8086,-1.8703,-1.9147,-1.9188,-1.9207,-1.9581,-1.9723,-1.9723,-1.9723,-1.9723,-1.9723,-1.9723,-1.9723,-1.9723,-1.9723,-1.9723,-1.9723,-1.9723,-1.9723,-1.9723,-1.9723,-1.9723,-1.9723,-1.9723,-1.9723,-1.9723,-1.9723,-1.9723,-1.9723,-1.8008,-1.8008,-1.8008,-1.8008,-1.8008,-1.8008,-1.8008,-1.8008,-1.8008,-1.8008,-1.8008,-1.8008,-1.791,-1.7744,-1.7519,-1.709,-1.6956,-1.6572,-1.5947,-1.5908,-1.5791,-1.5949,-1.6222,-1.6576,-1.727,-1.8262,-1.8747,-1.9059,-1.9773,-1.9798,-1.9798,-1.9798,-1.9798,-1.9798,-1.9798,-1.9798,-1.9798,-1.9798,-1.9798,-1.9798,-1.9798,-1.9798,-1.9798,-1.9798,-1.9798,-1.9798,-1.9798,-1.9748,-1.966,-1.9321,-1.907,-1.887,-1.8568,-1.8329,-1.8336,-1.8544,-1.8711,-1.8593,-1.798,-1.7661,-1.7103,-1.6572,-1.6513,-1.6513,-1.6513,-1.6513,-1.6513,-1.6513,-1.6513,-1.6513,-1.6513,-1.6513,-1.6513,-1.6513,-1.6513,-1.6513,-1.6513,-1.6513,-1.6513,-1.6513,-1.6513,-1.6513,-1.6513,-1.6586,-1.6795,-1.7105,-1.7422,-1.8125,-1.8836,-1.8987,-1.9132,-1.9475,-1.9723,-1.9723,-1.9723,-1.9723,-1.9723,-1.9723,-1.9723,-1.9723,-1.9723,-1.9723,-1.9723,-1.9723,-1.9723,-1.9723,-1.9723,-1.9723,-1.9723,-1.9723,-1.9723,-1.9723,-1.9723,-1.9723,-1.9723,-1.8008,-1.8008,-1.8008,-1.8008,-1.8008,-1.8008,-1.8008,-1.8008,-1.8008,-1.8008,-1.8008,-1.7969,-1.7764,-1.7441,-1.7334,-1.6897,-1.6349,-1.6445,-1.6045,-1.5732,-1.5703,-1.5979,-1.6236,-1.6584,-1.7426,-1.8125,-1.8701,-1.9254,-1.9773,-1.9798,-1.9798,-1.9798,-1.9798,-1.9798,-1.9798,-1.9798,-1.9798,-1.9798,-1.9798,-1.9798,-1.9798,-1.9798,-1.9798,-1.9798,-1.9798,-1.9798,-1.9798,-1.9773,-1.9773,-1.9597,-1.9334,-1.9146,-1.887,-1.8543,-1.8697,-1.8877,-1.9068,-1.8554,-1.7946,-1.7735,-1.7247,-1.6798,-1.6538,-1.6513,-1.6513,-1.6513,-1.6513,-1.6513,-1.6513,-1.6513,-1.6513,-1.6513,-1.6513,-1.6513,-1.6513,-1.6513,-1.6513,-1.6513,-1.6513,-1.6513,-1.6513,-1.6513,-1.6513,-1.6565,-1.6637,-1.6972,-1.7401,-1.8112,-1.876,-1.9188,-1.9332,-1.9548,-1.9723,-1.9723,-1.9723,-1.9723,-1.9723,-1.9723,-1.9723,-1.9723,-1.9723,-1.9723,-1.9723,-1.9723,-1.9723,-1.9723,-1.9723,-1.9723,-1.9723,-1.9723,-1.9723,-1.9723,-1.9723,-1.9723,-1.9723,-1.8008,-1.8008,-1.8008,-1.8008,-1.8008,-1.8008,-1.8008,-1.8008,-1.8008,-1.8008,-1.7964,-1.7686,-1.75,-1.7344,-1.677,-1.6369,-1.6114,-1.5869,-1.5674,-1.5557,-1.5586,-1.5967,-1.6391,-1.6899,-1.774,-1.8464,-1.9074,-1.9449,-1.9747,-1.9798,-1.9798,-1.9798,-1.9773,-1.9798,-1.9773,-1.9798,-1.9798,-1.9798,-1.9798,-1.9798,-1.9798,-1.9798,-1.9798,-1.9798,-1.9798,-1.9798,-1.9798,-1.9798,-1.9798,-1.9723,-1.966,-1.9572,-1.9547,-1.9422,-1.9484,-1.9509,-1.9521,-1.9269,-1.863,-1.8179,-1.7677,-1.7099,-1.6748,-1.6525,-1.6513,-1.6513,-1.6513,-1.6513,-1.6513,-1.6513,-1.6513,-1.6513,-1.6513,-1.6513,-1.6513,-1.6513,-1.6525,-1.6613,-1.6626,-1.6685,-1.6672,-1.6575,-1.6563,-1.6534,-1.6637,-1.6951,-1.7381,-1.8033,-1.8612,-1.9006,-1.9442,-1.9636,-1.9723,-1.9723,-1.9723,-1.9723,-1.9723,-1.9723,-1.9723,-1.9723,-1.9723,-1.9723,-1.9723,-1.9723,-1.9723,-1.9723,-1.9723,-1.9723,-1.9723,-1.9723,-1.9723,-1.9723,-1.9723,-1.9723,-1.9723,-1.8008,-1.8008,-1.8008,-1.8008,-1.8008,-1.8008,-1.8008,-1.8008,-1.8008,-1.8008,-1.7959,-1.7588,-1.7295,-1.7012,-1.6457,-1.6016,-1.5811,-1.5605,-1.5449,-1.5449,-1.5439,-1.5821,-1.6382,-1.6973,-1.7617,-1.8437,-1.9062,-1.9397,-1.9695,-1.9773,-1.9747,-1.9371,-1.9566,-1.9579,-1.9501,-1.9579,-1.9798,-1.9798,-1.9798,-1.9798,-1.9798,-1.9798,-1.9798,-1.9798,-1.9798,-1.9798,-1.9798,-1.9798,-1.9798,-1.9798,-1.9798,-1.9798,-1.9798,-1.9773,-1.9773,-1.9774,-1.9749,-1.946,-1.8907,-1.843,-1.7953,-1.7413,-1.6861,-1.6588,-1.6513,-1.6513,-1.6513,-1.6513,-1.6513,-1.6513,-1.6513,-1.6513,-1.6513,-1.6513,-1.6513,-1.6513,-1.6613,-1.676,-1.6823,-1.6873,-1.6823,-1.6713,-1.6638,-1.6563,-1.6565,-1.6795,-1.7063,-1.7544,-1.8145,-1.8664,-1.9207,-1.9621,-1.969,-1.9723,-1.9723,-1.9723,-1.9723,-1.9723,-1.9723,-1.9723,-1.9723,-1.9723,-1.9723,-1.9723,-1.9723,-1.9723,-1.9723,-1.9723,-1.9723,-1.9723,-1.9723,-1.9723,-1.9723,-1.9723,-1.9723,-1.8008,-1.8008,-1.8008,-1.8008,-1.8008,-1.8008,-1.8008,-1.8008,-1.8008,-1.8008,-1.793,-1.7519,-1.709,-1.6748,-1.6191,-1.5762,-1.5586,-1.5439,-1.542,-1.5439,-1.5633,-1.5927,-1.6203,-1.656,-1.7573,-1.8181,-1.8698,-1.924,-1.9669,-1.9773,-1.9527,-1.8847,-1.9449,-1.9592,-1.9293,-1.9579,-1.9798,-1.9798,-1.9798,-1.9798,-1.9798,-1.9798,-1.9798,-1.9798,-1.9798,-1.9798,-1.9798,-1.9798,-1.9798,-1.9798,-1.9798,-1.9798,-1.9798,-1.9798,-1.9798,-1.9798,-1.9798,-1.9497,-1.902,-1.8481,-1.7965,-1.7413,-1.6861,-1.66,-1.6513,-1.6513,-1.6513,-1.6513,-1.6513,-1.6513,-1.6513,-1.6513,-1.6513,-1.6513,-1.6513,-1.6513,-1.6563,-1.6848,-1.7212,-1.7237,-1.7187,-1.7061,-1.6848,-1.6773,-1.6513,-1.6659,-1.6816,-1.7167,-1.7686,-1.8263,-1.8817,-1.9424,-1.9654,-1.969,-1.9723,-1.9723,-1.9723,-1.9723,-1.9723,-1.9723,-1.9723,-1.9723,-1.9723,-1.9723,-1.9723,-1.9723,-1.9723,-1.9723,-1.9723,-1.9723,-1.9723,-1.9723,-1.9723,-1.9723,-1.9723,-1.8008,-1.8008,-1.8008,-1.8008,-1.8008,-1.8008,-1.8008,-1.8008,-1.8008,-1.7998,-1.7871,-1.7266,-1.6824,-1.6629,-1.5937,-1.5518,-1.5459,-1.542,-1.542,-1.5642,-1.5864,-1.6116,-1.6506,-1.6973,-1.7761,-1.8352,-1.8789,-1.9006,-1.9385,-1.9605,-1.9695,-1.9501,-1.9721,-1.9475,-1.9371,-1.9695,-1.9798,-1.9798,-1.9798,-1.9798,-1.9798,-1.9798,-1.9798,-1.9798,-1.9798,-1.9798,-1.9798,-1.9798,-1.9798,-1.9798,-1.9798,-1.9798,-1.9798,-1.9798,-1.9798,-1.9798,-1.9786,-1.9484,-1.902,-1.8494,-1.7965,-1.7413,-1.6923,-1.6651,-1.6513,-1.6513,-1.6513,-1.6513,-1.6513,-1.6513,-1.6563,-1.6563,-1.66,-1.66,-1.6613,-1.6613,-1.6613,-1.7099,-1.7612,-1.7612,-1.7551,-1.735,-1.7099,-1.6835,-1.66,-1.6522,-1.6552,-1.6816,-1.7333,-1.7867,-1.8302,-1.8893,-1.9497,-1.9621,-1.9636,-1.9636,-1.9599,-1.9672,-1.9723,-1.9723,-1.9723,-1.9723,-1.9723,-1.9723,-1.9723,-1.9723,-1.9723,-1.9723,-1.9723,-1.9723,-1.9723,-1.9723,-1.9723,-1.9723,-1.9723,-1.8008,-1.8008,-1.8008,-1.8008,-1.8008,-1.8008,-1.8008,-1.8008,-1.8008,-1.7891,-1.7656,-1.7028,-1.6687,-1.6551,-1.5781,-1.542,-1.542,-1.542,-1.542,-1.5613,-1.6065,-1.6379,-1.6821,-1.7219,-1.7945,-1.8528,-1.8635,-1.8847,-1.8953,-1.8794,-1.8741,-1.898,-1.9123,-1.9359,-1.9397,-1.9579,-1.9798,-1.9798,-1.9798,-1.9798,-1.9798,-1.9798,-1.9798,-1.9798,-1.9798,-1.9798,-1.9798,-1.9798,-1.9798,-1.9798,-1.9798,-1.9798,-1.9798,-1.9798,-1.9798,-1.9798,-1.9748,-1.9547,-1.902,-1.8481,-1.794,-1.7375,-1.6848,-1.6525,-1.6513,-1.6513,-1.6513,-1.6513,-1.6513,-1.6513,-1.6911,-1.7011,-1.7275,-1.7375,-1.7466,-1.7541,-1.7626,-1.7877,-1.8041,-1.794,-1.779,-1.7463,-1.7162,-1.671,-1.6513,-1.6513,-1.65,-1.6522,-1.6993,-1.7442,-1.7874,-1.8322,-1.8912,-1.9277,-1.9258,-1.9314,-1.9369,-1.9512,-1.9723,-1.9723,-1.9723,-1.9723,-1.9723,-1.9723,-1.9723,-1.9723,-1.9723,-1.9723,-1.9723,-1.9723,-1.9723,-1.9723,-1.9723,-1.9723,-1.9723,-1.7822,-1.7842,-1.7832,-1.7871,-1.793,-1.792,-1.791,-1.791,-1.791,-1.7686,-1.7266,-1.6816,-1.6638,-1.6317,-1.581,-1.5576,-1.542,-1.542,-1.542,-1.5613,-1.6179,-1.6407,-1.6708,-1.7135,-1.7633,-1.8178,-1.8463,-1.814,-1.7907,-1.7907,-1.7977,-1.7879,-1.8248,-1.8756,-1.9018,-1.9397,-1.9798,-1.9798,-1.9798,-1.9798,-1.9798,-1.9798,-1.9798,-1.9798,-1.9798,-1.9798,-1.9798,-1.9798,-1.9798,-1.9798,-1.9798,-1.9798,-1.9798,-1.9798,-1.9798,-1.9798,-1.9798,-1.9447,-1.8895,-1.8418,-1.7865,-1.73,-1.6776,-1.6563,-1.6563,-1.6654,-1.6666,-1.6789,-1.6789,-1.6914,-1.729,-1.7539,-1.7827,-1.8016,-1.8154,-1.8342,-1.8442,-1.853,-1.8442,-1.8329,-1.8028,-1.7702,-1.7287,-1.6789,-1.6513,-1.6513,-1.6513,-1.6513,-1.665,-1.7055,-1.7483,-1.7827,-1.8263,-1.8549,-1.8855,-1.9169,-1.935,-1.9512,-1.9723,-1.9723,-1.9723,-1.9723,-1.9723,-1.9723,-1.9723,-1.9723,-1.9723,-1.9723,-1.9723,-1.9723,-1.9723,-1.9723,-1.9723,-1.9723,-1.9723,-1.695,-1.6973,-1.695,-1.7178,-1.7471,-1.75,-1.75,-1.75,-1.75,-1.7256,-1.6836,-1.6457,-1.6222,-1.6172,-1.5674,-1.542,-1.542,-1.542,-1.542,-1.5526,-1.6179,-1.6407,-1.6624,-1.6922,-1.6849,-1.7274,-1.7895,-1.8112,-1.7302,-1.7357,-1.7879,-1.834,-1.8409,-1.8927,-1.9553,-1.9798,-1.9798,-1.9798,-1.9798,-1.9798,-1.9798,-1.9798,-1.9798,-1.9798,-1.9798,-1.9798,-1.9798,-1.9798,-1.9798,-1.9798,-1.9798,-1.9798,-1.9798,-1.9798,-1.9798,-1.9798,-1.9798,-1.9334,-1.8795,-1.8381,-1.7852,-1.7061,-1.6701,-1.6823,-1.6942,-1.7215,-1.7374,-1.7756,-1.7781,-1.777,-1.8008,-1.803,-1.8229,-1.8267,-1.8367,-1.8607,-1.8795,-1.887,-1.8894,-1.8719,-1.8493,-1.8166,-1.7827,-1.7227,-1.655,-1.6538,-1.6525,-1.6525,-1.6543,-1.6837,-1.7105,-1.7394,-1.77,-1.8302,-1.8817,-1.9244,-1.946,-1.9617,-1.9723,-1.9723,-1.9723,-1.9723,-1.9723,-1.9723,-1.9723,-1.9723,-1.9723,-1.9723,-1.9723,-1.9723,-1.9723,-1.9723,-1.9723,-1.9654,-1.9599]}]]